Date StartTime U_cm/s V_cm/s W_cm/s Ustd_cm/s Vstd_cm/s Wstd_cm/s Uvar_(cm/s)^2 Vvar_(cm/s)^2 Wvar_(cm/s)^2 KE_(m/s)^2 TurbulentKE_(m/s)^2 HorizWindSpeed_cm/s FrictionSpeec_cm/s DragCoef SpeedOfSound_m/s SonicTemperature_C Pressure_mb 
12/27/2014  00:00:00      -11.125      -15.965        1.669       13.620       15.966       17.948      185.493      254.904      322.116        0.057        0.038       19.459       14.285        0.539      329.297       -4.058      868.212
12/27/2014  00:01:00      -16.830       -9.762      -12.034       17.507       11.526        8.586      306.479      132.854       73.726        0.052        0.026       19.457        3.963        0.041      329.344       -3.980      868.188
12/27/2014  00:02:00      -42.184       -9.300       -0.557       28.484       16.576       13.760      811.316      274.761      189.329        0.157        0.064       43.197       11.997        0.077      329.298       -4.056      868.168
12/27/2014  00:03:00      -86.993      -26.027      -14.044       12.521       10.810        8.157      156.775      116.863       66.534        0.439        0.017       90.803        4.118        0.002      329.172       -4.262      868.164
12/27/2014  00:04:00     -102.663      -29.790      -12.146       16.773       14.626        7.901      281.321      213.923       62.432        0.607        0.028      106.898        5.513        0.003      329.183       -4.244      868.166
12/27/2014  00:05:00     -101.236      -39.602      -13.166       22.217       24.566       15.672      493.576      603.469      245.616        0.667        0.067      108.706        9.841        0.008      329.164       -4.275      868.164
12/27/2014  00:06:00     -100.463      -29.978      -11.466       21.118       19.668       14.605      445.950      386.843      213.311        0.608        0.052      104.840       11.571        0.012      329.130       -4.330      868.170
12/27/2014  00:07:00      -81.510      -53.451      -16.354       23.248       21.064       15.204      540.467      443.705      231.171        0.549        0.061       97.473        8.003        0.007      329.197       -4.221      868.162
12/27/2014  00:08:00      -39.415      -33.554       -8.408       27.353       19.640       19.064      748.194      385.730      363.437        0.212        0.075       51.763       13.386        0.067      329.140       -4.315      868.153
12/27/2014  00:09:00      -76.870      -24.599      -14.538       26.819       21.510       16.262      719.252      462.690      264.463        0.409        0.072       80.710       11.789        0.021      329.223       -4.179      868.148
12/27/2014  00:10:00      -62.162      -28.491      -15.865       25.649       16.726       14.273      657.883      279.756      203.732        0.303        0.057       68.380        9.432        0.019      329.217       -4.189      868.145
12/27/2014  00:11:00      -18.284      -24.806        4.040       20.803       18.004       19.733      432.745      324.140      389.410        0.106        0.057       30.816       13.839        0.202      329.170       -4.265      868.148
12/27/2014  00:12:00      -74.719      -12.684       -7.244       26.586       21.473       17.004      706.797      461.105      289.150        0.363        0.073       75.788       15.739        0.043      329.142       -4.312      868.149
12/27/2014  00:13:00     -109.746      -37.982      -14.860       24.366       21.516       20.254      593.697      462.939      410.206        0.759        0.073      116.133       16.591        0.020      329.167       -4.270      868.154
12/27/2014  00:14:00      -80.535      -44.068      -12.470       35.691       18.580       16.847     1273.816      345.203      283.838        0.524        0.095       91.803        7.689        0.007      329.235       -4.160      868.155
12/27/2014  00:15:00      -84.791      -54.486      -11.520       52.251       30.640       19.979     2730.196      938.787      399.162        0.718        0.203      100.789       14.893        0.022      329.161       -4.279      868.161
12/27/2014  00:16:00     -119.350      -50.539      -17.440       32.128       20.467       17.507     1032.219      418.910      306.512        0.943        0.088      129.610       11.305        0.008      329.095       -4.388      868.169
12/27/2014  00:17:00     -119.512      -55.637      -11.430       26.427       17.025       15.845      698.407      289.866      251.051        0.937        0.062      131.828       12.716        0.009      329.091       -4.393      868.160
12/27/2014  00:18:00      -96.159      -74.022       -2.448       28.362       22.102       20.224      804.417      488.503      409.028        0.822        0.085      121.350       16.317        0.018      329.080       -4.412      868.142
12/27/2014  00:19:00     -116.893      -63.876       -2.572       39.805       26.897       21.502     1584.413      723.430      462.339        1.026        0.139      133.207       15.512        0.014      329.080       -4.412      868.120
12/27/2014  00:20:00     -110.435      -70.979       -5.997       27.951       29.243       20.343      781.243      855.134      413.841        0.966        0.103      131.278       10.809        0.007      329.124       -4.340      868.110
12/27/2014  00:21:00     -101.724      -55.191       -9.117       28.575       22.981       13.062      816.537      528.123      170.604        0.750        0.076      115.732        8.006        0.005      329.182       -4.246      868.118
12/27/2014  00:22:00     -116.601      -57.346       -4.851       30.161       24.613       20.089      909.704      605.816      403.566        0.941        0.096      129.939       13.048        0.010      329.158       -4.284      868.128
12/27/2014  00:23:00     -111.274      -75.183       -2.051       59.338       35.637       30.381     3520.956     1269.968      923.005        1.188        0.286      134.292       30.267        0.051      329.089       -4.398      868.130
12/27/2014  00:24:00     -115.497      -56.349       -1.985       40.918       33.029       22.820     1674.315     1090.905      520.764        0.990        0.164      128.510       20.072        0.024      329.006       -4.531      868.134
12/27/2014  00:25:00      -37.681      -47.359        2.722       42.209       31.747       25.869     1781.626     1007.846      669.215        0.356        0.173       60.521       23.116        0.146      329.104       -4.371      868.130
12/27/2014  00:26:00      -75.752      -15.186        0.394       26.469       23.844       19.498      700.606      568.552      380.159        0.381        0.082       77.259       16.892        0.048      329.030       -4.493      868.125
12/27/2014  00:27:00      -53.602      -21.780        1.966       25.213       27.018       21.966      635.707      729.972      482.486        0.260        0.092       57.858       11.431        0.039      329.035       -4.485      868.119
12/27/2014  00:28:00     -102.536      -27.715        3.712       29.961       32.328       21.753      897.687     1045.120      473.209        0.686        0.121      106.215       17.258        0.026      329.058       -4.447      868.108
12/27/2014  00:29:00     -105.933      -34.683        6.720       38.996       29.906       22.318     1520.686      894.341      498.089        0.769        0.146      111.466       19.731        0.031      329.030       -4.494      868.109
12/27/2014  00:30:00     -145.981      -55.738        1.124       53.172       33.953       24.835     2827.255     1152.825      616.793        1.451        0.230      156.260       24.277        0.024      329.049       -4.462      868.122
12/27/2014  00:31:00     -159.647      -66.324       -7.877       29.611       33.257       20.612      876.793     1106.046      424.860        1.618        0.120      172.876       13.990        0.007      329.047       -4.466      868.143
12/27/2014  00:32:00     -119.673      -56.065        0.390       35.997       25.525       20.586     1295.811      651.537      423.773        0.992        0.119      132.155       20.879        0.025      329.019       -4.512      868.161
12/27/2014  00:33:00      -93.057      -49.834       -1.943       48.438       37.761       21.820     2346.199     1425.893      476.092        0.770        0.212      105.561       25.321        0.058      328.988       -4.562      868.174
12/27/2014  00:34:00     -110.028      -24.326      -10.619       16.320       13.227       11.718      266.354      174.951      137.312        0.669        0.029      112.686        4.808        0.002      329.027       -4.499      868.180
12/27/2014  00:35:00      -84.729      -31.254       -6.737       34.327       27.306       13.698     1178.317      745.634      187.624        0.516        0.106       90.309       13.862        0.024      329.012       -4.522      868.175
12/27/2014  00:36:00     -107.273       -7.507       -2.404       52.427       36.987       23.636     2748.595     1368.003      558.657        0.812        0.234      107.535       27.509        0.065      328.921       -4.672      868.171
12/27/2014  00:37:00      -94.394      -36.324       -1.852       53.862       29.799       23.490     2901.131      888.004      551.757        0.729        0.217      101.142       31.299        0.096      329.011       -4.526      868.166
12/27/2014  00:38:00      -68.297      -27.244        2.163       30.142       31.158       20.527      908.522      970.820      421.377        0.386        0.115       73.531       17.374        0.056      328.989       -4.560      868.169
12/27/2014  00:39:00      -58.370      -40.360       -7.372       19.735       20.947       15.923      389.478      438.771      253.533        0.309        0.054       70.964       12.085        0.029      328.992       -4.554      868.180
12/27/2014  00:40:00      -31.076      -29.327        4.619       21.228       17.784       19.365      450.623      316.273      375.013        0.149        0.057       42.729       13.962        0.107      329.021       -4.508      868.182
12/27/2014  00:41:00      -48.433      -32.937        3.183       28.614       22.966       18.447      818.779      527.425      340.293        0.256        0.084       58.571       17.407        0.088      329.029       -4.497      868.180
12/27/2014  00:42:00      -63.960      -35.447       -8.296       34.580       31.322       17.646     1195.769      981.052      311.387        0.395        0.124       73.126       12.097        0.027      329.007       -4.531      868.190
12/27/2014  00:43:00      -55.466      -28.440       -5.564       44.540       25.908       19.478     1983.813      671.237      379.381        0.347        0.152       62.332       18.621        0.089      328.954       -4.617      868.201
12/27/2014  00:44:00     -120.455      -37.400       -0.956       30.160       24.600       15.967      909.625      605.175      254.930        0.884        0.088      126.127       14.862        0.014      328.922       -4.671      868.209
12/27/2014  00:45:00      -95.449      -44.294       -6.082       33.610       22.803       18.348     1129.616      519.963      336.663        0.655        0.099      105.226       18.112        0.030      328.919       -4.676      868.197
12/27/2014  00:46:00     -109.672      -15.823      -16.821       24.753       19.459       17.605      612.695      378.637      309.945        0.693        0.065      110.808       16.428        0.022      328.913       -4.683      868.181
12/27/2014  00:47:00     -113.246      -30.078       -4.628       23.408       22.426       16.021      547.916      502.911      256.663        0.753        0.065      117.172       10.066        0.007      328.942       -4.637      868.169
12/27/2014  00:48:00     -130.224      -37.607      -13.244       18.611       13.796       10.025      346.366      190.339      100.509        0.959        0.032      135.545        7.306        0.003      328.981       -4.573      868.163
12/27/2014  00:49:00     -107.655      -44.538      -11.022       28.596       19.760       21.020      817.740      390.439      441.832        0.767        0.083      116.504       14.466        0.015      328.994       -4.553      868.172
12/27/2014  00:50:00     -149.792      -51.551       -9.587       23.396       17.203       14.412      547.351      295.954      207.709        1.312        0.053      158.414       11.559        0.005      328.976       -4.581      868.194
12/27/2014  00:51:00     -118.316      -36.417       -4.827       42.420       23.670       21.108     1799.497      560.277      445.533        0.908        0.140      123.793       23.438        0.036      328.965       -4.599      868.201
12/27/2014  00:52:00     -116.699      -25.706       -1.289       31.487       33.252       20.046      991.420     1105.682      401.837        0.839        0.125      119.497       16.870        0.020      328.886       -4.728      868.201
12/27/2014  00:53:00      -74.626      -10.859        4.938       55.137       29.888       24.427     3040.111      893.293      596.662        0.512        0.227       75.412       30.334        0.162      328.773       -4.913      868.201
12/27/2014  00:54:00      -80.938      -15.345      -11.534       33.638       25.331       20.129     1131.491      641.679      405.161        0.455        0.109       82.380       20.562        0.062      328.764       -4.927      868.202
12/27/2014  00:55:00      -97.275      -15.450       -9.952       27.154       19.635       14.194      737.325      385.553      201.481        0.556        0.066       98.495       10.329        0.011      328.797       -4.873      868.220
12/27/2014  00:56:00      -81.608      -15.904      -13.193       24.443       21.556       14.887      597.452      464.643      221.618        0.419        0.064       83.143        9.650        0.013      328.823       -4.830      868.247
12/27/2014  00:57:00      -86.239      -27.051      -12.353       20.788       20.244       15.004      432.133      409.836      225.106        0.469        0.053       90.382       10.911        0.015      328.872       -4.750      868.272
12/27/2014  00:58:00      -60.100      -24.148      -12.674       20.143       13.081       15.122      405.749      171.116      228.662        0.258        0.040       64.770        8.675        0.018      328.840       -4.802      868.298
12/27/2014  00:59:00      -54.397      -27.570       -9.548       17.990       18.727       11.906      323.641      350.707      141.746        0.231        0.041       60.985        9.162        0.023      328.875       -4.745      868.297
12/27/2014  01:00:00      -24.640      -13.419       -5.672       17.518       11.777        8.544      306.874      138.696       72.996        0.067        0.026       28.057        2.600        0.009      329.012       -4.522      868.278
12/27/2014  01:01:00       -5.818        6.315       -5.569       13.963        9.664        7.863      194.964       93.384       61.832        0.023        0.018        8.587        6.858        0.638      329.102       -4.375      868.252
12/27/2014  01:02:00        5.542       32.873        1.643       24.903       29.642       15.608      620.175      878.632      243.609        0.143        0.087       33.337       11.439        0.118      329.386       -3.912      868.243
12/27/2014  01:03:00        6.652       86.891       -9.264       23.072       32.784       14.071      532.331     1074.814      198.006        0.474        0.090       87.145       13.274        0.023      329.628       -3.516      868.252
12/27/2014  01:04:00      -15.015       73.570       -8.404       19.333       26.742       14.475      373.760      715.141      209.513        0.350        0.065       75.087        9.516        0.016      329.703       -3.393      868.276
12/27/2014  01:05:00      -43.747       16.074       -9.433       29.305       38.946       11.852      858.801     1516.796      140.472        0.239        0.126       46.606       15.473        0.110      329.280       -4.085      868.296
12/27/2014  01:06:00      -80.272      -20.598      -15.815       17.905        9.092        7.800      320.595       82.658       60.842        0.379        0.023       82.872        7.124        0.007      328.931       -4.655      868.305
12/27/2014  01:07:00      -88.639       -7.907      -13.331       11.073        7.917        6.829      122.615       62.678       46.632        0.416        0.012       88.991        6.319        0.005      328.851       -4.786      868.299
12/27/2014  01:08:00      -61.091      -14.756      -11.709       10.612        8.517        8.406      112.623       72.534       70.657        0.217        0.013       62.848        4.680        0.006      328.953       -4.620      868.287
12/27/2014  01:09:00      -67.366      -16.684      -14.136       14.612        8.865        9.330      213.508       78.585       87.057        0.270        0.019       69.401        8.137        0.014      328.972       -4.589      868.285
12/27/2014  01:10:00      -79.025      -22.473      -18.387       10.078       10.210        8.591      101.573      104.250       73.801        0.368        0.014       82.159        4.694        0.003      328.907       -4.694      868.296
12/27/2014  01:11:00      -77.240      -25.975      -11.497       11.913        9.216        8.091      141.915       84.940       65.461        0.353        0.015       81.490        4.775        0.003      328.944       -4.634      868.308
12/27/2014  01:12:00      -82.499      -35.332      -15.986       11.114       10.795        9.534      123.513      116.524       90.893        0.432        0.017       89.746        3.868        0.002      328.926       -4.664      868.319
12/27/2014  01:13:00     -102.968      -41.938      -11.775       11.322        9.301        8.318      128.177       86.508       69.197        0.639        0.014      111.181        4.397        0.002      328.924       -4.667      868.316
12/27/2014  01:14:00      -82.524      -45.626      -14.647       30.231       14.085       14.692      913.913      198.376      215.869        0.522        0.066       94.297        5.764        0.004      328.913       -4.685      868.307
12/27/2014  01:15:00      -82.356      -57.047       -8.947       16.213       15.091       12.777      262.872      227.753      163.255        0.539        0.033      100.184        7.955        0.006      328.975       -4.584      868.294
12/27/2014  01:16:00      -75.980      -36.845       -3.298       19.678       11.958       12.020      387.235      143.005      144.481        0.391        0.034       84.442        8.286        0.010      329.040       -4.478      868.280
12/27/2014  01:17:00      -69.614      -20.491      -10.966       13.016       12.653        8.539      169.429      160.108       72.915        0.289        0.020       72.567        6.710        0.009      329.035       -4.486      868.272
12/27/2014  01:18:00      -73.338      -14.544       -5.950       21.855       14.128        9.986      477.632      199.600       99.726        0.320        0.039       74.766        7.989        0.011      328.939       -4.643      868.281
12/27/2014  01:19:00     -110.214      -11.264      -11.050       18.540       18.497       15.843      343.722      342.155      251.014        0.667        0.047      110.788       11.176        0.010      328.921       -4.671      868.307
12/27/2014  01:20:00     -117.204      -24.855      -10.992       19.039       17.260       15.224      362.495      297.900      231.759        0.768        0.045      119.810       11.173        0.009      328.957       -4.614      868.344
12/27/2014  01:21:00     -130.169      -37.154       -5.804       27.263       16.837       17.278      743.281      283.473      298.531        0.984        0.066      135.368       16.243        0.014      328.909       -4.691      868.372
12/27/2014  01:22:00     -114.626      -48.153        1.642       39.074       19.750       19.769     1526.811      390.079      390.832        0.888        0.115      124.329       21.352        0.029      328.923       -4.667      868.385
12/27/2014  01:23:00      -97.462      -53.128       -0.262       34.508       24.684       21.275     1190.820      609.285      452.627        0.729        0.113      111.002       21.052        0.036      328.964       -4.602      868.386
12/27/2014  01:24:00      -85.262      -49.927       -1.421       33.275       25.386       18.173     1107.203      644.453      330.243        0.592        0.104       98.805       18.721        0.036      328.927       -4.663      868.376
12/27/2014  01:25:00      -64.187      -68.000       -2.960       39.347       33.647       21.614     1548.149     1132.123      467.173        0.595        0.157       93.509       19.485        0.043      328.917       -4.678      868.379
12/27/2014  01:26:00      -61.871      -65.472       -1.528       34.313       33.415       19.526     1177.351     1116.537      381.247        0.540        0.134       90.081       16.831        0.035      328.869       -4.757      868.389
12/27/2014  01:27:00      -88.829      -47.228       -0.687       34.785       24.964       18.933     1209.985      623.209      358.476        0.616        0.110      100.603       15.128        0.023      328.866       -4.760      868.401
12/27/2014  01:28:00     -127.422      -69.250        5.763       44.196       31.481       26.440     1953.274      991.055      699.064        1.235        0.182      145.024       23.097        0.025      328.754       -4.943      868.414
12/27/2014  01:29:00     -133.497      -67.835      -10.640       52.597       26.373       19.313     2766.431      695.543      373.000        1.318        0.192      149.743       23.790        0.025      328.732       -4.981      868.437
12/27/2014  01:30:00      -94.485      -59.959       -8.868       35.410       31.455       14.303     1253.844      989.408      204.573        0.752        0.122      111.904       15.003        0.018      328.759       -4.935      868.451
12/27/2014  01:31:00     -125.812      -61.316      -13.507       25.078       19.476       16.910      628.930      379.306      285.963        1.053        0.065      139.958       14.179        0.010      328.705       -5.023      868.466
12/27/2014  01:32:00     -152.048      -50.587      -14.796       17.741       22.199       15.243      314.734      492.810      232.350        1.347        0.052      160.242        6.998        0.002      328.742       -4.964      868.481
12/27/2014  01:33:00     -134.172      -62.325      -12.283       26.404       18.813       16.085      697.178      353.941      258.712        1.167        0.065      147.941       13.931        0.009      328.749       -4.952      868.489
12/27/2014  01:34:00     -121.841      -47.872       -4.467       28.435       25.753       19.101      808.523      663.235      364.865        0.950        0.092      130.908       16.564        0.016      328.758       -4.938      868.506
12/27/2014  01:35:00     -127.108      -65.139       -5.374       22.239       20.813       15.377      494.585      433.201      236.452        1.080        0.058      142.827       13.362        0.009      328.740       -4.967      868.507
12/27/2014  01:36:00     -119.634      -62.093       -2.706       30.046       18.038       17.728      902.769      325.370      314.298        0.986        0.077      134.788       15.646        0.013      328.762       -4.931      868.509
12/27/2014  01:37:00      -93.447      -52.301       -6.923       27.814       18.120       15.164      773.613      328.347      229.950        0.642        0.067      107.087       13.939        0.017      328.778       -4.905      868.513
12/27/2014  01:38:00      -88.950      -50.053      -13.442       19.573       19.319       15.493      383.099      373.229      240.038        0.580        0.050      102.066       12.791        0.016      328.794       -4.879      868.518
12/27/2014  01:39:00      -62.758      -37.160      -12.098       14.273       16.692       12.741      203.728      278.635      162.331        0.306        0.032       72.935        8.641        0.014      328.775       -4.909      868.526
12/27/2014  01:40:00      -80.075      -51.688       -7.331       16.365       15.914       11.171      267.810      253.258      124.782        0.489        0.032       95.308        4.651        0.002      328.735       -4.974      868.538
12/27/2014  01:41:00     -103.413      -36.061      -12.307       16.923       15.211       10.303      286.398      231.379      106.148        0.638        0.031      109.520        5.918        0.003      328.722       -4.997      868.549
12/27/2014  01:42:00      -98.647      -29.577      -12.361       22.771       16.476       11.348      518.498      271.450      128.782        0.584        0.046      102.986       11.747        0.013      328.708       -5.019      868.557
12/27/2014  01:43:00     -100.100      -38.429       -4.813       16.770       13.803       11.158      281.217      190.531      124.505        0.606        0.030      107.224        6.805        0.004      328.744       -4.961      868.570
12/27/2014  01:44:00      -90.917      -26.131       -7.915       15.680       22.152       16.946      245.864      490.703      287.168        0.502        0.051       94.598       14.556        0.024      328.726       -4.989      868.581
12/27/2014  01:45:00      -95.124      -10.184      -12.721       19.083       19.094       15.929      364.149      364.577      253.719        0.515        0.049       95.667       10.620        0.012      328.774       -4.913      868.580
12/27/2014  01:46:00      -89.505      -24.858      -13.392       21.901       14.741       12.445      479.649      217.284      154.871        0.483        0.043       92.893        6.509        0.005      328.779       -4.904      868.577
12/27/2014  01:47:00      -82.626      -21.065      -10.474       15.475       15.590       12.136      239.471      243.046      147.274        0.401        0.031       85.269        9.499        0.012      328.799       -4.871      868.576
12/27/2014  01:48:00      -85.518      -26.401       -9.950       12.912       13.339        6.798      166.713      177.917       46.209        0.425        0.020       89.500        4.389        0.002      328.803       -4.864      868.583
12/27/2014  01:49:00      -84.143      -41.658      -10.178        9.365        9.356        8.958       87.711       87.533       80.242        0.459        0.013       93.890        4.867        0.003      328.789       -4.888      868.598
12/27/2014  01:50:00      -77.701      -25.860      -11.003       12.123       11.971        8.274      146.967      143.312       68.463        0.359        0.018       81.892        5.425        0.004      328.815       -4.842      868.616
12/27/2014  01:51:00      -81.938      -24.557      -11.105       10.341       14.291        8.067      106.929      204.224       65.080        0.391        0.019       85.539        3.268        0.001      328.822       -4.833      868.637
12/27/2014  01:52:00      -82.492      -27.194      -15.425       11.286       11.248        9.398      127.371      126.527       88.317        0.406        0.017       86.859        5.656        0.004      328.815       -4.845      868.652
12/27/2014  01:53:00      -86.649      -38.537      -13.272        9.749       16.227        9.099       95.034      263.308       82.792        0.481        0.022       94.832        5.485        0.003      328.845       -4.795      868.659
12/27/2014  01:54:00      -82.193      -42.343      -10.703       10.685        9.744        7.143      114.166       94.943       51.029        0.446        0.013       92.459        4.148        0.002      328.809       -4.854      868.665
12/27/2014  01:55:00      -60.742      -23.914       -6.547       11.162       11.954        7.246      124.592      142.898       52.504        0.231        0.016       65.280        5.468        0.007      328.764       -4.927      868.660
12/27/2014  01:56:00      -59.953      -30.755      -10.278        8.131        9.574        7.830       66.121       91.666       61.307        0.243        0.011       67.381        3.697        0.003      328.778       -4.904      868.661
12/27/2014  01:57:00      -63.048      -20.239       -8.206        7.489       10.658        7.875       56.092      113.585       62.021        0.234        0.012       66.217        5.700        0.007      328.826       -4.825      868.663
12/27/2014  01:58:00      -69.008      -21.250       -9.601       11.160       11.032       10.006      124.538      121.705      100.123        0.283        0.017       72.205        4.922        0.005      328.845       -4.794      868.669
12/27/2014  01:59:00      -91.697      -35.719      -11.656        9.661        8.238        7.455       93.326       67.865       55.580        0.502        0.011       98.408        1.830        0.000      328.851       -4.785      868.682
12/27/2014  02:00:00      -79.619      -37.015       -6.743       14.537       10.649        8.112      211.332      113.404       65.810        0.407        0.020       87.802        5.106        0.003      328.766       -4.924      868.698
12/27/2014  02:01:00      -79.535      -41.667      -15.514       12.758        7.461        8.364      162.768       55.668       69.950        0.430        0.014       89.788        3.426        0.001      328.723       -4.995      868.705
12/27/2014  02:02:00     -102.034      -44.577      -16.379       17.379       14.720        8.167      302.037      216.666       66.700        0.663        0.029      111.347        4.248        0.001      328.688       -5.049      868.703
12/27/2014  02:03:00      -86.220      -60.165        2.822       54.891       27.990       25.968     3013.049      783.430      674.314        0.777        0.224      105.137       25.291        0.058      328.646       -5.120      868.705
12/27/2014  02:04:00     -117.514      -83.202       -6.403       42.733       34.358       31.225     1826.131     1180.439      974.979        1.238        0.199      143.986       26.175        0.033      328.716       -5.005      868.709
12/27/2014  02:05:00     -152.526     -103.270       -1.506       45.641       46.145       28.598     2083.073     2129.359      817.829        1.948        0.252      184.198       26.531        0.021      328.668       -5.085      868.723
12/27/2014  02:06:00     -126.559      -77.088        0.652       55.556       39.738       29.736     3086.434     1579.136      884.226        1.375        0.277      148.188       30.925        0.044      328.732       -4.979      868.746
12/27/2014  02:07:00      -89.409      -76.192       -1.199       38.031       31.677       17.497     1446.324     1003.430      306.143        0.828        0.138      117.470       17.094        0.021      328.689       -5.050      868.773
12/27/2014  02:08:00      -39.235      -25.232        8.006       42.540       28.155       17.988     1809.610      792.720      323.557        0.258        0.146       46.648       21.686        0.216      328.708       -5.020      868.796
12/27/2014  02:09:00      -78.066      -64.274       -2.333       29.396       27.705       14.304      864.136      767.576      204.614        0.603        0.092      101.121       13.418        0.018      328.749       -4.952      868.804
12/27/2014  02:10:00      -56.624      -37.346        0.930       25.283       20.434       11.518      639.250      417.551      132.657        0.290        0.059       67.831       11.465        0.029      328.758       -4.937      868.798
12/27/2014  02:11:00      -61.584      -33.403        1.788       31.352       20.312       13.693      982.937      412.584      187.497        0.325        0.079       70.060       12.948        0.034      328.755       -4.942      868.780
12/27/2014  02:12:00     -114.434      -43.391       -5.084       22.780       23.890       14.053      518.938      570.721      197.480        0.815        0.064      122.385       12.709        0.011      328.753       -4.947      868.764
12/27/2014  02:13:00     -115.411      -44.509       -2.750       21.568       22.236       15.306      465.160      494.434      234.285        0.825        0.060      123.697       13.460        0.012      328.713       -5.011      868.756
12/27/2014  02:14:00     -136.442      -52.815       -4.753       25.509       22.057       12.746      650.721      486.501      162.471        1.136        0.065      146.307       11.207        0.006      328.693       -5.044      868.764
12/27/2014  02:15:00     -141.037      -63.143       -5.776       34.232       23.502       17.059     1171.850      552.367      291.012        1.296        0.101      154.527       18.463        0.014      328.671       -5.080      868.780
12/27/2014  02:16:00     -131.071      -48.726       -9.310       24.101       30.324       17.265      580.853      919.526      298.076        1.072        0.090      139.835        9.824        0.005      328.656       -5.102      868.799
12/27/2014  02:17:00     -120.200      -31.518       -2.514       39.067       32.063       22.502     1526.254     1028.033      506.323        0.925        0.153      124.263       23.774        0.037      328.613       -5.174      868.809
12/27/2014  02:18:00     -138.582      -29.421       -9.973       31.331       20.997       22.241      981.617      440.860      494.662        1.104        0.096      141.671       19.028        0.018      328.692       -5.046      868.810
12/27/2014  02:19:00     -120.705      -45.351       -6.691       24.353       21.929       19.764      593.064      480.889      390.624        0.907        0.073      128.944       14.094        0.012      328.701       -5.030      868.811
12/27/2014  02:20:00     -109.862      -44.381       -8.994       24.289       19.742       16.031      589.975      389.736      257.009        0.768        0.062      118.487       12.186        0.011      328.732       -4.980      868.823
12/27/2014  02:21:00     -103.053      -41.088       -4.423       32.973       27.311       17.380     1087.209      745.870      302.078        0.723        0.107      110.942       16.595        0.022      328.721       -4.997      868.839
12/27/2014  02:22:00     -117.678      -38.011      -16.044       26.219       19.061       13.547      687.448      363.303      183.517        0.839        0.062      123.664        8.612        0.005      328.753       -4.945      868.860
12/27/2014  02:23:00     -100.675      -51.250       -4.123       22.607       25.513       13.023      511.075      650.912      169.591        0.705        0.067      112.969       10.047        0.008      328.724       -4.993      868.873
12/27/2014  02:24:00     -102.721      -51.182       -2.467       17.636       18.010       11.516      311.045      324.363      132.627        0.697        0.038      114.766        7.888        0.005      328.697       -5.037      868.885
12/27/2014  02:25:00      -89.230      -45.466       -7.594       31.034       19.104       11.110      963.098      364.957      123.439        0.577        0.073      100.145        4.013        0.002      328.751       -4.949      868.895
12/27/2014  02:26:00     -109.505      -49.503       -8.372       28.808       22.338       15.581      829.883      498.990      242.773        0.804        0.079      120.175       11.958        0.010      328.743       -4.961      868.898
12/27/2014  02:27:00     -117.047      -31.018      -13.877       15.668       13.364       11.719      245.496      178.596      137.329        0.771        0.028      121.088        9.876        0.007      328.655       -5.107      868.906
12/27/2014  02:28:00     -111.507      -33.197      -13.100       23.062       22.197       11.769      531.848      492.690      138.511        0.744        0.058      116.344        8.219        0.005      328.637       -5.136      868.911
12/27/2014  02:29:00     -131.772      -53.461      -10.060       21.080       22.408       15.070      444.350      502.138      227.109        1.075        0.059      142.204       10.904        0.006      328.705       -5.023      868.917
12/27/2014  02:30:00      -97.878      -54.421      -10.143       34.683       27.815       17.274     1202.930      773.681      298.393        0.746        0.114      111.990       14.269        0.016      328.696       -5.039      868.911
12/27/2014  02:31:00     -115.390      -49.533       -1.807       39.316       29.626       17.053     1545.750      877.678      290.792        0.924        0.136      125.572       18.271        0.021      328.634       -5.140      868.910
12/27/2014  02:32:00     -120.955      -52.249       -3.071       21.226       24.744       14.018      450.530      612.251      196.505        0.931        0.063      131.758        7.166        0.003      328.591       -5.210      868.915
12/27/2014  02:33:00     -106.629      -36.553        0.405       42.677       26.938       17.384     1821.290      725.644      302.201        0.778        0.142      112.720       11.139        0.010      328.639       -5.132      868.917
12/27/2014  02:34:00     -118.985      -19.906       -1.671       31.815       21.310       17.155     1012.187      454.124      294.299        0.816        0.088      120.639       16.356        0.018      328.621       -5.160      868.921
12/27/2014  02:35:00     -111.634      -22.731       -9.289       32.500       20.700       16.113     1056.241      428.482      259.645        0.740        0.087      113.925       18.834        0.027      328.658       -5.101      868.916
12/27/2014  02:36:00     -102.476      -29.514       -6.458       28.023       19.782       16.283      785.310      391.338      265.136        0.643        0.072      106.642       13.851        0.017      328.632       -5.142      868.906
12/27/2014  02:37:00     -102.260      -24.517       -7.964       29.813       24.052       15.341      888.806      578.496      235.351        0.641        0.085      105.158       11.543        0.012      328.604       -5.186      868.895
12/27/2014  02:38:00     -122.276      -39.964       -1.312       23.818       18.933       13.556      567.315      358.460      183.772        0.883        0.055      128.641       12.584        0.010      328.631       -5.145      868.888
12/27/2014  02:39:00      -90.497      -29.348        1.640       29.581       29.026       20.674      875.024      842.512      427.416        0.560        0.107       95.137       16.650        0.031      328.628       -5.149      868.879
12/27/2014  02:40:00      -98.433      -30.867       -4.242       20.890       19.376       17.175      436.404      375.420      294.990        0.588        0.055      103.159       15.587        0.023      328.531       -5.306      868.878
12/27/2014  02:41:00     -104.806      -27.027      -11.233       18.541       22.742       10.467      343.764      517.189      109.559        0.641        0.049      108.235        8.285        0.006      328.547       -5.282      868.880
12/27/2014  02:42:00     -106.026       -9.744       -9.181       20.137       12.480       15.351      405.505      155.739      235.643        0.611        0.040      106.473       13.807        0.017      328.510       -5.341      868.881
12/27/2014  02:43:00     -106.435      -13.477      -12.883       19.434       15.038       13.621      377.675      226.143      185.537        0.623        0.039      107.285       10.339        0.009      328.524       -5.320      868.880
12/27/2014  02:44:00     -113.721      -24.714      -13.729       17.480       14.874       11.835      305.558      221.251      140.069        0.720        0.033      116.375        4.811        0.002      328.540       -5.294      868.882
12/27/2014  02:45:00      -88.088      -17.408       -1.786       37.137       20.512       14.088     1379.121      420.722      198.465        0.503        0.100       89.792       18.170        0.041      328.429       -5.474      868.884
12/27/2014  02:46:00     -101.785      -21.299       -3.073       24.193       18.224       14.095      585.325      332.126      198.661        0.597        0.056      103.989       10.979        0.011      328.456       -5.431      868.892
12/27/2014  02:47:00     -100.595      -16.518       -9.353       33.898       13.638       14.602     1149.089      185.996      213.216        0.601        0.077      101.942       16.887        0.027      328.413       -5.501      868.898
12/27/2014  02:48:00      -95.350      -26.641       -3.082       22.586       18.061       15.920      510.139      326.199      253.455        0.545        0.054       99.002       12.988        0.017      328.445       -5.449      868.894
12/27/2014  02:49:00      -88.919      -22.691       -5.946       19.770       18.735       12.438      390.851      350.982      154.692        0.468        0.045       91.769        8.765        0.009      328.494       -5.367      868.901
12/27/2014  02:50:00      -92.332      -10.504       -3.001       21.460       18.795       13.291      460.518      353.256      176.655        0.482        0.050       92.927       11.979        0.017      328.462       -5.421      868.900
12/27/2014  02:51:00     -111.712      -11.056       -8.835       20.361       17.773       15.468      414.558      315.880      239.246        0.682        0.048      112.258        8.587        0.006      328.360       -5.586      868.904
12/27/2014  02:52:00     -101.824      -13.996       -5.356       26.742       16.970       12.128      715.150      287.988      147.084        0.587        0.058      102.781        5.321        0.003      328.340       -5.617      868.898
12/27/2014  02:53:00      -95.533      -16.993       -1.185       29.014       25.199       17.055      841.798      634.997      290.862        0.559        0.088       97.033       18.774        0.037      328.328       -5.638      868.888
12/27/2014  02:54:00      -90.535      -16.645       -3.184       34.127       19.636       16.978     1164.630      385.555      288.255        0.516        0.092       92.052       17.202        0.035      328.313       -5.662      868.882
12/27/2014  02:55:00      -98.936      -25.780      -10.210       16.516       15.819       15.993      272.767      250.234      255.787        0.567        0.039      102.240       10.987        0.012      328.353       -5.599      868.883
12/27/2014  02:56:00      -85.269      -24.204       -3.324       20.319       18.725       12.723      412.860      350.617      161.886        0.440        0.046       88.638       12.187        0.019      328.373       -5.565      868.879
12/27/2014  02:57:00      -64.209      -24.883        0.026       19.522       15.199       13.382      381.117      231.015      179.072        0.277        0.040       68.862       10.304        0.022      328.347       -5.606      868.876
12/27/2014  02:58:00      -97.158      -38.247       -8.352       12.071       19.379        9.985      145.708      375.555       99.704        0.580        0.031      104.415        4.712        0.002      328.431       -5.470      868.868
12/27/2014  02:59:00      -60.674      -41.789       -1.425       31.688       18.011       14.782     1004.148      324.385      218.496        0.349        0.077       73.673       17.582        0.057      328.424       -5.482      868.861
12/27/2014  03:00:00      -65.762      -57.159        5.389       52.685       39.172       19.983     2775.752     1534.464      399.322        0.616        0.235       87.130       26.124        0.090      328.411       -5.504      868.867
12/27/2014  03:01:00      -91.474      -88.957       -3.445       40.924       38.207       25.016     1674.777     1459.781      625.786        1.003        0.188      127.597       20.947        0.027      328.507       -5.349      868.882
12/27/2014  03:02:00     -145.620     -111.768      -10.561       46.484       43.645       28.259     2160.756     1904.893      798.588        1.934        0.243      183.569       23.597        0.017      328.432       -5.470      868.895
12/27/2014  03:03:00     -152.352     -114.924       -5.356       41.562       33.589       29.199     1727.399     1128.243      852.602        2.008        0.185      190.837       23.984        0.016      328.360       -5.588      868.901
12/27/2014  03:04:00     -129.214      -80.471       -9.380       36.997       43.896       30.253     1368.759     1926.869      915.259        1.373        0.211      152.223       28.541        0.035      328.351       -5.600      868.902
12/27/2014  03:05:00      -96.014      -92.793       -9.257       39.193       51.825       26.247     1536.087     2685.863      688.895        1.141        0.246      133.526       28.391        0.045      328.305       -5.676      868.889
12/27/2014  03:06:00      -99.554      -74.944       -0.275       52.281       40.980       23.566     2733.336     1679.401      555.368        1.025        0.248      124.610       28.697        0.053      328.295       -5.692      868.874
12/27/2014  03:07:00     -124.980      -88.704       -4.360       38.219       35.383       23.605     1460.678     1251.964      557.208        1.339        0.163      153.259       23.270        0.023      328.298       -5.687      868.867
12/27/2014  03:08:00      -55.592      -68.962        4.498       43.003       39.023       23.679     1849.269     1522.796      560.672        0.590        0.197       88.579       22.431        0.064      328.323       -5.646      868.868
12/27/2014  03:09:00      -86.912      -36.369        6.894       52.142       34.710       26.218     2718.828     1204.760      687.372        0.677        0.231       94.215       26.310        0.078      328.294       -5.694      868.870
12/27/2014  03:10:00     -114.122      -44.998       -2.617       26.330       24.988       19.619      693.278      624.420      384.892        0.838        0.085      122.673       13.744        0.013      328.336       -5.625      868.873
12/27/2014  03:11:00     -109.512      -57.689       -0.621       37.090       36.109       18.620     1375.631     1303.843      346.710        0.917        0.151      123.777       16.161        0.017      328.318       -5.652      868.861
12/27/2014  03:12:00      -90.228      -64.660        3.668       28.177       31.851       19.321      793.936     1014.477      373.314        0.726        0.109      111.005       18.210        0.027      328.296       -5.691      868.855
12/27/2014  03:13:00      -98.565      -30.586        2.235       41.069       38.017       25.504     1686.664     1445.299      650.466        0.722        0.189      103.201       24.445        0.056      328.260       -5.750      868.847
12/27/2014  03:14:00      -99.788      -25.599      -15.369       29.133       22.609       19.531      848.753      511.185      381.446        0.629        0.087      103.019       17.080        0.027      328.341       -5.619      868.836
12/27/2014  03:15:00     -101.651      -34.402       -4.074       24.396       19.574       18.423      595.153      383.143      339.401        0.643        0.066      107.314       16.100        0.023      328.310       -5.667      868.830
12/27/2014  03:16:00      -98.790      -22.528       -6.972       26.902       33.341       18.416      723.729     1111.633      339.134        0.624        0.109      101.326       14.730        0.021      328.245       -5.773      868.824
12/27/2014  03:17:00     -103.908      -16.365       -4.963       26.714       22.301       17.010      713.652      497.342      289.345        0.629        0.075      105.188       12.843        0.015      328.238       -5.785      868.812
12/27/2014  03:18:00      -90.481      -21.231       -0.366       26.636       20.263       17.081      709.502      410.607      291.773        0.502        0.071       92.939       13.168        0.020      328.298       -5.687      868.797
12/27/2014  03:19:00      -89.113      -60.191       -1.500       25.667       19.951       11.790      658.820      398.024      138.997        0.638        0.060      107.536        8.894        0.007      328.372       -5.567      868.774
12/27/2014  03:20:00     -102.391      -49.699        0.164       21.184       23.251       14.198      448.761      540.627      201.583        0.707        0.060      113.816       11.578        0.010      328.317       -5.657      868.750
12/27/2014  03:21:00      -46.535      -44.528        1.232       33.534       37.987       15.189     1124.558     1443.037      230.701        0.347        0.140       64.407       14.039        0.048      328.361       -5.585      868.730
12/27/2014  03:22:00      -87.776      -79.886       -4.016       31.406       25.032       22.891      986.318      626.604      524.011        0.812        0.107      118.686       20.920        0.031      328.326       -5.641      868.728
12/27/2014  03:23:00     -105.224      -75.431       -7.058       36.128       48.269       21.952     1305.201     2329.918      481.878        1.046        0.206      129.467       21.547        0.028      328.218       -5.819      868.722
12/27/2014  03:24:00      -74.490      -76.980       -0.459       24.151       23.939       21.762      583.290      573.059      473.587        0.655        0.081      107.120       17.900        0.028      328.263       -5.744      868.721
12/27/2014  03:25:00      -41.619      -39.100        6.354       37.876       28.359       19.142     1434.580      804.256      366.419        0.295        0.130       57.105       17.278        0.092      328.319       -5.652      868.719
12/27/2014  03:26:00      -55.546      -37.615        3.292       42.720       30.256       17.028     1824.962      915.443      289.963        0.377        0.152       67.084       18.202        0.074      328.267       -5.739      868.725
12/27/2014  03:27:00      -54.190      -36.812       -0.881       33.816       25.519       18.126     1143.549      651.241      328.547        0.321        0.106       65.511       14.138        0.047      328.198       -5.851      868.740
12/27/2014  03:28:00      -79.691      -45.793       -0.525       29.690       19.601       15.671      881.470      384.208      245.569        0.498        0.076       91.911       15.603        0.029      328.213       -5.826      868.774
12/27/2014  03:29:00      -65.000      -39.274       -4.052       35.359       17.351       15.429     1250.253      301.058      238.042        0.379        0.089       75.944       13.962        0.034      328.172       -5.893      868.795
12/27/2014  03:30:00      -58.853      -40.730        2.365       33.107       28.690       16.448     1096.059      823.107      270.525        0.366        0.109       71.573       17.743        0.061      328.176       -5.885      868.803
12/27/2014  03:31:00      -65.242      -21.487       -7.039       15.752       17.517       10.727      248.112      306.845      115.070        0.272        0.034       68.689        8.438        0.015      328.206       -5.837      868.809
12/27/2014  03:32:00       -3.485       -9.098       11.890       21.472       13.587       12.292      461.049      184.597      151.088        0.052        0.040        9.743       12.039        1.527      328.154       -5.921      868.814
12/27/2014  03:33:00      -42.232      -32.723        5.693       35.375       20.970       16.182     1251.423      439.748      261.843        0.242        0.098       53.426       17.924        0.113      328.211       -5.829      868.820
12/27/2014  03:34:00      -49.454      -41.460       -1.381       30.267       18.973       14.829      916.107      359.975      219.904        0.283        0.075       64.534       13.076        0.041      328.203       -5.842      868.822
12/27/2014  03:35:00      -54.265      -31.268        4.851       36.069       23.251       18.122     1300.965      540.588      328.424        0.306        0.108       62.628       17.072        0.074      328.219       -5.815      868.826
12/27/2014  03:36:00      -97.125      -72.930       -4.945       28.390       31.329       17.502      806.013      981.495      306.303        0.843        0.105      121.459       12.961        0.011      328.204       -5.840      868.830
12/27/2014  03:37:00      -87.637      -43.855       -8.188       15.788       23.566       14.631      249.261      555.338      214.071        0.534        0.051       97.997       11.359        0.013      328.210       -5.831      868.843
12/27/2014  03:38:00      -77.250      -10.175       -2.188       19.055       15.469       11.778      363.107      239.282      138.727        0.341        0.037       77.917        8.742        0.013      328.115       -5.985      868.850
12/27/2014  03:39:00      -68.154      -17.951       -2.846       20.515       20.644       10.648      420.877      426.167      113.378        0.297        0.048       70.479        5.799        0.007      328.130       -5.961      868.845
12/27/2014  03:40:00      -57.576      -40.607       -0.714       24.157       25.430       13.745      583.556      646.668      188.937        0.319        0.071       70.455       10.170        0.021      328.137       -5.950      868.850
12/27/2014  03:41:00      -27.014      -15.646        8.783       17.412       21.901       10.240      303.194      479.673      104.857        0.097        0.044       31.218        9.343        0.090      328.146       -5.936      868.851
12/27/2014  03:42:00      -54.269        3.518       -4.835       10.866       17.522        8.326      118.070      307.036       69.328        0.174        0.025       54.383        3.940        0.005      328.055       -6.082      868.853
12/27/2014  03:43:00      -75.199      -14.946       -5.231       20.076       17.192       10.516      403.056      295.576      110.580        0.336        0.040       76.670        6.945        0.008      328.067       -6.064      868.871
12/27/2014  03:44:00      -91.396      -35.190      -15.371       11.251       14.037       12.008      126.584      197.049      144.197        0.515        0.023       97.937        3.907        0.002      328.146       -5.936      868.880
12/27/2014  03:45:00      -91.987      -30.722      -12.907       13.075       22.175        9.634      170.951      491.729       92.808        0.516        0.038       96.982        7.384        0.006      328.150       -5.929      868.890
12/27/2014  03:46:00     -120.390      -14.917       -7.815       17.077       18.466       12.618      291.614      340.998      159.213        0.778        0.040      121.311        8.480        0.005      328.112       -5.992      868.900
12/27/2014  03:47:00      -89.620      -47.254        2.241       45.545       22.918       17.255     2074.303      525.214      297.728        0.658        0.145      101.315       18.396        0.033      328.049       -6.093      868.912
12/27/2014  03:48:00      -97.436      -36.216       -0.511       40.891       34.453       20.127     1672.041     1187.037      405.112        0.703        0.163      103.949       21.711        0.044      328.041       -6.106      868.913
12/27/2014  03:49:00      -91.216      -22.113       -1.034       28.749       21.866       18.146      826.498      478.130      329.295        0.522        0.082       93.858       15.988        0.029      327.982       -6.203      868.917
12/27/2014  03:50:00     -101.985      -38.878        0.502       29.716       22.146       14.843      883.016      490.454      220.302        0.675        0.080      109.144       15.346        0.020      328.022       -6.137      868.917
12/27/2014  03:51:00     -103.628      -35.649       -2.055       29.149       24.249       15.061      849.682      588.012      226.844        0.684        0.083      109.588       12.747        0.014      328.019       -6.142      868.901
12/27/2014  03:52:00     -111.400      -16.295       -5.100       33.083       21.958       20.339     1094.487      482.165      413.692        0.735        0.100      112.585       16.084        0.020      327.955       -6.245      868.875
12/27/2014  03:53:00     -105.325      -36.738       -1.550       37.126       29.947       23.942     1378.364      896.834      573.224        0.765        0.142      111.548       22.510        0.041      327.935       -6.279      868.851
12/27/2014  03:54:00     -131.032      -27.021       -4.159       21.965       20.093       16.794      482.440      403.739      282.031        0.954        0.058      133.789       11.691        0.008      327.916       -6.309      868.832
12/27/2014  03:55:00     -129.109      -45.095      -13.822       26.537       19.919       17.178      704.197      396.762      295.084        1.014        0.070      136.758       11.976        0.008      327.955       -6.247      868.817
12/27/2014  03:56:00      -92.980      -24.631       -4.469       39.489       21.045       18.863     1559.369      442.904      355.811        0.581        0.118       96.187       20.448        0.045      327.915       -6.311      868.806
12/27/2014  03:57:00     -137.126      -39.943       -9.845       23.792       25.730       14.742      566.046      662.021      217.335        1.097        0.072      142.825       14.844        0.011      327.857       -6.406      868.792
12/27/2014  03:58:00     -109.133      -55.008       -8.294       30.879       20.439       16.695      953.507      417.761      278.739        0.833        0.083      122.212       15.332        0.016      327.902       -6.333      868.789
12/27/2014  03:59:00     -116.499      -42.395      -11.206       32.228       29.892       11.986     1038.625      893.516      143.665        0.878        0.104      123.973       11.872        0.009      327.892       -6.349      868.792
12/27/2014  04:00:00      -64.640      -25.634       -4.748       17.662       31.514       13.158      311.939      993.105      173.131        0.317        0.074       69.537       11.026        0.025      327.896       -6.343      868.790
12/27/2014  04:01:00      -50.678       -1.257       -4.445       15.741       13.478        9.313      247.779      181.660       86.733        0.155        0.026       50.693        6.634        0.017      327.922       -6.300      868.778
12/27/2014  04:02:00      -17.276        2.341        0.285       21.023        9.055       10.026      441.987       81.993      100.517        0.046        0.031       17.434       10.452        0.359      327.903       -6.331      868.765
12/27/2014  04:03:00       -3.947       -0.186       -0.797        8.911        4.837        7.140       79.413       23.398       50.979        0.008        0.008        3.951        3.966        1.008      327.953       -6.250      868.753
12/27/2014  04:04:00        6.057        3.874      -11.910       17.928       15.515       11.024      321.420      240.708      121.534        0.044        0.034        7.190        6.656        0.857      328.097       -6.014      868.746
12/27/2014  04:05:00       13.297       23.714        7.472       13.925       10.913       12.199      193.893      119.104      148.827        0.063        0.023       27.188       10.703        0.155      328.115       -5.987      868.740
12/27/2014  04:06:00        3.811       12.882       15.912       14.003       11.460        9.200      196.081      131.328       84.643        0.042        0.021       13.434        8.343        0.386      328.092       -6.023      868.736
12/27/2014  04:07:00       16.480       12.117        1.018       17.047       15.776       13.756      290.584      248.893      189.231        0.057        0.036       20.455       13.160        0.414      328.082       -6.038      868.726
12/27/2014  04:08:00        9.749       22.435        3.117        9.225        7.167       11.375       85.104       51.359      129.392        0.044        0.013       24.462        7.411        0.092      327.989       -6.190      868.705
12/27/2014  04:09:00        3.267       18.532        1.116        8.145        8.571        6.228       66.342       73.461       38.784        0.027        0.009       18.818        6.095        0.105      328.027       -6.129      868.682
12/27/2014  04:10:00      -10.466       -4.729       -2.263        8.541       11.711        8.823       72.944      137.137       77.854        0.021        0.014       11.484        9.241        0.647      328.054       -6.084      868.663
12/27/2014  04:11:00      -29.290      -14.468       -1.197       22.085       10.448        9.696      487.742      109.154       94.007        0.088        0.035       32.669        5.638        0.030      328.095       -6.018      868.656
12/27/2014  04:12:00      -68.598      -18.680       -6.745       18.612       11.771        9.218      346.393      138.563       84.974        0.283        0.028       71.096        7.234        0.010      328.037       -6.113      868.651
12/27/2014  04:13:00      -85.345      -57.991       -7.173       21.617       20.622       13.134      467.306      425.262      172.513        0.588        0.053      103.183       10.821        0.011      328.031       -6.123      868.649
12/27/2014  04:14:00      -53.522      -28.059       -2.344       29.905       19.068       13.673      894.323      363.575      186.951        0.255        0.072       60.431        8.608        0.020      328.022       -6.137      868.641
12/27/2014  04:15:00      -60.582      -20.944       -4.563       19.599       16.183       10.572      384.129      261.882      111.760        0.244        0.038       64.100        8.378        0.017      327.989       -6.192      868.643
12/27/2014  04:16:00      -76.185      -24.819       -4.060       14.362       10.319       10.178      206.269      106.481      103.590        0.343        0.021       80.126        9.372        0.014      328.031       -6.122      868.647
12/27/2014  04:17:00      -71.219      -41.304       -1.264       13.331       12.678        9.203      177.725      160.730       84.704        0.360        0.021       82.330        4.465        0.003      328.092       -6.023      868.630
12/27/2014  04:18:00      -40.993      -25.479        3.508       27.670       19.990       15.607      765.638      399.601      243.578        0.188        0.070       48.266       14.790        0.094      328.029       -6.126      868.622
12/27/2014  04:19:00      -43.230      -23.732        6.037       23.567       18.288       13.722      555.416      334.449      188.289        0.177        0.054       49.316       13.057        0.070      328.092       -6.024      868.607
12/27/2014  04:20:00      -56.634      -24.530       -0.867       25.408       13.990       12.454      645.570      195.722      155.107        0.240        0.050       61.718       15.437        0.063      328.090       -6.026      868.589
12/27/2014  04:21:00      -85.931      -33.162       -3.782       16.220       13.683       10.451      263.099      187.217      109.221        0.453        0.028       92.108        6.095        0.004      328.094       -6.019      868.568
12/27/2014  04:22:00      -91.806      -29.061       -2.928       23.326       19.543       12.552      544.081      381.936      157.562        0.518        0.054       96.295       11.861        0.015      327.996       -6.179      868.558
12/27/2014  04:23:00      -73.608      -14.861        3.545       21.357       17.860       15.101      456.116      318.979      228.055        0.333        0.050       75.093       12.753        0.029      327.868       -6.388      868.564
12/27/2014  04:24:00      -64.868      -17.411       -0.289       26.068       17.806       12.921      679.554      317.060      166.945        0.284        0.058       67.164       10.045        0.022      327.856       -6.408      868.578
12/27/2014  04:25:00      -85.145       -7.583       -4.479       11.641       11.745        8.006      135.505      137.947       64.097        0.383        0.017       85.482        5.338        0.004      327.902       -6.332      868.586
12/27/2014  04:26:00      -63.960      -15.776       -4.740       18.779       11.245        7.413      352.669      126.445       54.956        0.245        0.027       65.877        6.056        0.008      327.907       -6.325      868.601
12/27/2014  04:27:00      -40.939      -10.977       -5.397        7.970        7.446        6.460       63.516       55.444       41.727        0.099        0.008       42.385        3.861        0.008      328.002       -6.168      868.603
12/27/2014  04:28:00      -35.658        5.546       -4.877       12.689        6.131        5.578      161.016       37.585       31.112        0.078        0.011       36.086        4.259        0.014      327.971       -6.219      868.593
12/27/2014  04:29:00      -75.203        6.408       -5.617       11.122       11.698        7.320      123.704      136.846       53.576        0.302        0.016       75.475        5.715        0.006      327.976       -6.212      868.584
12/27/2014  04:30:00      -63.661      -23.580      -11.224       16.093       16.495       10.747      258.979      272.089      115.494        0.269        0.032       67.887        9.787        0.021      327.889       -6.354      868.581
12/27/2014  04:31:00      -76.929      -28.738       -7.605       11.540       10.329        9.459      133.170      106.693       89.464        0.357        0.016       82.122        5.817        0.005      327.862       -6.398      868.581
12/27/2014  04:32:00      -91.130      -21.140      -11.696       19.255       16.893       14.519      370.739      285.376      210.803        0.488        0.043       93.550       13.172        0.020      327.803       -6.494      868.585
12/27/2014  04:33:00      -93.033      -14.223      -12.613       14.668       14.598       10.758      215.137      213.096      115.739        0.478        0.027       94.114        5.868        0.004      327.740       -6.595      868.594
12/27/2014  04:34:00      -73.509      -15.150       -8.388       23.819       15.462        9.406      567.364      239.086       88.466        0.330        0.045       75.054       10.104        0.018      327.770       -6.548      868.607
12/27/2014  04:35:00      -71.153      -17.920       -3.978       26.380       16.102       15.862      695.880      259.270      251.601        0.330        0.060       73.374       16.660        0.052      327.777       -6.537      868.623
12/27/2014  04:36:00      -98.711      -16.960       -6.235       28.418       18.883       14.738      807.559      356.556      217.205        0.573        0.069      100.158       15.618        0.024      327.730       -6.612      868.635
12/27/2014  04:37:00      -93.791      -20.584       -1.613       32.259       20.840       18.384     1040.668      434.321      337.989        0.552        0.091       96.023       18.350        0.037      327.726       -6.619      868.653
12/27/2014  04:38:00     -103.159      -23.735       -3.138       48.044       23.177       16.362     2308.234      537.186      267.721        0.716        0.156      105.854       22.741        0.046      327.717       -6.632      868.664
12/27/2014  04:39:00     -101.011      -25.954       -0.996       34.609       21.644       14.834     1197.751      468.447      220.034        0.638        0.094      104.292       16.144        0.024      327.719       -6.631      868.675
12/27/2014  04:40:00      -63.442      -34.302       -5.900       26.824       17.994       14.649      719.542      323.774      214.585        0.325        0.063       72.122        3.921        0.003      327.759       -6.566      868.678
12/27/2014  04:41:00      -74.979       -5.259       -7.235       17.236       11.952       12.039      297.070      142.844      144.944        0.314        0.029       75.163        4.915        0.004      327.699       -6.662      868.672
12/27/2014  04:42:00      -97.775      -17.492       -9.755       18.288       13.452        8.035      334.443      180.963       64.569        0.527        0.029       99.327        3.625        0.001      327.738       -6.599      868.672
12/27/2014  04:43:00     -106.432      -43.293      -15.274       17.126       19.093       11.755      293.295      364.543      138.188        0.712        0.040      114.900       10.258        0.008      327.716       -6.634      868.670
12/27/2014  04:44:00     -102.519      -25.128      -14.965       20.480       20.345       18.475      419.431      413.906      341.328        0.627        0.059      105.553       15.608        0.022      327.731       -6.611      868.665
12/27/2014  04:45:00      -99.892      -43.267       -5.937       17.340       22.519       12.845      300.673      507.116      164.996        0.643        0.049      108.860       10.102        0.009      327.709       -6.647      868.647
12/27/2014  04:46:00      -82.585      -14.683       -4.868       31.731       28.537       18.679     1006.850      814.348      348.916        0.461        0.109       83.880       17.954        0.046      327.637       -6.764      868.629
12/27/2014  04:47:00      -85.783      -14.878       -0.646       31.770       19.140       14.872     1009.350      366.324      221.188        0.459        0.080       87.063       14.389        0.027      327.609       -6.809      868.622
12/27/2014  04:48:00      -97.748      -49.477       -6.733       27.441       21.460       16.788      753.015      460.535      281.837        0.677        0.075      109.556       13.327        0.015      327.608       -6.811      868.610
12/27/2014  04:49:00     -106.973      -27.996       -9.581       26.955       18.547       16.749      726.548      344.005      280.524        0.683        0.068      110.576       13.952        0.016      327.626       -6.782      868.602
12/27/2014  04:50:00     -103.191      -41.653      -14.343       17.178       21.092       13.772      295.077      444.855      189.664        0.676        0.046      111.281        5.593        0.003      327.655       -6.735      868.608
12/27/2014  04:51:00     -100.622      -27.305      -18.902       18.531       21.212        9.774      343.386      449.936       95.538        0.606        0.044      104.261        6.139        0.003      327.676       -6.701      868.623
12/27/2014  04:52:00      -89.824      -40.051       -5.270       24.773       22.677       15.510      613.721      514.250      240.559        0.553        0.068       98.349       13.724        0.019      327.721       -6.626      868.642
12/27/2014  04:53:00      -95.552      -33.068       -7.842       22.464       25.788       14.128      504.651      665.034      199.601        0.583        0.068      101.112       10.666        0.011      327.750       -6.582      868.658
12/27/2014  04:54:00      -99.165      -34.615       -2.898       22.472       18.918       13.540      504.993      357.906      183.319        0.604        0.052      105.033       12.929        0.015      327.749       -6.581      868.676
12/27/2014  04:55:00     -108.630      -34.291       -6.713       21.531       20.125       14.226      463.602      405.035      202.382        0.705        0.054      113.914       10.830        0.009      327.743       -6.591      868.694
12/27/2014  04:56:00      -91.674      -28.903       -5.298       21.769       17.273       13.543      473.882      298.370      183.415        0.511        0.048       96.122       13.542        0.020      327.757       -6.569      868.709
12/27/2014  04:57:00      -86.589      -37.119       -4.907       17.609       17.238       10.971      310.080      297.133      120.365        0.481        0.036       94.210        7.196        0.006      327.794       -6.507      868.722
12/27/2014  04:58:00      -57.422      -13.144        2.041       22.277       18.243       13.102      496.242      332.824      171.656        0.224        0.050       58.908       12.751        0.047      327.729       -6.613      868.725
12/27/2014  04:59:00      -43.383      -35.967        2.560       27.054       17.695       15.178      731.933      313.120      230.382        0.223        0.064       56.354       12.654        0.050      327.853       -6.412      868.731
12/27/2014  05:00:00      -48.544      -41.812        1.305       36.492       25.819       18.459     1331.644      666.626      340.722        0.322        0.117       64.069       18.718        0.085      327.787       -6.519      868.729
12/27/2014  05:01:00      -89.851      -81.755      -12.475       29.373       21.233       15.330      862.763      450.826      235.009        0.823        0.077      121.478       10.891        0.008      327.837       -6.438      868.736
12/27/2014  05:02:00      -77.466      -89.904       -4.196       19.165       26.603       17.825      367.307      707.726      317.738        0.775        0.070      118.675       11.306        0.009      327.888       -6.354      868.739
12/27/2014  05:03:00      -72.174      -66.770       -0.190       36.034       31.150       19.377     1298.462      970.302      375.452        0.616        0.132       98.323       18.059        0.034      327.861       -6.399      868.743
12/27/2014  05:04:00      -68.551      -85.396       -7.151       33.222       30.404       21.240     1103.732      924.388      451.151        0.726        0.124      109.507       19.750        0.033      327.914       -6.313      868.733
12/27/2014  05:05:00      -85.557      -75.245       -1.156       24.431       33.302       18.979      596.860     1109.008      360.210        0.752        0.103      113.938       19.529        0.029      327.870       -6.385      868.717
12/27/2014  05:06:00      -81.015      -45.758       -1.708       23.275       25.297       11.623      541.728      639.913      135.086        0.499        0.066       93.044       13.162        0.020      327.937       -6.276      868.700
12/27/2014  05:07:00      -74.826      -51.811       -8.886       29.813       22.103       13.510      888.814      488.559      182.513        0.496        0.078       91.013        8.977        0.010      327.962       -6.236      868.692
12/27/2014  05:08:00      -65.286      -40.886       -7.503       28.998       15.927       13.439      840.883      253.660      180.600        0.363        0.064       77.032       12.081        0.025      327.903       -6.330      868.669
12/27/2014  05:09:00      -44.897      -29.017       -2.893       30.813       20.241       16.168      949.451      409.705      261.397        0.224        0.081       53.457       18.181        0.116      327.917       -6.309      868.659
12/27/2014  05:10:00      -32.561      -14.373       -0.282       16.531       14.345        6.812      273.268      205.770       46.403        0.090        0.026       35.592        5.625        0.025      327.957       -6.242      868.660
12/27/2014  05:11:00      -46.929       -6.419       -1.835        8.390       11.438        9.303       70.390      130.822       86.553        0.127        0.014       47.366        5.243        0.012      327.944       -6.264      868.662
12/27/2014  05:12:00      -39.578       -4.599       -8.874       12.059        7.845        8.566      145.412       61.540       73.373        0.097        0.014       39.844        1.558        0.002      327.912       -6.314      868.654
12/27/2014  05:13:00      -29.779        0.342       -5.303        6.422        9.351        4.911       41.245       87.442       24.122        0.053        0.008       29.781        2.991        0.010      327.900       -6.335      868.643
12/27/2014  05:14:00      -31.641       12.713       -1.875        7.157        7.168        6.333       51.227       51.375       40.107        0.065        0.007       34.099        2.382        0.005      327.901       -6.332      868.628
12/27/2014  05:15:00      -52.539       13.097       -4.198       10.802        6.423        5.848      116.683       41.257       34.203        0.157        0.010       54.146        3.143        0.003      327.860       -6.400      868.620
12/27/2014  05:16:00      -59.273       18.121      -10.215       11.263        9.256        9.405      126.862       85.673       88.447        0.212        0.015       61.981        4.983        0.006      327.780       -6.530      868.606
12/27/2014  05:17:00      -85.262       -2.288      -11.653       15.029       20.937        9.097      225.869      438.375       82.752        0.408        0.037       85.293        7.774        0.008      327.812       -6.479      868.592
12/27/2014  05:18:00      -95.453      -20.587      -11.187       22.192       12.480       11.773      492.488      155.743      138.614        0.522        0.039       97.647        9.491        0.009      327.742       -6.593      868.583
12/27/2014  05:19:00      -89.653      -37.996       -6.919       21.765       21.190       16.470      473.705      449.004      271.275        0.536        0.060       97.372       14.046        0.021      327.628       -6.778      868.590
12/27/2014  05:20:00      -74.838      -14.304      -11.299       20.567       17.501       12.382      423.010      306.274      153.316        0.341        0.044       76.192        9.051        0.014      327.657       -6.729      868.609
12/27/2014  05:21:00      -76.795       -3.732       -7.516       27.117       14.984       16.324      735.335      224.516      266.476        0.360        0.061       76.886       17.102        0.049      327.619       -6.793      868.634
12/27/2014  05:22:00      -88.560       -8.017       -8.469       19.635       18.636       14.612      385.545      347.286      213.497        0.446        0.047       88.922       11.652        0.017      327.603       -6.819      868.656
12/27/2014  05:23:00     -101.520      -11.345      -10.912       14.682       15.725       11.976      215.555      247.269      143.420        0.558        0.030      102.152        8.892        0.008      327.581       -6.855      868.682
12/27/2014  05:24:00      -85.338       -7.004       -9.618       27.437       21.881       14.534      752.775      478.797      211.239        0.443        0.072       85.625       12.588        0.022      327.593       -6.835      868.693
12/27/2014  05:25:00      -86.696      -10.440       -7.026       21.248       23.117       14.842      451.471      534.396      220.299        0.444        0.060       87.323       12.661        0.021      327.588       -6.843      868.696
12/27/2014  05:26:00      -77.585       -4.902       -6.313       19.740       17.105       13.892      389.683      292.575      192.987        0.348        0.044       77.740       10.441        0.018      327.562       -6.886      868.678
12/27/2014  05:27:00      -70.940       -4.418       -8.574       27.866       21.699       13.485      776.537      470.854      181.836        0.328        0.071       71.077       13.892        0.038      327.571       -6.871      868.670
12/27/2014  05:28:00      -76.934       -7.862      -12.995       18.914       12.593       12.789      357.722      158.577      163.565        0.341        0.034       77.335       12.120        0.025      327.616       -6.798      868.666
12/27/2014  05:29:00      -43.299       -2.496       -5.093       19.917       13.177        9.648      396.677      173.633       93.076        0.129        0.033       43.371        6.067        0.020      327.555       -6.896      868.677
12/27/2014  05:30:00      -24.965       -6.883      -11.859       12.176        7.035        6.426      148.262       49.490       41.297        0.053        0.012       25.896        4.395        0.029      327.632       -6.771      868.700
12/27/2014  05:31:00      -27.392      -15.068      -10.893       12.533       12.803        7.703      157.086      163.909       59.333        0.074        0.019       31.263        6.047        0.037      327.690       -6.678      868.731
12/27/2014  05:32:00      -23.091      -16.295       -1.464       11.404        9.315        6.661      130.043       86.776       44.371        0.053        0.013       28.261        3.380        0.014      327.603       -6.819      868.738
12/27/2014  05:33:00        4.426        5.574        2.437       19.444       10.997        4.125      378.078      120.925       17.019        0.029        0.026        7.118        4.305        0.366      327.794       -6.509      868.730
12/27/2014  05:34:00       44.637       23.165       -2.067       12.073        9.679        7.615      145.767       93.690       57.987        0.142        0.015       50.290        3.674        0.005      327.966       -6.227      868.689
12/27/2014  05:35:00       36.815        5.531        4.404       10.501        9.979       10.250      110.267       99.571      105.054        0.086        0.016       37.228        6.989        0.035      327.942       -6.269      868.644
12/27/2014  05:36:00       29.804       12.386       -3.540       11.378       10.646       10.920      129.461      113.335      119.245        0.071        0.018       32.275        7.487        0.054      327.944       -6.265      868.619
12/27/2014  05:37:00       22.074        7.709        1.354        8.685        7.003       11.665       75.437       49.040      136.064        0.040        0.013       23.381        5.796        0.061      327.911       -6.318      868.616
12/27/2014  05:38:00       10.469       15.460        4.280        6.005        9.198        7.521       36.058       84.606       56.559        0.027        0.009       18.671        4.053        0.047      327.905       -6.328      868.625
12/27/2014  05:39:00       29.021       22.276       -0.816       13.429        9.212       11.288      180.328       84.862      127.409        0.087        0.020       36.585        6.205        0.029      327.888       -6.353      868.639
12/27/2014  05:40:00       49.563       48.058        6.369       22.998       15.201       15.455      528.925      231.064      238.846        0.290        0.050       69.037        9.242        0.018      327.850       -6.417      868.651
12/27/2014  05:41:00       77.652       57.733        5.251       22.792       11.354       13.466      519.469      128.917      181.330        0.511        0.041       96.762       11.630        0.014      327.854       -6.410      868.656
12/27/2014  05:42:00      104.424       42.888        4.415       25.006       20.302       19.782      625.319      412.153      391.335        0.710        0.071      112.889       13.594        0.015      327.881       -6.366      868.660
12/27/2014  05:43:00      119.632       50.706       14.268       27.263       23.330       21.842      743.290      544.268      477.083        0.943        0.088      129.934       16.047        0.015      327.910       -6.319      868.655
12/27/2014  05:44:00      113.126       51.696       23.577       25.085       22.589       19.723      629.260      510.245      388.991        0.878        0.076      124.378       13.103        0.011      327.956       -6.243      868.641
12/27/2014  05:45:00      103.158       49.939       20.222       18.741       19.245       14.892      351.228      370.385      221.777        0.724        0.047      114.610        6.003        0.003      327.959       -6.239      868.640
12/27/2014  05:46:00       85.363       48.293       22.044       31.153       16.828       17.750      970.500      283.181      315.060        0.584        0.078       98.076       11.483        0.014      328.016       -6.146      868.644
12/27/2014  05:47:00       63.297       37.200       23.282       24.764       20.911       18.035      613.280      437.256      325.260        0.365        0.069       73.419       12.529        0.029      328.030       -6.123      868.647
12/27/2014  05:48:00       42.273       29.445       21.124       18.642       12.737       13.450      347.527      162.232      180.906        0.190        0.035       51.517        9.325        0.033      328.050       -6.090      868.653
12/27/2014  05:49:00       33.182       26.967       24.206       23.883       14.395       15.524      570.417      207.219      240.996        0.172        0.051       42.758        7.348        0.030      328.064       -6.070      868.651
12/27/2014  05:50:00       13.685       20.807       23.359       20.410       12.812       12.259      416.588      164.147      150.287        0.095        0.037       24.904        5.933        0.057      328.039       -6.107      868.653
12/27/2014  05:51:00       -7.538        3.053       11.301       11.789       16.394       11.194      138.991      268.769      125.309        0.036        0.027        8.133       10.540        1.680      328.066       -6.062      868.668
12/27/2014  05:52:00      -25.963       -7.136       -0.727       10.497        7.840        4.715      110.196       61.460       22.231        0.046        0.010       26.926        3.639        0.018      327.923       -6.299      868.685
12/27/2014  05:53:00      -43.745       -9.857       -4.364        8.039        4.698        4.265       64.629       22.074       18.187        0.107        0.005       44.842        3.221        0.005      327.904       -6.327      868.704
12/27/2014  05:54:00      -51.877      -22.873       -9.936       11.214        7.583        6.513      125.762       57.506       42.423        0.177        0.011       56.696        4.047        0.005      327.924       -6.298      868.716
12/27/2014  05:55:00      -67.872      -34.367       -8.878       14.544       10.902        8.641      211.535      118.864       74.659        0.314        0.020       76.077        8.924        0.014      327.969       -6.223      868.725
12/27/2014  05:56:00      -56.019      -29.697       -2.720       22.729       10.609       10.307      516.615      112.552      106.243        0.238        0.037       63.404        9.382        0.022      327.887       -6.356      868.739
12/27/2014  05:57:00      -78.461      -46.972       -3.196       18.777       13.838       12.462      352.560      191.502      155.313        0.454        0.035       91.447       11.802        0.017      327.866       -6.392      868.760
12/27/2014  05:58:00      -66.910      -15.146       -1.288       27.516       17.470       14.926      757.105      305.210      222.781        0.300        0.064       68.602       12.463        0.033      327.783       -6.527      868.787
12/27/2014  05:59:00      -50.203      -40.936       10.474       38.695       24.732       20.915     1497.278      611.689      437.424        0.343        0.127       64.777       24.633        0.145      327.733       -6.608      868.812
12/27/2014  06:00:00      -17.029      -24.672        7.071       26.149       26.365       19.202      683.755      695.096      368.729        0.135        0.087       29.978        5.983        0.040      327.830       -6.449      868.832
12/27/2014  06:01:00      -13.333      -19.789        5.468       28.098       17.997       14.269      789.489      323.906      203.600        0.096        0.066       23.862       11.486        0.232      327.896       -6.341      868.829
12/27/2014  06:02:00      -44.241      -37.863        6.509       47.835       25.130       22.507     2288.151      631.525      506.559        0.343        0.171       58.231       25.075        0.185      327.841       -6.433      868.824
12/27/2014  06:03:00      -41.500      -44.914        8.419       38.518       32.962       23.332     1483.647     1086.505      544.401        0.346        0.156       61.152       24.417        0.159      327.883       -6.364      868.827
12/27/2014  06:04:00      -88.326      -72.359       -7.326       37.505       20.054       22.821     1406.618      402.156      520.810        0.771        0.116      114.181       18.971        0.028      327.790       -6.515      868.831
12/27/2014  06:05:00      -68.246      -60.887        6.460       46.880       33.211       27.081     2197.776     1102.949      733.379        0.622        0.202       91.459       23.315        0.065      327.841       -6.431      868.833
12/27/2014  06:06:00      -96.333      -89.544       -7.091       36.833       35.783       22.837     1356.640     1280.424      521.538        1.025        0.158      131.522       21.201        0.026      327.830       -6.449      868.834
12/27/2014  06:07:00     -112.125      -90.993       -4.531       40.026       32.245       24.861     1602.087     1039.714      618.061        1.207        0.163      144.402       14.233        0.010      327.776       -6.538      868.822
12/27/2014  06:08:00      -66.759      -64.333       -5.480       40.044       26.303       16.846     1603.501      691.860      283.803        0.560        0.129       92.712        9.423        0.010      327.844       -6.427      868.816
12/27/2014  06:09:00      -36.417      -33.695       10.719       53.162       23.090       19.565     2826.211      533.159      382.780        0.316        0.187       49.614       24.779        0.249      327.815       -6.474      868.830
12/27/2014  06:10:00      -39.086      -33.322       12.266       36.457       18.489       22.414     1329.084      341.858      502.398        0.248        0.109       51.362       22.631        0.194      327.771       -6.546      868.847
12/27/2014  06:11:00      -50.154      -38.405        5.387       35.004       17.927       18.504     1225.295      321.367      342.381        0.295        0.094       63.169       19.597        0.096      327.831       -6.449      868.869
12/27/2014  06:12:00      -60.964      -29.413        9.714       42.500       23.262       20.484     1806.237      541.137      419.580        0.372        0.138       67.688       23.744        0.123      327.806       -6.489      868.890
12/27/2014  06:13:00      -55.955      -32.868        6.001       30.075       18.415       15.961      904.489      339.099      254.755        0.287        0.075       64.894       12.649        0.038      327.733       -6.606      868.916
12/27/2014  06:14:00      -85.940      -46.918        3.156       38.149       28.771       18.313     1455.311      827.742      335.350        0.611        0.131       97.913       20.386        0.043      327.741       -6.595      868.932
12/27/2014  06:15:00      -82.422      -22.457        0.312       31.301       29.137       19.424      979.778      848.991      377.306        0.475        0.110       85.426       17.902        0.044      327.672       -6.707      868.941
12/27/2014  06:16:00     -101.646      -26.904       -6.890       19.310       25.100       14.558      372.875      630.003      211.925        0.616        0.061      105.146        7.428        0.005      327.671       -6.708      868.946
12/27/2014  06:17:00      -99.787      -12.601       -0.187       32.773       21.899       20.169     1074.077      479.568      406.791        0.604        0.098      100.579       16.777        0.028      327.608       -6.811      868.950
12/27/2014  06:18:00      -90.146        4.320       -0.044       36.602       23.957       21.965     1339.693      573.944      482.466        0.527        0.120       90.249       19.696        0.048      327.554       -6.898      868.952
12/27/2014  06:19:00      -79.845       -7.055       -1.332       37.279       21.461       20.646     1389.747      460.582      426.238        0.435        0.114       80.156       21.850        0.074      327.564       -6.882      868.959
12/27/2014  06:20:00      -81.396       -9.574       -2.565       40.827       24.310       18.478     1666.857      590.961      341.444        0.466        0.130       81.957       21.746        0.070      327.487       -7.006      868.972
12/27/2014  06:21:00      -77.596      -14.561       -3.704       35.680       25.116       17.715     1273.065      630.817      313.815        0.423        0.111       78.950       18.753        0.056      327.538       -6.923      868.991
12/27/2014  06:22:00      -87.597      -13.312       -5.307       29.886       20.596       15.927      893.153      424.175      253.656        0.472        0.079       88.603       14.243        0.026      327.621       -6.789      868.993
12/27/2014  06:23:00      -50.935      -10.192        0.978       25.953       16.120       16.752      673.547      259.865      280.638        0.196        0.061       51.945       16.859        0.105      327.643       -6.754      868.998
12/27/2014  06:24:00      -47.447      -32.698       -2.858       16.422       15.424       10.562      269.670      237.911      111.557        0.197        0.031       57.622        6.683        0.013      327.750       -6.581      868.994
12/27/2014  06:25:00      -48.444      -20.227       -6.070       16.593       17.165        9.012      275.312      294.654       81.215        0.172        0.033       52.497        9.115        0.030      327.753       -6.574      868.993
12/27/2014  06:26:00      -26.758      -21.209        3.732       25.091       12.701       11.550      629.554      161.304      133.407        0.105        0.046       34.144       14.586        0.182      327.832       -6.446      868.982
12/27/2014  06:27:00      -71.430      -19.121       -6.973       20.097       14.572       11.234      403.875      212.336      126.196        0.313        0.037       73.945       11.073        0.022      327.847       -6.421      868.970
12/27/2014  06:28:00      -76.204      -24.460       -7.424       13.029       16.739       11.091      169.744      280.198      123.000        0.352        0.029       80.034        7.057        0.008      327.884       -6.362      868.968
12/27/2014  06:29:00      -79.358      -28.742       -3.844       16.753       21.245       13.515      280.672      451.343      182.655        0.403        0.046       84.403       11.787        0.020      327.837       -6.439      868.980
12/27/2014  06:30:00      -79.131      -48.690       -5.220       17.536       13.511       10.445      307.526      182.559      109.102        0.463        0.030       92.910        5.107        0.003      327.747       -6.584      868.995
12/27/2014  06:31:00      -72.996      -45.486        3.519       29.507       27.137       16.713      870.635      736.395      279.308        0.465        0.094       86.008       17.041        0.039      327.741       -6.594      869.014
12/27/2014  06:32:00      -81.040      -35.014       -1.994       25.903       17.690       13.515      670.941      312.944      182.661        0.448        0.058       88.280       13.033        0.022      327.842       -6.430      869.020
12/27/2014  06:33:00      -95.150      -41.803       -8.745       14.504       12.405        7.895      210.364      153.880       62.327        0.565        0.021      103.928        7.636        0.005      327.847       -6.422      869.032
12/27/2014  06:34:00      -90.262      -36.180       -9.566       19.828       13.779        8.687      393.138      189.852       75.472        0.510        0.033       97.244        8.507        0.008      327.935       -6.277      869.037
12/27/2014  06:35:00      -64.093      -26.310        6.585       30.791       14.486       13.838      948.070      209.831      191.482        0.310        0.067       69.283       12.735        0.034      327.905       -6.329      869.042
12/27/2014  06:36:00      -71.105      -33.006       -1.370       29.220       13.577       14.862      853.828      184.325      220.883        0.370        0.063       78.392       13.045        0.028      327.988       -6.192      869.045
12/27/2014  06:37:00      -82.533      -42.363        2.750       26.532       18.689       13.829      703.949      349.272      191.234        0.493        0.062       92.770       12.006        0.017      327.980       -6.205      869.048
12/27/2014  06:38:00      -95.809      -44.862        0.793       28.433       19.473       14.667      808.463      379.205      215.127        0.630        0.070      105.792       15.442        0.021      327.977       -6.210      869.047
12/27/2014  06:39:00      -82.134      -29.003        0.635       28.964       24.883       13.762      838.904      619.140      189.403        0.462        0.082       87.104        8.644        0.010      327.944       -6.263      869.042
12/27/2014  06:40:00      -63.902      -32.583        4.254       28.334       17.629       16.432      802.822      310.774      270.024        0.327        0.069       71.730       17.774        0.061      327.998       -6.176      869.028
12/27/2014  06:41:00      -80.778      -40.193       -7.060       19.235       13.594       12.703      369.997      184.798      161.355        0.445        0.036       90.225        9.251        0.011      327.975       -6.214      869.011
12/27/2014  06:42:00      -77.502      -32.181        1.330       22.337       17.689       11.712      498.964      312.912      137.169        0.400        0.047       83.918        8.212        0.010      327.956       -6.244      868.991
12/27/2014  06:43:00      -83.381      -32.676       -2.914       14.599       12.742        8.429      213.121      162.357       71.046        0.424        0.022       89.555        5.798        0.004      327.917       -6.308      868.973
12/27/2014  06:44:00      -75.370      -31.118       -1.723       10.940       13.470        7.594      119.693      181.435       57.675        0.351        0.018       81.541        4.163        0.003      327.873       -6.380      868.956
12/27/2014  06:45:00      -79.818      -34.346       -7.122        8.389        8.896        7.543       70.372       79.145       56.901        0.390        0.010       86.894        4.669        0.003      327.883       -6.363      868.951
12/27/2014  06:46:00      -65.279      -37.747       -3.179       15.408       13.900        9.072      237.419      193.204       82.302        0.310        0.026       75.407        6.726        0.008      327.884       -6.361      868.948
12/27/2014  06:47:00      -65.292      -31.459       -2.836       14.953       12.874       10.008      223.598      165.735      100.170        0.288        0.024       72.476        8.266        0.013      327.913       -6.315      868.941
12/27/2014  06:48:00      -70.114      -25.444       -5.192        9.795       12.299        8.239       95.942      151.261       67.880        0.295        0.016       74.588        5.612        0.006      327.906       -6.326      868.924
12/27/2014  06:49:00      -43.981      -19.298       -4.035       18.622       13.463        8.883      346.796      181.253       78.915        0.146        0.030       48.029        8.463        0.031      327.942       -6.269      868.906
12/27/2014  06:50:00      -34.635        3.498       -2.928       18.219       14.619       10.458      331.938      213.703      109.366        0.094        0.033       34.811        7.947        0.052      327.917       -6.307      868.887
12/27/2014  06:51:00      -30.575        1.666       -7.115       14.857        7.400        6.464      220.726       54.767       41.782        0.065        0.016       30.620        5.565        0.033      328.038       -6.111      868.875
12/27/2014  06:52:00      -47.234       -5.814       -1.946        6.932       10.974        6.381       48.049      120.431       40.711        0.124        0.010       47.590        5.416        0.013      327.933       -6.282      868.877
12/27/2014  06:53:00      -26.827      -14.280       -5.157       13.826        8.997        5.549      191.149       80.943       30.791        0.063        0.015       30.391        2.240        0.005      327.924       -6.297      868.894
12/27/2014  06:54:00      -47.625      -23.755       -6.292       10.546        7.206        6.884      111.226       51.926       47.391        0.154        0.011       53.221        3.521        0.004      327.886       -6.358      868.906
12/27/2014  06:55:00      -36.962      -15.929       -2.601       19.026       10.879        8.495      361.993      118.361       72.172        0.109        0.028       40.248        4.600        0.013      327.866       -6.391      868.914
12/27/2014  06:56:00      -47.262      -12.445       -3.603        9.558       13.338        8.167       91.363      177.891       66.707        0.137        0.017       48.873        5.295        0.012      327.824       -6.460      868.918
12/27/2014  06:57:00      -41.766      -15.781        3.714       15.770       16.544       12.173      248.703      273.700      148.194        0.134        0.034       44.648       11.459        0.066      327.721       -6.628      868.914
12/27/2014  06:58:00      -65.153      -31.395        2.812       24.193       22.228       14.258      585.310      494.082      203.293        0.326        0.064       72.323       14.684        0.041      327.724       -6.622      868.902
12/27/2014  06:59:00      -25.854      -30.054       -0.667       29.522       20.564       13.129      871.545      422.874      172.366        0.152        0.073       39.644       11.185        0.080      327.835       -6.440      868.887
12/27/2014  07:00:00      -35.840      -27.055        7.211       35.161       27.557       20.365     1236.283      759.384      414.744        0.224        0.121       44.905       16.586        0.136      327.733       -6.607      868.881
12/27/2014  07:01:00      -69.726      -64.083       -1.223       44.198       38.854       19.463     1953.492     1509.596      378.817        0.641        0.192       94.701       11.497        0.015      327.773       -6.544      868.874
12/27/2014  07:02:00      -51.303      -42.394       -2.048       37.961       28.589       22.936     1441.051      817.305      526.037        0.361        0.139       66.553       16.594        0.062      327.735       -6.604      868.870
12/27/2014  07:03:00      -32.955      -35.077        7.676       35.635       22.355       19.194     1269.886      499.724      368.421        0.226        0.107       48.129       19.508        0.164      327.691       -6.675      868.868
12/27/2014  07:04:00      -45.945      -11.870        2.465       26.552       23.088       16.031      704.983      533.074      256.997        0.188        0.075       47.454       15.117        0.101      327.560       -6.888      868.864
12/27/2014  07:05:00      -75.475      -12.517       -1.161       31.201       18.556       15.607      973.478      344.332      243.570        0.371        0.078       76.506       17.246        0.051      327.539       -6.922      868.864
12/27/2014  07:06:00      -95.118       -0.688       -8.671       30.056       19.773       17.912      903.334      390.958      320.826        0.537        0.081       95.121       10.552        0.012      327.480       -7.018      868.855
12/27/2014  07:07:00      -59.647      -12.163       -0.833       35.706       21.871       19.044     1274.915      478.327      362.680        0.291        0.106       60.875       21.526        0.125      327.367       -7.201      868.867
12/27/2014  07:08:00      -88.672       -3.590       -6.252       27.574       26.943       17.904      760.347      725.927      320.567        0.486        0.090       88.745       15.599        0.031      327.282       -7.342      868.866
12/27/2014  07:09:00      -65.243      -20.430        3.199       40.714       26.170       19.735     1657.603      684.891      389.475        0.371        0.137       68.367       22.380        0.107      327.326       -7.269      868.866
12/27/2014  07:10:00      -53.415      -17.007       -0.340       34.479       24.255       17.678     1188.826      588.302      312.510        0.262        0.104       56.058       19.549        0.122      327.305       -7.302      868.848
12/27/2014  07:11:00      -64.496      -12.389      -10.057       32.273       22.789       14.700     1041.541      519.345      216.082        0.310        0.089       65.676       11.902        0.033      327.340       -7.245      868.832
12/27/2014  07:12:00      -72.701       -0.551       -8.062       28.172       20.613       18.664      793.673      424.886      348.357        0.346        0.078       72.703       17.505        0.058      327.396       -7.155      868.818
12/27/2014  07:13:00      -82.522        0.135      -10.102       18.808       13.971       11.016      353.754      195.186      121.360        0.379        0.034       82.522        7.663        0.009      327.460       -7.051      868.804
12/27/2014  07:14:00      -84.109       -6.864       -4.681       20.371       12.725       11.858      414.993      161.921      140.605        0.393        0.036       84.389        9.836        0.014      327.486       -7.010      868.799
12/27/2014  07:15:00      -75.808      -20.919       -3.653       19.770       16.499       12.376      390.853      272.218      153.168        0.351        0.041       78.642       11.626        0.022      327.498       -6.990      868.809
12/27/2014  07:16:00      -72.964      -25.131       -3.469       25.774       20.202       12.321      664.297      408.118      151.795        0.360        0.061       77.171       12.668        0.027      327.512       -6.965      868.825
12/27/2014  07:17:00     -105.852      -27.823       -9.780       24.294       21.085       13.334      590.220      444.593      177.795        0.664        0.061      109.448       11.969        0.012      327.487       -7.007      868.844
12/27/2014  07:18:00      -84.950      -36.733       -4.882       32.799       18.345       15.718     1075.750      336.525      247.059        0.512        0.083       92.552       16.005        0.030      327.464       -7.046      868.857
12/27/2014  07:19:00      -86.854      -21.120       -6.747       21.680       18.421       15.226      470.026      339.345      231.845        0.454        0.052       89.385       13.049        0.021      327.384       -7.174      868.870
12/27/2014  07:20:00      -78.781      -12.987       -2.979       26.162       13.721       12.689      684.448      188.275      161.018        0.371        0.052       79.844       13.259        0.028      327.407       -7.137      868.867
12/27/2014  07:21:00      -86.982        0.184       -8.077       23.183        9.345       12.175      537.431       87.330      148.240        0.420        0.039       86.983       11.463        0.017      327.393       -7.159      868.861
12/27/2014  07:22:00      -70.265      -13.905        3.025       32.749       20.092       14.524     1072.502      403.686      210.947        0.341        0.084       71.628       14.074        0.039      327.454       -7.062      868.858
12/27/2014  07:23:00      -79.734      -38.645       -3.866       24.456       22.030       13.037      598.085      485.305      169.957        0.456        0.063       88.606        5.064        0.003      327.536       -6.928      868.862
12/27/2014  07:24:00     -103.046      -47.836       -4.158       27.150       14.490       13.483      737.108      209.970      181.786        0.703        0.056      113.607       13.225        0.014      327.530       -6.937      868.869
12/27/2014  07:25:00      -90.391      -41.699       -0.083       22.588       21.530       19.262      510.201      463.556      371.008        0.563        0.067       99.545       16.663        0.028      327.518       -6.955      868.874
12/27/2014  07:26:00      -79.841      -34.285        5.136       45.807       25.693       16.456     2098.320      660.144      270.799        0.530        0.151       86.891       18.607        0.046      327.518       -6.957      868.870
12/27/2014  07:27:00     -102.030      -67.002       -8.497       27.712       15.400       16.877      767.934      237.169      284.825        0.813        0.064      122.063       12.692        0.011      327.609       -6.809      868.860
12/27/2014  07:28:00      -68.268      -49.913       -0.634       18.892       21.877       14.033      356.924      478.593      196.916        0.409        0.052       84.569        9.763        0.013      327.643       -6.753      868.850
12/27/2014  07:29:00      -70.575      -37.266       -1.084       26.303       16.228       14.212      691.854      263.342      201.977        0.376        0.058       79.810       11.714        0.022      327.685       -6.686      868.847
12/27/2014  07:30:00      -41.431      -30.920       -3.361       23.189       14.709       12.454      537.715      216.350      155.104        0.180        0.045       51.697       11.159        0.047      327.709       -6.648      868.852
12/27/2014  07:31:00      -56.858      -39.770       -3.214       26.922       21.941       13.878      724.777      481.420      192.606        0.311        0.070       69.387       10.057        0.021      327.758       -6.566      868.859
12/27/2014  07:32:00      -46.252      -41.013        3.996       45.687       25.118       18.966     2087.343      630.930      359.714        0.346        0.154       61.817       20.946        0.115      327.702       -6.658      868.869
12/27/2014  07:33:00      -71.742      -41.437        4.119       37.181       24.610       16.566     1382.427      605.669      274.442        0.457        0.113       82.848       19.297        0.054      327.611       -6.807      868.881
12/27/2014  07:34:00      -90.566      -51.049       -6.511       20.693       18.102       16.005      428.190      327.673      256.168        0.593        0.051      103.963       10.541        0.010      327.584       -6.849      868.891
12/27/2014  07:35:00      -95.492      -39.095       -8.831       15.963       15.226        9.212      254.817      231.836       84.864        0.565        0.029      103.185        6.536        0.004      327.581       -6.856      868.885
12/27/2014  07:36:00      -82.229      -33.360       -4.207       19.307       12.583       11.185      372.744      158.328      125.098        0.427        0.033       88.739        9.739        0.012      327.618       -6.794      868.865
12/27/2014  07:37:00      -81.101      -41.198       -1.778       16.707       13.175       13.146      279.129      173.591      172.813        0.445        0.031       90.965       10.901        0.014      327.670       -6.709      868.843
12/27/2014  07:38:00      -75.967      -32.787       -3.029       17.845       17.072       10.736      318.449      291.455      115.264        0.379        0.036       82.740        5.292        0.004      327.697       -6.665      868.815
12/27/2014  07:39:00      -80.358      -13.513       -1.512       23.456       18.637       14.197      550.195      347.356      201.542        0.387        0.055       81.486       14.090        0.030      327.619       -6.792      868.798
12/27/2014  07:40:00      -73.194      -20.120        0.240       26.783       21.634       17.408      717.344      468.031      303.027        0.363        0.074       75.909       15.690        0.043      327.631       -6.773      868.787
12/27/2014  07:41:00      -79.961      -34.529       -1.101       21.995       17.843       12.128      483.782      318.384      147.094        0.427        0.047       87.098       12.084        0.019      327.721       -6.627      868.781
12/27/2014  07:42:00      -79.667      -45.054       -0.687       17.494       21.487       11.763      306.057      461.671      138.379        0.464        0.045       91.524        9.036        0.010      327.711       -6.643      868.791
12/27/2014  07:43:00      -94.162      -14.423       -8.145       13.727       13.667        9.831      188.433      186.793       96.647        0.481        0.024       95.260        7.234        0.006      327.682       -6.690      868.802
12/27/2014  07:44:00      -88.209      -13.496       -2.683       28.653       13.987       15.360      821.013      195.640      235.943        0.461        0.063       89.235       15.812        0.031      327.679       -6.696      868.809
12/27/2014  07:45:00     -107.028      -17.857      -16.037       11.613       12.941       10.952      134.852      167.462      119.939        0.623        0.021      108.507        5.249        0.002      327.661       -6.725      868.826
12/27/2014  07:46:00      -52.678       -7.188        0.383       32.520       20.358       18.150     1057.570      414.460      329.409        0.231        0.090       53.166       19.076        0.129      327.680       -6.693      868.841
12/27/2014  07:47:00      -69.666      -22.774       -3.632       18.273       16.764       10.305      333.888      281.032      106.192        0.305        0.036       73.294        6.466        0.008      327.748       -6.585      868.857
12/27/2014  07:48:00      -65.866      -23.262       -3.105       19.244       17.315       12.430      370.329      299.819      154.512        0.286        0.041       69.853        9.906        0.020      327.722       -6.625      868.858
12/27/2014  07:49:00      -65.501      -30.530       -0.221       22.085       16.106       12.475      487.766      259.406      155.630        0.306        0.045       72.267        9.700        0.018      327.771       -6.546      868.864
12/27/2014  07:50:00      -74.355      -14.771       -1.499       24.940       17.913       11.945      621.997      320.887      142.691        0.342        0.054       75.808       10.970        0.021      327.749       -6.582      868.862
12/27/2014  07:51:00      -68.770      -18.883       -3.784       29.324       25.155       14.735      859.878      632.765      217.118        0.340        0.085       71.315       15.035        0.044      327.787       -6.520      868.857
12/27/2014  07:52:00      -71.985       -7.313        3.545       40.282       23.724       19.926     1622.641      562.839      397.032        0.391        0.129       72.356       21.500        0.088      327.786       -6.521      868.872
12/27/2014  07:53:00      -83.006      -19.436       -7.222       31.309       25.573       15.837      980.239      653.954      250.826        0.460        0.094       85.251       17.404        0.042      327.782       -6.527      868.883
12/27/2014  07:54:00      -97.721       -2.550      -16.881       20.597       20.538       12.276      424.222      421.804      150.699        0.542        0.050       97.754       10.754        0.012      327.781       -6.530      868.896
12/27/2014  07:55:00      -62.098       -8.834      -10.804       22.526       15.827        9.960      507.411      250.485       99.193        0.245        0.043       62.723        6.518        0.011      327.831       -6.449      868.895
12/27/2014  07:56:00      -45.237        1.075       -7.490       17.743       14.665        9.331      314.804      215.067       87.074        0.136        0.031       45.250        5.550        0.015      327.937       -6.276      868.882
12/27/2014  07:57:00      -37.781        7.788      -12.388       12.790       12.288        8.078      163.594      150.998       65.259        0.101        0.019       38.575        4.480        0.013      327.992       -6.187      868.885
12/27/2014  07:58:00      -60.895        6.336      -11.294       10.694        8.276        9.116      114.369       68.494       83.102        0.207        0.013       61.224        6.440        0.011      327.990       -6.189      868.899
12/27/2014  07:59:00      -59.613       -1.703      -10.982       14.042        8.935        7.633      197.181       79.833       58.269        0.201        0.017       59.637        5.381        0.008      328.045       -6.098      868.910
12/27/2014  08:00:00      -57.498       -4.090      -10.177       11.418        7.526        6.642      130.382       56.638       44.113        0.183        0.012       57.643        4.261        0.005      328.083       -6.037      868.931
12/27/2014  08:01:00      -53.212       -1.144      -10.087        6.939        8.899        6.426       48.149       79.187       41.296        0.155        0.008       53.225        4.384        0.007      328.082       -6.038      868.939
12/27/2014  08:02:00      -51.513       -5.920       -8.882        6.457        8.321        8.059       41.691       69.245       64.947        0.147        0.009       51.852        4.400        0.007      328.145       -5.937      868.942
12/27/2014  08:03:00      -56.835       -1.659        0.528        9.767        7.650        7.359       95.388       58.520       54.156        0.172        0.010       56.859        5.339        0.009      328.157       -5.917      868.956
12/27/2014  08:04:00      -42.120        0.543        0.612        8.925       11.579        8.292       79.656      134.071       68.763        0.103        0.014       42.123        6.491        0.024      328.247       -5.769      868.971
12/27/2014  08:05:00      -11.882       11.006       -0.516       12.027       15.696       11.333      144.646      246.352      128.446        0.039        0.026       16.197        9.596        0.351      328.443       -5.452      868.983
12/27/2014  08:06:00      -37.034        5.853       -0.692       13.973       11.887        8.756      195.236      141.308       76.664        0.091        0.021       37.494        6.626        0.031      328.362       -5.582      868.975
12/27/2014  08:07:00      -22.075        0.308       -3.791       12.839        8.703        7.791      164.844       75.744       60.701        0.040        0.015       22.077        6.721        0.093      328.435       -5.464      868.954
12/27/2014  08:08:00      -14.960       -9.359        2.341        9.637        8.598        5.656       92.878       73.926       31.985        0.026        0.010       17.646        2.838        0.026      328.447       -5.444      868.928
12/27/2014  08:09:00      -14.192       13.666       -2.752       15.897       11.672        9.892      252.699      136.239       97.859        0.044        0.024       19.702        7.707        0.153      328.512       -5.338      868.909
12/27/2014  08:10:00      -26.177       28.759       -4.493       19.405       20.175       11.118      376.549      407.049      123.601        0.122        0.045       38.888        6.408        0.027      328.460       -5.424      868.914
12/27/2014  08:11:00      -31.772       24.820       -8.619       19.367       21.180       11.873      375.075      448.588      140.964        0.133        0.048       40.317        7.445        0.034      328.460       -5.422      868.928
12/27/2014  08:12:00      -40.810       15.619       -1.862       21.532       16.120       11.619      463.646      259.865      135.007        0.139        0.043       43.697        9.224        0.045      328.434       -5.467      868.960
12/27/2014  08:13:00      -29.977       21.293        4.751       24.941       20.193       13.247      622.069      407.754      175.483        0.129        0.060       36.770        5.798        0.025      328.511       -5.339      868.984
12/27/2014  08:14:00      -42.165       12.436       -0.846       13.682       14.868       12.204      187.195      221.051      148.935        0.125        0.028       43.960        9.972        0.051      328.500       -5.359      869.006
12/27/2014  08:15:00      -25.947        2.601       -5.229       18.002       14.454        8.628      324.064      208.922       74.441        0.066        0.030       26.077        8.995        0.119      328.574       -5.238      869.029
12/27/2014  08:16:00      -29.927       15.575       -7.310       12.698       20.244       10.821      161.239      409.815      117.098        0.094        0.034       33.738        6.732        0.040      328.527       -5.316      869.042
12/27/2014  08:17:00       -6.941       17.751        6.121       36.779       26.557       19.362     1352.731      705.254      374.903        0.142        0.122       19.060       15.288        0.643      328.634       -5.140      869.063
12/27/2014  08:18:00      -17.262        1.849       -1.368       11.869       18.885        6.879      140.880      356.628       47.324        0.042        0.027       17.361        5.898        0.115      328.602       -5.193      869.086
12/27/2014  08:19:00      -24.043       23.593       -9.379       17.221       22.499       10.643      296.571      506.224      113.264        0.107        0.046       33.685       11.573        0.118      328.586       -5.218      869.109
12/27/2014  08:20:00      -48.852       -1.322       -6.213       15.120       14.859        9.558      228.625      220.778       91.346        0.148        0.027       48.870        6.485        0.018      328.532       -5.307      869.141
12/27/2014  08:21:00      -77.716      -19.573       -8.260       13.989       17.472       11.832      195.698      305.286      139.991        0.357        0.032       80.143        2.922        0.001      328.572       -5.241      869.161
12/27/2014  08:22:00      -71.994       -4.073        1.184       28.548       20.792       15.629      815.012      432.322      244.258        0.335        0.075       72.110       16.121        0.050      328.602       -5.190      869.164
12/27/2014  08:23:00      -88.734      -24.711       -7.313       16.658       15.548       10.831      277.482      241.727      117.303        0.459        0.032       92.110        7.599        0.007      328.619       -5.165      869.154
12/27/2014  08:24:00      -62.931      -33.767       -4.808       16.503       12.044       13.819      272.363      145.052      190.971        0.287        0.030       71.418       11.851        0.028      328.636       -5.135      869.135
12/27/2014  08:25:00      -55.264      -12.498       -3.042       10.656       12.032       10.000      113.561      144.768       99.992        0.179        0.018       56.659        6.909        0.015      328.699       -5.034      869.102
12/27/2014  08:26:00      -45.433      -13.371       -6.336        8.039        6.284        5.163       64.624       39.486       26.654        0.121        0.007       47.359        3.604        0.006      328.773       -4.911      869.063
12/27/2014  08:27:00      -26.389       -0.867        2.570        8.072        9.343        4.941       65.165       87.294       24.415        0.044        0.009       26.403        4.004        0.023      328.822       -4.833      869.015
12/27/2014  08:28:00       -8.201        9.709       -2.730       10.768        5.778        5.511      115.942       33.387       30.374        0.017        0.009       12.709        4.003        0.099      328.984       -4.569      868.966
12/27/2014  08:29:00       30.836       26.714       13.422       23.303       13.722       17.849      543.015      188.289      318.577        0.145        0.052       40.798       12.291        0.091      329.119       -4.348      868.929
12/27/2014  08:30:00       64.623       49.353       10.672       29.932       16.233       20.608      895.930      263.518      424.680        0.415        0.079       81.313       14.114        0.030      328.953       -4.619      868.905
12/27/2014  08:31:00        0.773       11.235       18.316       18.466       24.152       14.291      340.997      583.306      204.220        0.080        0.056       11.261       12.118        1.158      329.239       -4.152      868.897
12/27/2014  08:32:00       -6.073        5.201        3.553       15.404       13.057       15.624      237.292      170.498      244.103        0.036        0.033        7.996        9.012        1.270      329.338       -3.990      868.911
12/27/2014  08:33:00       30.156       21.049       33.064       26.473       26.985       14.066      700.837      728.168      197.852        0.204        0.081       36.776       11.492        0.098      329.339       -3.988      868.946
12/27/2014  08:34:00        5.688       36.610       35.682       23.830       25.555       21.908      567.883      653.078      479.942        0.217        0.085       37.050       14.613        0.156      329.325       -4.012      868.985
12/27/2014  08:35:00       42.111       23.867       30.307       26.816       35.525       21.605      719.074     1262.042      466.782        0.285        0.122       48.404       17.994        0.138      329.146       -4.304      869.025
12/27/2014  08:36:00       27.528       15.487       20.825       33.435       30.553       25.284     1117.911      933.460      639.265        0.206        0.135       31.585       21.600        0.468      329.322       -4.015      869.049
12/27/2014  08:37:00       22.548       22.450       19.923       25.305       19.915       19.731      640.366      396.614      389.331        0.142        0.071       31.818       17.103        0.289      329.344       -3.979      869.058
12/27/2014  08:38:00       30.553       16.879       12.310       16.988       17.477       18.960      288.608      305.447      359.485        0.116        0.048       34.905        4.020        0.013      329.153       -4.294      869.044
12/27/2014  08:39:00       28.891       29.429        9.508       23.649       23.760       20.066      559.289      564.555      402.630        0.166        0.076       41.240       21.146        0.263      329.185       -4.241      869.009
12/27/2014  08:40:00        3.853        0.786       10.667        7.898        7.080       11.717       62.384       50.133      137.294        0.019        0.012        3.932        5.634        2.053      329.436       -3.830      868.979
12/27/2014  08:41:00      -19.976       -6.316        4.526       21.165        8.984       10.989      447.948       80.709      120.760        0.055        0.032       20.951       12.089        0.333      329.331       -4.002      868.979
12/27/2014  08:42:00      -38.717      -13.761       -1.817       15.879       19.104       10.049      252.143      364.950      100.980        0.120        0.036       41.089        8.099        0.039      329.072       -4.424      868.985
12/27/2014  08:43:00      -23.145        3.696       -0.103        9.055        9.193        8.879       82.002       84.506       78.835        0.040        0.012       23.438        5.915        0.064      329.252       -4.131      869.006
12/27/2014  08:44:00       -0.023        2.035       16.361       14.208        9.610        8.884      201.871       92.352       78.917        0.032        0.019        2.035        4.011        3.884      329.942       -3.001      869.026
12/27/2014  08:45:00       -4.607       23.099       10.865       28.477       14.053       17.501      810.926      197.494      306.274        0.099        0.066       23.554       14.563        0.382      329.572       -3.607      869.050
12/27/2014  08:46:00      -21.279        6.255        7.100       14.293       13.215       15.535      204.285      174.642      241.340        0.058        0.031       22.179        9.675        0.190      329.547       -3.649      869.064
12/27/2014  08:47:00      -18.474       -0.420       12.977       21.537       16.876       15.114      463.833      284.789      228.426        0.074        0.049       18.479       14.121        0.584      329.681       -3.430      869.101
12/27/2014  08:48:00      -61.691      -46.699        2.481       36.188       40.945       23.013     1309.569     1676.527      529.583        0.475        0.176       77.372       20.221        0.068      329.234       -4.161      869.143
12/27/2014  08:49:00      -62.009      -40.145      -13.970       23.530       33.025       20.456      553.666     1090.633      418.440        0.386        0.103       73.870       22.572        0.093      329.122       -4.343      869.170
12/27/2014  08:50:00      -52.859       -3.813        0.184       20.784       24.577       17.589      431.987      604.012      309.376        0.208        0.067       52.996        9.572        0.033      329.154       -4.291      869.168
12/27/2014  08:51:00       -1.968      -84.161        7.505       30.231       33.656       24.036      913.933     1132.744      577.749        0.488        0.131       84.184       20.772        0.061      329.322       -4.018      869.131
12/27/2014  08:52:00      -59.750      -45.045        0.698       58.466       33.007       19.817     3418.243     1089.462      392.720        0.525        0.245       74.827       23.756        0.101      329.256       -4.124      869.096
12/27/2014  08:53:00      -92.582      -21.265       -3.300       22.396       21.357       16.717      501.600      456.134      279.442        0.514        0.062       94.993       10.993        0.013      329.140       -4.312      869.067
12/27/2014  08:54:00     -126.951      -15.222       -5.229       31.191       34.026       23.819      972.879     1157.780      567.344        0.954        0.135      127.860       20.889        0.027      329.138       -4.318      869.046
12/27/2014  08:55:00      -72.555      -13.883      -13.189       20.660       27.582       16.024      426.833      760.740      256.784        0.354        0.072       73.871       14.840        0.040      329.106       -4.368      869.039
12/27/2014  08:56:00      -96.425      -23.192       -4.648       31.753       24.290       20.204     1008.273      590.005      408.182        0.593        0.100       99.175       19.438        0.038      329.086       -4.401      869.009
12/27/2014  08:57:00      -67.862      -29.604      -11.160       17.920       18.547       11.231      321.113      343.987      126.145        0.320        0.040       74.039        9.614        0.017      329.096       -4.385      868.982
12/27/2014  08:58:00      -52.505      -41.109       -9.321       11.928       12.562        9.708      142.288      157.803       94.245        0.246        0.020       66.684        5.991        0.008      329.151       -4.295      868.957
12/27/2014  08:59:00      -49.536      -36.227       -7.530       14.611       14.810       11.879      213.480      219.336      141.101        0.220        0.029       61.370        9.810        0.026      329.183       -4.243      868.941
12/27/2014  09:00:00      -42.789       -9.340      -13.974        9.754        6.928        4.620       95.138       47.996       21.340        0.114        0.008       43.796        2.639        0.004      329.196       -4.223      868.946
12/27/2014  09:01:00      -29.607       -6.450       -2.517       11.753        8.480        7.449      138.144       71.910       55.492        0.059        0.013       30.301        7.279        0.058      329.305       -4.043      868.950
12/27/2014  09:02:00      -10.597       18.991       51.093       13.447       27.990       21.212      180.815      783.416      449.948        0.225        0.071       21.747       18.720        0.741      329.804       -3.227      868.956
12/27/2014  09:03:00        1.514       41.953       58.814       22.092       30.474       21.462      488.051      928.675      460.607        0.355        0.094       41.980       16.294        0.151      329.595       -3.569      868.953
12/27/2014  09:04:00       86.320       42.215       22.063       45.572       41.521       33.901     2076.845     1723.956     1149.250        0.733        0.248       96.090       18.271        0.036      329.346       -3.978      868.942
12/27/2014  09:05:00       58.392       39.311       14.696       40.142       34.720       24.045     1611.349     1205.469      578.175        0.428        0.170       70.392       24.092        0.117      329.398       -3.891      868.934
12/27/2014  09:06:00       93.479       57.231        8.080       32.298       23.767       23.969     1043.171      564.864      574.528        0.713        0.109      109.608       13.190        0.014      329.295       -4.061      868.913
12/27/2014  09:07:00       86.068       61.614       32.715       51.463       36.624       40.396     2648.420     1341.315     1631.875        0.895        0.281      105.849       29.486        0.078      329.491       -3.740      868.879
12/27/2014  09:08:00       63.421       85.658       74.399       45.959       42.255       36.684     2112.214     1785.461     1345.732        1.107        0.262      106.581       25.346        0.057      329.501       -3.725      868.852
12/27/2014  09:09:00      106.996      104.260       72.880       49.850       47.952       42.174     2485.028     2299.351     1778.611        1.710        0.328      149.393       35.254        0.056      329.268       -4.104      868.831
12/27/2014  09:10:00       25.227       45.720       59.238       40.737       38.328       43.539     1659.505     1469.035     1895.678        0.563        0.251       52.218       32.726        0.393      329.513       -3.705      868.822
12/27/2014  09:11:00       62.300       81.229       58.028       33.850       27.268       29.967     1145.848      743.549      898.025        0.832        0.139      102.369       13.294        0.017      329.334       -3.997      868.825
12/27/2014  09:12:00        7.245       19.442       54.281       23.946       32.915       18.827      573.434     1083.428      354.438        0.269        0.101       20.748       15.947        0.591      329.800       -3.235      868.848
12/27/2014  09:13:00       32.059       -1.968       26.707       29.275       32.179       21.437      857.009     1035.458      459.532        0.205        0.118       32.119       21.390        0.443      329.680       -3.430      868.878
12/27/2014  09:14:00       58.000       48.760       13.446       37.413       23.421       28.059     1399.761      548.553      787.331        0.433        0.137       75.773        9.977        0.017      329.583       -3.589      868.919
12/27/2014  09:15:00       62.779       48.785       29.446       30.993       27.520       29.040      960.567      757.351      843.308        0.487        0.128       79.505       10.998        0.019      329.716       -3.372      868.974
12/27/2014  09:16:00       44.529       43.636       20.776       36.944       33.233       36.439     1364.872     1104.465     1327.803        0.406        0.190       62.345       25.025        0.161      329.776       -3.274      869.016
12/27/2014  09:17:00       34.952       56.446       55.268       53.383       44.106       34.411     2849.724     1945.336     1184.106        0.672        0.299       66.391       29.131        0.193      329.706       -3.389      869.063
12/27/2014  09:18:00       32.810       29.501       42.916       32.184       35.497       26.775     1035.828     1260.029      716.881        0.340        0.151       44.122       24.428        0.307      329.658       -3.467      869.092
12/27/2014  09:19:00       12.846      -27.576       21.200       19.803       59.573       40.776      392.153     3548.946     1662.648        0.349        0.280       30.421       45.864        2.273      329.604       -3.557      869.108
12/27/2014  09:20:00       26.935       39.448       15.938       24.956       26.095       23.678      622.818      680.972      560.627        0.220        0.093       47.766       16.884        0.125      329.735       -3.341      869.114
12/27/2014  09:21:00       43.824       44.679        6.878       35.282       29.080       23.331     1244.819      845.640      544.347        0.330        0.132       62.585       13.741        0.048      329.801       -3.234      869.118
12/27/2014  09:22:00       34.117       40.044       36.274       31.726       30.995       22.276     1006.552      960.674      496.199        0.327        0.123       52.607       12.824        0.059      329.988       -2.926      869.114
12/27/2014  09:23:00       48.285       54.915       43.660       45.617       33.598       23.167     2080.900     1128.793      536.722        0.550        0.187       73.124       10.044        0.019      329.756       -3.306      869.113
12/27/2014  09:24:00       92.798       68.069        5.778       15.398       19.753       18.453      237.104      390.169      340.509        0.712        0.048      115.087        9.186        0.006      329.560       -3.627      869.105
12/27/2014  09:25:00       83.728       73.151       44.815       46.187       38.563       37.862     2133.216     1487.079     1433.532        0.971        0.253      111.182       28.509        0.066      329.925       -3.029      869.081
12/27/2014  09:26:00       84.142       77.863       46.930       43.023       37.323       33.019     1850.956     1393.036     1090.225        0.984        0.217      114.640       23.911        0.044      329.888       -3.090      869.058
12/27/2014  09:27:00       56.705       92.694       83.034       68.539       53.068       38.375     4697.544     2816.259     1472.629        1.384        0.449      108.663       37.120        0.117      329.932       -3.019      869.015
12/27/2014  09:28:00      120.335       99.288       -4.902       46.769       31.570       38.009     2187.310      996.663     1444.653        1.449        0.231      156.008       20.586        0.017      329.650       -3.481      869.010
12/27/2014  09:29:00       63.866       80.854       46.661       56.121       39.238       46.637     3149.517     1539.621     2175.053        0.983        0.343      103.035       34.844        0.114      329.977       -2.945      869.033
12/27/2014  09:30:00       31.607       70.303       80.593       51.764       58.458       37.977     2679.466     3417.349     1442.287        0.999        0.377       77.081       30.376        0.155      330.163       -2.640      869.050
12/27/2014  09:31:00       46.949       64.424       57.874       43.758       40.427       34.926     1914.792     1634.340     1219.831        0.724        0.238       79.716       18.965        0.057      329.962       -2.971      869.074
12/27/2014  09:32:00       42.493       55.444       38.938       37.819       30.953       24.414     1430.269      958.095      596.058        0.469        0.149       69.855       15.684        0.050      330.100       -2.742      869.062
12/27/2014  09:33:00       60.032       57.510       34.546       50.642       39.639       25.850     2564.594     1571.222      668.225        0.645        0.240       83.134       24.342        0.086      330.036       -2.849      869.050
12/27/2014  09:34:00       49.198       70.594       26.345       37.988       32.534       42.934     1443.106     1058.447     1843.332        0.622        0.217       86.046       29.797        0.120      329.949       -2.990      869.025
12/27/2014  09:35:00       98.197       52.294        9.378       44.942       30.009       25.081     2019.815      900.522      629.036        0.801        0.177      111.253       15.111        0.018      329.806       -3.226      869.011
12/27/2014  09:36:00      102.205       61.662        5.802       47.540       48.612       28.294     2260.040     2363.121      800.550        0.985        0.271      119.366       22.588        0.036      329.904       -3.064      869.023
12/27/2014  09:37:00       60.616       54.630        4.246       41.471       23.844       28.365     1719.833      568.516      804.550        0.488        0.155       81.600       24.085        0.087      330.094       -2.754      869.055
12/27/2014  09:38:00       49.283       65.734       48.786       40.307       42.633       34.695     1624.630     1817.545     1203.753        0.689        0.232       82.157       17.893        0.047      330.257       -2.485      869.087
12/27/2014  09:39:00       78.177       67.797        9.072       37.421       32.294       35.221     1400.328     1042.891     1240.543        0.724        0.184      103.480       24.906        0.058      329.865       -3.129      869.115
12/27/2014  09:40:00      107.301       72.777       17.726       38.929       32.125       34.146     1515.431     1031.997     1165.978        1.042        0.186      129.653       23.679        0.033      329.924       -3.031      869.120
12/27/2014  09:41:00      125.306       61.010        9.138       34.468       33.654       25.393     1188.056     1132.606      644.801        1.124        0.148      139.369       17.268        0.015      329.697       -3.403      869.130
12/27/2014  09:42:00       59.637       29.312        2.936       38.451       35.699       29.301     1478.457     1274.444      858.541        0.402        0.181       66.451       18.637        0.079      330.040       -2.841      869.131
12/27/2014  09:43:00       46.107       66.217        7.741       37.725       32.372       31.628     1423.157     1047.934     1000.358        0.502        0.174       80.687       22.468        0.078      330.148       -2.665      869.109
12/27/2014  09:44:00      110.904       96.609       41.511       38.612       27.640       37.741     1490.907      763.970     1424.350        1.352        0.184      147.081       22.038        0.022      329.752       -3.313      869.097
12/27/2014  09:45:00      101.527       76.044       44.211       48.903       39.592       41.653     2391.514     1567.519     1734.935        1.187        0.285      126.848       29.121        0.053      329.903       -3.066      869.087
12/27/2014  09:46:00       88.543       58.790        8.151       43.569       31.521       35.809     1898.269      993.604     1282.307        0.777        0.209      106.283       11.311        0.011      329.993       -2.919      869.073
12/27/2014  09:47:00       86.839       74.502       32.482       60.803       36.081       44.987     3696.993     1301.858     2023.859        1.058        0.351      114.418       25.511        0.050      330.131       -2.693      869.043
12/27/2014  09:48:00      111.745       63.115       21.205       58.126       44.605       49.972     3378.650     1989.627     2497.162        1.239        0.393      128.337       41.714        0.106      330.008       -2.894      869.044
12/27/2014  09:49:00       97.800       84.644       32.987       36.586       29.978       33.323     1338.560      898.701     1110.390        1.058        0.167      129.343       11.558        0.008      330.077       -2.782      869.047
12/27/2014  09:50:00       22.385       29.585       27.967       39.890       24.641       27.648     1591.220      607.182      764.431        0.256        0.148       37.099       20.934        0.318      330.379       -2.286      869.071
12/27/2014  09:51:00       88.592       51.140       38.020       67.133       64.766       34.118     4506.784     4194.643     1164.036        1.089        0.493      102.293       23.690        0.054      330.037       -2.847      869.096
12/27/2014  09:52:00       22.127       92.841       96.938       40.966       43.913       34.438     1678.203     1928.388     1185.992        1.165        0.240       95.442       30.085        0.099      330.154       -2.654      869.072
12/27/2014  09:53:00       47.587      110.576      125.357       62.611       63.396       46.449     3920.192     4019.004     2157.479        2.015        0.505      120.381       47.952        0.159      329.863       -3.132      869.061
12/27/2014  09:54:00       -7.889       80.737      100.953       24.208       47.224       29.160      586.011     2230.067      850.299        1.022        0.183       81.121       28.213        0.121      330.103       -2.738      869.043
12/27/2014  09:55:00       65.930       77.908       55.091       79.026       39.521       58.636     6245.040     1561.884     3438.162        1.235        0.562      102.061       55.709        0.298      330.036       -2.848      869.035
12/27/2014  09:56:00      141.673      102.482       15.543       45.146       42.982       35.184     2038.167     1847.468     1237.886        1.797        0.256      174.854       19.233        0.012      329.818       -3.206      869.031
12/27/2014  09:57:00       19.511       74.214       74.608       49.755       34.875       33.854     2475.576     1216.287     1146.097        0.815        0.242       76.736       34.007        0.196      330.387       -2.273      869.031
12/27/2014  09:58:00      116.182       88.093        2.242       28.980       36.944       30.271      839.836     1364.847      916.320        1.219        0.156      145.803       17.597        0.015      329.904       -3.064      869.037
12/27/2014  09:59:00      103.140       81.090       27.790       53.462       34.069       37.913     2858.202     1160.668     1437.432        1.172        0.273      131.200       19.549        0.022      330.000       -2.907      869.051
12/27/2014  10:00:00      115.294       89.436       33.018       43.751       34.140       42.413     1914.150     1165.519     1798.865        1.363        0.244      145.916       33.376        0.052      330.054       -2.820      869.072
12/27/2014  10:01:00      130.587       98.547       -0.060       36.394       26.843       26.923     1324.542      720.542      724.822        1.477        0.138      163.598       18.986        0.013      329.804       -3.230      869.081
12/27/2014  10:02:00      101.734       69.012       -0.708       62.900       38.624       36.521     3956.410     1491.791     1333.802        1.095        0.339      122.932       20.852        0.029      330.067       -2.797      869.094
12/27/2014  10:03:00      103.000       44.176       11.778       56.386       42.463       34.750     3179.333     1803.110     1207.557        0.944        0.310      112.073       22.398        0.040      330.233       -2.526      869.096
12/27/2014  10:04:00      138.719       82.663       12.913       49.676       38.381       32.379     2467.699     1473.085     1048.406        1.561        0.249      161.481       18.888        0.014      330.015       -2.883      869.106
12/27/2014  10:05:00      125.462       64.678       25.537       60.759       42.609       44.016     3691.665     1815.568     1937.382        1.401        0.372      141.152       32.033        0.052      330.128       -2.697      869.118
12/27/2014  10:06:00       79.653       55.831       58.556       49.228       46.843       33.711     2423.433     2194.298     1136.449        0.932        0.288       97.271       25.332        0.068      330.219       -2.547      869.122
12/27/2014  10:07:00       98.081       79.135        4.763       51.125       43.194       33.118     2613.768     1865.735     1096.777        1.074        0.279      126.025       24.572        0.038      330.209       -2.565      869.128
12/27/2014  10:08:00       66.351       66.319       36.730       51.394       45.230       47.090     2641.307     2045.754     2217.439        0.853        0.345       93.811       35.574        0.144      330.373       -2.296      869.113
12/27/2014  10:09:00       88.715       93.584       74.792       73.213       55.083       50.619     5360.094     3034.161     2562.240        1.659        0.548      128.951       49.778        0.149      330.430       -2.202      869.113
12/27/2014  10:10:00       92.174       59.699       61.067       71.786       53.901       47.908     5153.180     2905.272     2295.181        1.307        0.518      109.818       40.898        0.139      330.337       -2.356      869.090
12/27/2014  10:11:00      129.668       96.740       44.377       42.632       27.415       48.064     1817.528      751.563     2310.176        1.651        0.244      161.779       31.906        0.039      330.005       -2.898      869.094
12/27/2014  10:12:00       96.351       90.892       22.214       31.716       21.871       37.792     1005.883      478.346     1428.237        1.047        0.146      132.457        6.638        0.003      330.074       -2.786      869.100
12/27/2014  10:13:00       99.962       54.412       12.491       32.560       22.837       31.055     1060.181      521.551      964.415        0.783        0.127      113.811       13.548        0.014      330.040       -2.842      869.109
12/27/2014  10:14:00       93.416       65.358        7.044       33.861       28.879       28.415     1146.565      834.003      807.430        0.792        0.139      114.010       13.106        0.013      330.061       -2.807      869.113
12/27/2014  10:15:00       66.499       71.907        8.240       50.927       40.699       41.756     2593.582     1656.449     1743.601        0.783        0.300       97.943       29.273        0.089      330.387       -2.272      869.109
12/27/2014  10:16:00       98.203       79.496       13.422       43.412       31.145       33.710     1884.614      970.004     1136.371        1.007        0.200      126.346       18.743        0.022      330.233       -2.525      869.095
12/27/2014  10:17:00       69.142       41.368       27.408       36.375       28.723       29.806     1323.126      825.007      888.422        0.514        0.152       80.572       22.405        0.077      330.215       -2.555      869.095
12/27/2014  10:18:00       92.703       79.649        5.149       29.239       26.099       25.710      854.940      681.165      661.008        0.858        0.110      122.220       13.294        0.012      330.171       -2.627      869.080
12/27/2014  10:19:00       30.229       46.594        2.232       24.300       26.612       25.999      590.496      708.212      675.963        0.253        0.099       55.541       11.894        0.046      330.313       -2.393      869.070
12/27/2014  10:20:00       80.907       77.130        5.831       52.650       39.495       41.841     2772.034     1559.836     1750.663        0.930        0.304      111.781       30.539        0.075      330.414       -2.230      869.060
12/27/2014  10:21:00       94.090       62.657        0.204       30.590       36.873       25.096      935.755     1359.582      629.786        0.785        0.146      113.044       16.785        0.022      330.253       -2.492      869.064
12/27/2014  10:22:00        7.694       51.140       -1.981       24.548       26.318       27.037      602.623      692.627      731.006        0.235        0.101       51.715       21.498        0.173      330.408       -2.239      869.054
12/27/2014  10:23:00       -4.806      -13.039       21.054       21.911       22.800       12.291      480.096      519.825      151.069        0.089        0.058       13.897        6.535        0.221      330.930       -1.382      869.058
12/27/2014  10:24:00       29.425       16.744       17.026       44.627       37.421       22.482     1991.564     1400.311      505.421        0.267        0.195       33.856       16.231        0.230      330.675       -1.800      869.056
12/27/2014  10:25:00       24.178       31.614       22.630       36.329       29.783       26.422     1319.815      887.047      698.124        0.250        0.145       39.800       22.780        0.328      330.909       -1.416      869.052
12/27/2014  10:26:00        9.153       24.502       25.911       21.449       23.960       19.964      460.052      574.106      398.571        0.139        0.072       26.156       17.760        0.461      331.092       -1.116      869.038
12/27/2014  10:27:00       21.768      -33.454       -1.245       30.348       43.175       25.437      921.020     1864.056      647.066        0.251        0.172       39.913       20.620        0.267      330.808       -1.582      869.022
12/27/2014  10:28:00       50.139      -27.031      -13.018       51.461       34.180       27.306     2648.265     1168.292      745.621        0.399        0.228       56.961       16.251        0.081      330.588       -1.944      869.003
12/27/2014  10:29:00        4.183       30.900       49.292       31.661       30.263       24.051     1002.436      915.823      578.445        0.295        0.125       31.181       19.111        0.376      331.105       -1.095      869.020
12/27/2014  10:30:00       43.660       65.705       59.185       41.133       39.789       34.052     1691.952     1583.154     1159.506        0.708        0.222       78.888       23.510        0.089      330.757       -1.664      869.049
12/27/2014  10:31:00       25.617       40.578       24.620       41.140       42.523       26.608     1692.527     1808.198      708.007        0.356        0.210       47.988       25.643        0.286      330.897       -1.437      869.082
12/27/2014  10:32:00      134.318       69.816       -2.030       48.708       30.112       24.033     2372.480      906.762      577.592        1.339        0.193      151.379       10.869        0.005      330.372       -2.297      869.100
12/27/2014  10:33:00      106.599       57.176      -11.041       48.772       38.538       24.086     2378.715     1485.200      580.132        0.960        0.222      120.965       16.334        0.018      330.404       -2.245      869.101
12/27/2014  10:34:00       87.380       52.019       -4.289       26.836       26.992       26.021      720.146      728.564      677.094        0.624        0.106      101.692       12.883        0.016      330.578       -1.960      869.096
12/27/2014  10:35:00       41.547       55.938        6.319       28.741       30.572       36.778      826.028      934.673     1352.595        0.400        0.156       69.679       17.289        0.062      330.792       -1.609      869.085
12/27/2014  10:36:00       31.679       34.337       -8.451       30.606       32.888       29.014      936.713     1081.651      841.836        0.256        0.143       46.718       17.224        0.136      330.694       -1.769      869.094
12/27/2014  10:37:00       15.235        0.476        6.156       23.160       23.008       18.537      536.370      529.373      343.623        0.084        0.070       15.242       15.375        1.018      330.852       -1.511      869.091
12/27/2014  10:38:00       17.206       19.472       28.372       28.142       20.374       17.371      791.947      415.107      301.769        0.149        0.075       25.984        8.061        0.096      331.077       -1.140      869.090
12/27/2014  10:39:00        6.804       48.991        6.369       26.858       30.172       22.851      721.333      910.362      522.170        0.232        0.108       49.461       20.017        0.164      331.024       -1.229      869.081
12/27/2014  10:40:00      -39.865      113.099       -8.334       42.745       47.004       31.885     1827.106     2209.367     1016.641        0.975        0.253      119.919       24.382        0.041      330.770       -1.644      869.092
12/27/2014  10:41:00      -55.636       59.901      -10.142       36.650       38.577       23.559     1343.186     1488.200      555.022        0.509        0.169       81.752       16.925        0.043      330.770       -1.645      869.087
12/27/2014  10:42:00      -62.768      -10.025       -1.989       38.695       30.690       24.660     1497.288      941.860      608.095        0.355        0.152       63.564       23.831        0.141      330.513       -2.068      869.075
12/27/2014  10:43:00       16.892      -61.196       -1.516       51.251       52.737       18.864     2626.657     2781.213      355.852        0.490        0.288       63.484       12.543        0.039      330.654       -1.835      869.055
12/27/2014  10:44:00       41.700        7.269        3.351       23.985       62.155       37.058      575.299     3863.288     1373.270        0.381        0.291       42.329       22.547        0.284      330.848       -1.517      869.033
12/27/2014  10:45:00       37.860       13.404       19.387       36.936       25.473       21.524     1364.269      648.865      463.279        0.223        0.124       40.163        5.960        0.022      331.168       -0.990      869.030
12/27/2014  10:46:00      -89.774      -41.716       -1.570       63.235       36.176       30.016     3998.694     1308.673      900.966        0.800        0.310       98.993       24.016        0.059      330.789       -1.613      869.035
12/27/2014  10:47:00      -84.885      -34.743      -16.043       42.492       21.394       16.243     1805.561      457.701      263.821        0.560        0.126       91.720       18.008        0.039      330.586       -1.946      869.055
12/27/2014  10:48:00      -99.643      -88.585        2.221       56.935       47.196       35.480     3241.586     2227.432     1258.844        1.225        0.336      133.327       33.635        0.064      330.744       -1.687      869.049
12/27/2014  10:49:00      -81.034      -98.523        1.673       34.211       26.702       24.465     1170.404      713.013      598.541        0.938        0.124      127.567       16.795        0.017      330.639       -1.859      869.057
12/27/2014  10:50:00      -20.649     -120.154       -2.208       21.964       28.137       19.112      482.429      791.710      365.283        0.825        0.082      121.915       14.306        0.014      330.647       -1.846      869.033
12/27/2014  10:51:00      -27.969      -68.882        5.356       50.677       36.735       30.953     2568.196     1349.474      958.065        0.521        0.244       74.343       28.882        0.151      330.816       -1.568      869.021
12/27/2014  10:52:00      -26.261      -73.991        0.489       16.671       24.133       13.816      277.927      582.385      190.869        0.361        0.053       78.513        5.870        0.006      330.641       -1.856      869.002
12/27/2014  10:53:00      -37.722      -37.554        5.658       22.419       37.315       22.051      502.625     1392.386      486.253        0.262        0.119       53.228       26.716        0.252      330.998       -1.271      868.984
12/27/2014  10:54:00      -23.865       14.774       35.848       22.013       19.205       23.023      484.593      368.850      530.058        0.173        0.069       28.068       17.766        0.401      331.486       -0.469      868.968
12/27/2014  10:55:00      -51.346       10.997       -2.872       31.255       17.710       21.622      976.881      313.630      467.518        0.226        0.088       52.510       20.399        0.151      331.056       -1.176      868.958
12/27/2014  10:56:00      -12.925      -46.701        5.609       32.804       36.169       22.904     1076.109     1308.207      524.572        0.264        0.145       48.456       11.221        0.054      331.074       -1.145      868.940
12/27/2014  10:57:00      -35.337       -6.526       -9.950       34.583       53.850       26.567     1196.000     2899.834      705.792        0.310        0.240       35.935       24.131        0.451      331.161       -1.002      868.916
12/27/2014  10:58:00      -49.182       55.500       -7.913       35.731       28.428       29.830     1276.670      808.125      889.814        0.427        0.149       74.156       14.191        0.037      331.206       -0.927      868.878
12/27/2014  10:59:00       -8.012      -24.974        9.325       46.317       42.613       29.059     2145.298     1815.892      844.455        0.279        0.240       26.228       29.295        1.248      331.345       -0.699      868.846
12/27/2014  11:00:00       -9.927      -38.514        9.824       42.458       31.346       24.486     1802.678      982.581      599.559        0.253        0.169       39.773       24.522        0.380      331.269       -0.825      868.817
12/27/2014  11:01:00      -28.057      -31.008        0.366       32.070       29.014       17.944     1028.493      841.820      322.002        0.197        0.110       41.817       12.352        0.087      331.221       -0.904      868.785
12/27/2014  11:02:00        6.894      -25.586        5.408       55.257       31.680       26.024     3053.321     1003.608      677.255        0.273        0.237       26.498       27.223        1.055      331.052       -1.181      868.763
12/27/2014  11:03:00       29.522       23.894       44.393       41.089       32.547       19.906     1688.342     1059.279      396.250        0.328        0.157       37.980       11.833        0.097      331.842        0.118      868.751
12/27/2014  11:04:00        3.182       41.350       11.029       30.871       43.679       26.534      953.022     1907.844      704.043        0.270        0.178       41.472       19.165        0.214      331.626       -0.238      868.736
12/27/2014  11:05:00        2.796       79.056       -6.539       20.647       49.175       28.663      426.296     2418.137      821.566        0.498        0.183       79.105        7.398        0.009      331.317       -0.748      868.737
12/27/2014  11:06:00       17.681      -41.285        3.564       23.584       28.019       27.708      556.203      785.057      767.750        0.207        0.105       44.912       18.373        0.167      331.137       -1.042      868.726
12/27/2014  11:07:00       10.084       16.926       30.046       37.921       29.112       28.146     1437.972      847.504      792.183        0.218        0.154       19.702       23.859        1.466      331.584       -0.307      868.716
12/27/2014  11:08:00        1.951       48.383        2.040       31.502       29.758       26.564      992.347      885.549      705.621        0.247        0.129       48.422       20.854        0.185      331.678       -0.151      868.700
12/27/2014  11:09:00      -35.783       77.723        1.020       27.896       37.361       24.630      778.175     1395.879      606.613        0.505        0.139       85.564       23.533        0.076      331.560       -0.346      868.695
12/27/2014  11:10:00      -32.558       24.627        1.524       37.284       35.782       28.147     1390.067     1280.384      792.240        0.257        0.173       40.823       18.441        0.204      331.433       -0.554      868.688
12/27/2014  11:11:00      -57.803       44.369       -6.724       21.489       29.151       16.175      461.778      849.796      261.628        0.346        0.079       72.868       12.038        0.027      331.240       -0.872      868.692
12/27/2014  11:12:00      -29.466        1.520        2.375       27.120        8.842       21.614      735.500       78.186      467.172        0.108        0.064       29.505       22.140        0.563      331.521       -0.410      868.701
12/27/2014  11:13:00        0.521       -5.550       14.649       27.718       28.630       16.894      768.309      819.681      285.413        0.106        0.094        5.575       10.244        3.377      331.870        0.165      868.691
12/27/2014  11:14:00      -41.721        1.719       -8.432       37.093       31.802       20.222     1375.863     1011.381      408.948        0.230        0.140       41.756       14.381        0.119      331.790        0.032      868.692
12/27/2014  11:15:00     -104.210        9.300       -6.548       34.528       27.852       23.246     1192.208      775.723      540.372        0.675        0.125      104.624       18.040        0.030      331.230       -0.889      868.674
12/27/2014  11:16:00     -101.241       -1.557       -5.667       41.929       31.745       26.726     1758.062     1007.755      714.289        0.688        0.174      101.253       26.993        0.071      331.309       -0.760      868.658
12/27/2014  11:17:00     -113.426      -26.246       -6.870       36.062       38.334       18.395     1300.442     1469.482      338.393        0.835        0.155      116.423       20.268        0.030      331.250       -0.856      868.628
12/27/2014  11:18:00      -89.424      -93.106      -14.954       51.086       37.637       18.754     2609.826     1416.546      351.702        1.063        0.219      129.095       18.141        0.020      331.159       -1.006      868.620
12/27/2014  11:19:00      -29.780      -46.065      -16.457       21.326       16.740       19.086      454.787      280.243      364.261        0.219        0.055       54.853       13.319        0.059      331.214       -0.916      868.601
12/27/2014  11:20:00        5.492      -16.048        5.960        6.728       13.182       16.394       45.267      173.755      268.775        0.041        0.024       16.962       11.917        0.494      331.630       -0.230      868.591
12/27/2014  11:21:00       39.939       15.519       -1.035       33.329       36.277       20.984     1110.809     1315.988      440.344        0.235        0.143       42.848       20.941        0.239      331.415       -0.584      868.565
12/27/2014  11:22:00       38.565       78.799       14.854       27.223       33.170       26.947      741.114     1100.244      726.121        0.524        0.128       87.730       18.586        0.045      331.546       -0.369      868.542
12/27/2014  11:23:00       45.250       15.604      -10.155       21.282       17.320       18.723      452.927      299.976      350.561        0.175        0.055       47.865       11.910        0.062      331.370       -0.658      868.524
12/27/2014  11:24:00       54.386       32.970       -8.108       16.424       22.575       21.041      269.763      509.627      442.730        0.267        0.061       63.599       11.302        0.032      331.338       -0.711      868.494
12/27/2014  11:25:00       35.132       34.422       14.841       11.933       16.728       25.390      142.388      279.830      644.633        0.185        0.053       49.185       10.202        0.043      331.454       -0.522      868.475
12/27/2014  11:26:00       21.166       11.562        2.869       13.807       12.713       17.920      190.624      161.608      321.133        0.063        0.034       24.118       10.565        0.192      331.601       -0.278      868.456
12/27/2014  11:27:00       17.459       29.961      -11.198       35.306       42.177       23.805     1246.537     1778.932      566.674        0.246        0.180       34.677       13.077        0.142      331.738       -0.053      868.442
12/27/2014  11:28:00       43.922       97.583        6.739       49.429       39.068       52.005     2443.245     1526.333     2704.489        0.908        0.334      107.012       35.029        0.107      331.758       -0.020      868.419
12/27/2014  11:29:00      114.166      104.938       10.165       42.665       32.904       31.210     1820.301     1082.694      974.061        1.401        0.194      155.067       10.940        0.005      331.808        0.062      868.416
12/27/2014  11:30:00       81.832       57.479       37.479       41.858       39.865       38.022     1752.116     1589.219     1445.665        0.810        0.239      100.002       19.197        0.037      331.906        0.224      868.428
12/27/2014  11:31:00       37.526      -52.211        8.212       37.730       75.896       43.959     1423.585     5760.263     1932.374        0.666        0.456       64.298       41.824        0.423      331.903        0.219      868.439
12/27/2014  11:32:00       66.826       66.415        1.976       88.212       42.570       36.581     7781.290     1812.227     1338.185        0.990        0.547       94.216       30.997        0.108      332.020        0.410      868.433
12/27/2014  11:33:00       61.819       75.748       16.428       49.353       53.191       46.967     2435.767     2829.311     2205.893        0.865        0.374       97.772       39.881        0.166      331.894        0.204      868.432
12/27/2014  11:34:00       62.982       75.015       -1.550       51.408       37.811       31.791     2642.739     1429.677     1010.671        0.734        0.254       97.949       20.843        0.045      331.705       -0.107      868.412
12/27/2014  11:35:00      110.848       90.528       -4.798       40.738       35.676       31.497     1659.607     1272.757      992.054        1.221        0.196      143.117       15.815        0.012      331.647       -0.203      868.397
12/27/2014  11:36:00       95.027       43.458       -4.200       63.368       43.481       34.940     4015.471     1890.638     1220.827        0.903        0.356      104.493       12.420        0.014      331.815        0.075      868.378
12/27/2014  11:37:00       92.772       80.821       17.688       56.080       41.474       44.121     3144.983     1720.077     1946.638        1.113        0.341      123.040       30.839        0.063      331.907        0.226      868.375
12/27/2014  11:38:00      129.515       97.832       20.882       52.000       24.866       39.429     2703.949      618.311     1554.618        1.583        0.244      162.312       11.830        0.005      331.684       -0.142      868.362
12/27/2014  11:39:00       97.237       77.131        1.326       45.601       38.339       29.160     2079.493     1469.859      850.284        0.990        0.220      124.113       20.850        0.028      331.761       -0.015      868.358
12/27/2014  11:40:00       16.517       53.538       -6.795       41.638       41.451       19.138     1733.694     1718.175      366.272        0.350        0.191       56.028       17.622        0.099      331.848        0.127      868.336
12/27/2014  11:41:00      -17.958       55.689       -1.271       15.277       28.137       20.948      233.372      791.675      438.838        0.244        0.073       58.512       14.582        0.062      332.072        0.498      868.319
12/27/2014  11:42:00       53.541       35.330       19.101       59.036       45.432       37.663     3485.238     2064.058     1418.509        0.572        0.348       64.147       29.647        0.214      332.020        0.411      868.298
12/27/2014  11:43:00      101.569       66.690        6.747       38.979       38.459       32.456     1519.327     1479.111     1053.382        0.943        0.203      121.506       10.911        0.008      331.743       -0.044      868.268
12/27/2014  11:44:00       75.328       72.133       20.524       62.943       41.420       32.042     3961.814     1715.628     1026.676        0.900        0.335      104.295       21.980        0.044      331.933        0.268      868.251
12/27/2014  11:45:00       99.343       74.461        8.769       43.227       32.178       36.023     1868.579     1035.407     1297.667        0.985        0.210      124.151       18.779        0.023      331.757       -0.021      868.235
12/27/2014  11:46:00       95.834       75.545        7.825       35.691       26.373       32.001     1273.825      695.534     1024.081        0.897        0.150      122.029        8.909        0.005      331.873        0.169      868.231
12/27/2014  11:47:00       17.532       99.320        4.276       46.113       47.149       36.006     2126.405     2223.069     1296.467        0.792        0.282      100.856       31.610        0.098      331.970        0.330      868.213
12/27/2014  11:48:00       20.476      101.812       -6.372       37.698       57.034       34.875     1421.161     3252.891     1216.238        0.836        0.295      103.851       30.042        0.084      332.089        0.524      868.205
12/27/2014  11:49:00      -17.442      119.181        5.659       56.437       55.684       38.899     3185.138     3100.669     1513.159        1.117        0.390      120.450       29.111        0.058      331.940        0.280      868.190
12/27/2014  11:50:00       35.427       77.230       -6.921       41.938       34.319       30.423     1758.799     1177.762      925.567        0.556        0.193       84.968       20.849        0.060      331.860        0.149      868.162
12/27/2014  11:51:00       51.268       38.642       10.171       32.057       22.941       27.493     1027.661      526.301      755.839        0.327        0.115       64.200       19.505        0.092      331.804        0.055      868.132
12/27/2014  11:52:00       88.747       64.824       35.236       50.025       41.809       43.524     2502.479     1747.997     1894.329        0.973        0.307      109.901       24.791        0.051      332.093        0.532      868.082
12/27/2014  11:53:00       89.381       80.474       32.167       34.612       33.245       35.580     1197.984     1105.240     1265.902        0.953        0.178      120.271       20.038        0.028      331.866        0.157      868.050
12/27/2014  11:54:00       32.548       19.220       35.861       42.862       58.931       36.131     1837.166     3472.869     1305.476        0.466        0.331       37.800       39.477        1.091      332.384        1.012      868.019
12/27/2014  11:55:00       65.861      -66.209       13.415       69.961       59.835       46.049     4894.510     3580.192     2120.494        0.975        0.530       93.388       47.875        0.263      332.233        0.762      868.003
12/27/2014  11:56:00       46.964      -47.336       21.848       61.619       54.639       45.419     3796.920     2985.378     2062.857        0.688        0.442       66.681       36.358        0.297      332.381        1.007      867.991
12/27/2014  11:57:00       40.378       31.979       68.004       52.091       43.809       39.519     2713.432     1919.208     1561.763        0.673        0.310       51.508       31.843        0.382      332.360        0.972      867.991
12/27/2014  11:58:00       55.688      -14.379       31.746       45.837       64.019       45.125     2101.033     4098.457     2036.246        0.627        0.412       57.515       40.171        0.488      332.451        1.124      867.984
12/27/2014  11:59:00       35.993       69.406       88.876       54.340       91.223       63.551     2952.786     8321.618     4038.722        1.466        0.766       78.184       67.075        0.736      332.191        0.693      867.970
12/27/2014  12:00:00      114.404       83.018       88.852       46.401       43.955       44.480     2153.027     1932.027     1978.508        1.697        0.303      141.352       29.173        0.043      332.056        0.469      867.975
12/27/2014  12:01:00      116.129       70.551       41.334       36.843       30.264       43.510     1357.390      915.912     1893.107        1.217        0.208      135.880       28.649        0.044      332.002        0.381      867.977
12/27/2014  12:02:00       64.776       15.127        9.357       36.076       61.843       29.453     1301.475     3824.507      867.487        0.525        0.300       66.519       31.739        0.228      331.853        0.136      867.964
12/27/2014  12:03:00       -6.678       -6.726       -5.125       18.286       28.335       13.401      334.363      802.871      179.574        0.072        0.066        9.478        8.843        0.870      332.028        0.424      867.943
12/27/2014  12:04:00       17.443      -36.434       39.986       39.635       68.689       45.036     1570.957     4718.143     2028.256        0.577        0.416       40.394       45.700        1.280      332.542        1.272      867.892
12/27/2014  12:05:00       55.035      -55.028       14.415       41.702       80.172       53.640     1739.075     6427.555     2877.229        0.865        0.552       77.826       51.686        0.441      332.536        1.262      867.847
12/27/2014  12:06:00       10.900       -5.585       36.332       31.737       35.062       25.051     1007.230     1229.376      627.546        0.217        0.143       12.248        5.901        0.232      332.728        1.579      867.811
12/27/2014  12:07:00       19.886       45.561       64.142       48.874       59.005       40.209     2388.698     3481.601     1616.799        0.703        0.374       49.712       40.643        0.668      332.796        1.692      867.764
12/27/2014  12:08:00       78.392       79.606       81.239       77.949       60.400       49.282     6076.099     3648.125     2428.761        1.562        0.608      111.725       42.451        0.144      332.258        0.804      867.728
12/27/2014  12:09:00       92.732       86.092       67.423       74.207       36.112       50.865     5506.718     1304.080     2587.253        1.498        0.470      126.535       54.058        0.183      332.315        0.898      867.718
12/27/2014  12:10:00       57.254       67.893       72.618       68.443       47.747       51.774     4684.477     2279.790     2680.546        1.140        0.482       88.812       45.422        0.262      332.433        1.094      867.679
12/27/2014  12:11:00       12.255      -35.321       59.573       39.523       66.144       38.773     1562.059     4375.027     1503.352        0.619        0.372       37.386       34.641        0.859      332.754        1.623      867.661
12/27/2014  12:12:00        8.209      -83.699       33.209       30.477       65.995       27.038      928.833     4355.365      731.041        0.709        0.301       84.100       26.773        0.101      332.350        0.956      867.644
12/27/2014  12:13:00       41.453       46.180       39.626       50.907       49.805       29.563     2591.512     2480.514      873.959        0.568        0.297       62.056       18.026        0.084      332.525        1.245      867.626
12/27/2014  12:14:00       83.750       89.356       62.229       72.665       45.893       54.366     5280.190     2106.177     2955.625        1.460        0.517      122.469       53.650        0.192      332.257        0.801      867.598
12/27/2014  12:15:00       74.475       58.154       20.740       36.999       34.372       32.200     1368.952     1181.456     1036.847        0.647        0.179       94.490       19.105        0.041      332.119        0.575      867.580
12/27/2014  12:16:00       87.975       72.530       -6.695       36.841       53.173       29.928     1357.260     2827.415      895.710        0.906        0.254      114.019       20.670        0.033      332.109        0.559      867.557
12/27/2014  12:17:00       97.827       72.528        8.715       35.177       34.104       33.199     1237.418     1163.064     1102.175        0.920        0.175      121.780       22.052        0.033      332.217        0.737      867.535
12/27/2014  12:18:00       62.369       50.157       -7.537       22.288       17.384       27.199      496.770      302.202      739.768        0.400        0.077       80.036       18.199        0.052      332.109        0.557      867.521
12/27/2014  12:19:00      -10.665       22.268        3.564       32.511       28.205       18.242     1056.957      795.498      332.771        0.140        0.109       24.690       13.108        0.282      332.432        1.091      867.507
12/27/2014  12:20:00      -38.070       50.211       -7.020       39.757       37.553       23.504     1580.585     1410.221      552.450        0.378        0.177       63.012       22.914        0.132      332.374        0.994      867.473
12/27/2014  12:21:00      -46.361       15.722       -8.397       39.902       45.429       21.997     1592.140     2063.762      483.877        0.330        0.207       48.954       16.918        0.119      332.554        1.292      867.423
12/27/2014  12:22:00       16.829       55.487        6.608       41.698       48.658       25.310     1738.695     2367.590      640.601        0.408        0.237       57.983       27.314        0.222      332.621        1.402      867.396
12/27/2014  12:23:00      -13.365       47.575        2.725       17.162       39.146       24.064      294.518     1532.448      579.070        0.243        0.120       49.417       18.855        0.146      332.809        1.714      867.362
12/27/2014  12:24:00      -25.430       -0.409      -24.811       16.954       14.720       15.883      287.437      216.680      252.273        0.101        0.038       25.433       11.305        0.198      332.668        1.481      867.338
12/27/2014  12:25:00      -24.741       -4.148       -0.473       19.093       18.412       19.676      364.537      338.995      387.131        0.086        0.055       25.086       11.193        0.199      332.989        2.011      867.316
12/27/2014  12:26:00       31.234      -19.120       38.190       58.959       57.569       40.237     3476.107     3314.165     1618.980        0.560        0.420       36.622       40.276        1.210      333.198        2.355      867.295
12/27/2014  12:27:00       86.932     -104.309       -1.303       60.988       96.741       64.369     3719.528     9358.891     4143.431        1.783        0.861      135.785       64.581        0.226      332.778        1.660      867.278
12/27/2014  12:28:00       93.349      -89.797        8.943       81.535      105.845       65.625     6647.999    11203.099     4306.673        1.950        1.108      129.528       80.993        0.391      332.637        1.427      867.275
12/27/2014  12:29:00       32.589       52.056      100.866       53.298       87.343       54.521     2840.679     7628.781     2972.548        1.369        0.672       61.416       56.576        0.849      332.667        1.477      867.296
12/27/2014  12:30:00       80.433      -23.097       19.298       40.648       42.878       35.912     1652.229     1838.549     1289.696        0.608        0.239       83.684       27.840        0.111      332.467        1.150      867.298
12/27/2014  12:31:00        7.784       -8.376      -18.147       49.181       53.234       20.060     2418.790     2833.854      402.392        0.306        0.283       11.434       15.085        1.740      332.354        0.962      867.284
12/27/2014  12:32:00       13.399      -24.616       10.731       47.730       36.481       29.543     2278.177     1330.840      872.785        0.269        0.224       28.026       22.727        0.658      332.621        1.404      867.277
12/27/2014  12:33:00       36.741      -45.471       25.227       65.119       99.573       67.541     4240.521     9914.803     4561.815        1.138        0.936       58.459       73.308        1.572      332.817        1.727      867.250
12/27/2014  12:34:00       22.738      -40.991       40.990       56.116       95.895       62.799     3149.061     9195.944     3943.765        1.008        0.814       46.875       58.582        1.562      332.791        1.684      867.235
12/27/2014  12:35:00        9.083     -109.754      -17.488       63.621       44.532       25.921     4047.568     1983.129      671.921        0.957        0.335      110.129       28.977        0.069      332.681        1.501      867.241
12/27/2014  12:36:00       -5.368      -58.673       18.204       65.526       62.154       37.660     4293.627     3863.064     1418.256        0.669        0.479       58.918       36.128        0.376      332.909        1.878      867.218
12/27/2014  12:37:00       37.337       50.072       84.087       63.747       62.070       54.460     4063.743     3852.732     2965.944        1.092        0.544       62.460       51.752        0.687      332.995        2.020      867.231
12/27/2014  12:38:00      119.761       75.646       36.490       36.969       41.067       37.599     1366.712     1686.505     1413.703        1.293        0.223      141.651       29.901        0.045      332.328        0.918      867.254
12/27/2014  12:39:00       45.975       69.568       30.648       44.894       39.559       63.417     2015.452     1564.886     4021.672        0.775        0.380       83.387       30.965        0.138      332.552        1.289      867.274
12/27/2014  12:40:00      -38.844      -41.793       -9.402       36.421       43.170       19.201     1326.490     1863.634      368.678        0.345        0.178       57.058       16.239        0.081      332.423        1.076      867.289
12/27/2014  12:41:00      -23.782        4.107       15.458       37.829       33.736       26.617     1431.028     1138.149      708.467        0.205        0.164       24.134       22.898        0.900      332.765        1.641      867.297
12/27/2014  12:42:00       45.250       19.158       55.658       68.891       81.547       49.352     4745.978     6649.974     2435.622        0.967        0.692       49.138       60.566        1.519      332.944        1.937      867.303
12/27/2014  12:43:00        9.687       44.496       78.973       45.480       72.975       56.292     2068.439     5325.288     3168.791        0.943        0.528       45.539       58.874        1.671      333.036        2.088      867.294
12/27/2014  12:44:00      -22.795      -11.590       49.207       47.213       61.918       46.225     2229.052     3833.813     2136.782        0.564        0.410       25.572       46.027        3.240      333.140        2.261      867.275
12/27/2014  12:45:00        3.975     -139.250      -29.061       71.392       66.553       38.366     5096.790     4429.253     1471.946        1.562        0.550      139.307       37.112        0.071      332.713        1.554      867.260
12/27/2014  12:46:00      -16.227      -45.818       21.046       38.665       47.491       37.296     1495.000     2255.362     1391.018        0.397        0.257       48.606       32.944        0.459      333.037        2.092      867.250
12/27/2014  12:47:00      -27.423       37.383       29.341       26.337       53.557       33.437      693.626     2868.404     1118.010        0.384        0.234       46.363       21.601        0.217      332.989        2.010      867.250
12/27/2014  12:48:00       41.323     -102.039       -3.028       46.010       52.558       36.272     2116.913     2762.296     1315.687        0.916        0.310      110.089       35.194        0.102      332.935        1.921      867.254
12/27/2014  12:49:00      -31.324      -50.068        9.651       36.369       44.932       27.781     1322.736     2018.860      771.783        0.385        0.206       59.059       24.539        0.173      333.145        2.269      867.262
12/27/2014  12:50:00        6.706        1.479       21.510       17.172       26.965       18.194      294.866      727.133      331.025        0.093        0.068        6.867       13.101        3.639      333.400        2.691      867.273
12/27/2014  12:51:00      -32.865      -11.016        0.495       37.512       13.218       17.104     1407.168      174.706      292.559        0.154        0.094       34.662       14.905        0.185      333.379        2.655      867.274
12/27/2014  12:52:00       34.024       48.207       61.316       41.024       38.336       30.583     1682.966     1469.638      935.337        0.566        0.204       59.004       23.594        0.160      333.082        2.166      867.265
12/27/2014  12:53:00       58.765       50.741       14.611       25.777       18.430       28.221      664.470      339.680      796.401        0.402        0.090       77.640       16.022        0.043      332.740        1.600      867.234
12/27/2014  12:54:00       41.335       48.921        3.183       32.587       22.332       29.420     1061.914      498.720      865.537        0.327        0.121       64.046       10.886        0.029      332.755        1.624      867.200
12/27/2014  12:55:00       55.394       40.763       30.052       48.719       39.662       41.501     2373.509     1573.093     1722.374        0.565        0.283       68.776       36.369        0.280      332.711        1.551      867.168
12/27/2014  12:56:00        0.034      -21.629       -0.826       29.774       30.755       20.991      886.479      945.847      440.602        0.137        0.114       21.629        5.974        0.076      332.972        1.983      867.124
12/27/2014  12:57:00       25.155        0.214       -3.079       37.382       47.845       28.122     1397.386     2289.107      790.841        0.256        0.224       25.156       11.855        0.222      332.965        1.969      867.081
12/27/2014  12:58:00      103.126       46.734       29.562       41.339       34.998       30.430     1708.942     1224.840      925.975        0.878        0.193      113.221       21.408        0.036      332.895        1.856      867.042
12/27/2014  12:59:00       84.045       53.954       41.602       41.964       46.878       36.352     1760.979     2197.504     1321.502        0.849        0.264       99.873       32.491        0.106      332.800        1.697      867.016
12/27/2014  13:00:00      123.969       79.542        4.094       34.044       30.591       32.348     1158.989      935.829     1046.361        1.243        0.157      147.293       10.840        0.005      332.556        1.296      866.987
12/27/2014  13:01:00      109.513       84.378        9.934       52.725       34.717       29.750     2779.918     1205.239      885.062        1.204        0.244      138.249       14.099        0.010      332.596        1.360      866.975
12/27/2014  13:02:00      101.433       72.116       20.258       38.589       27.368       28.912     1489.143      749.023      835.917        0.949        0.154      124.457       14.934        0.014      332.644        1.442      866.988
12/27/2014  13:03:00       91.053       48.416       12.939       41.461       42.094       26.848     1719.001     1771.915      720.840        0.751        0.211      103.125       27.080        0.069      332.678        1.498      867.006
12/27/2014  13:04:00       30.834       42.425       -1.855       31.575       31.549       20.967      996.973      995.351      439.620        0.259        0.122       52.447       16.097        0.094      332.853        1.786      867.014
12/27/2014  13:05:00       18.573       47.328       -5.881       15.205       29.191       16.468      231.187      852.109      271.182        0.199        0.068       50.842       10.671        0.044      332.758        1.629      867.009
12/27/2014  13:06:00       41.913       43.450        5.448       48.303       33.422       27.541     2333.174     1117.037      758.484        0.394        0.210       60.371       21.464        0.126      332.918        1.895      866.994
12/27/2014  13:07:00       89.479       64.156       15.482       49.371       31.489       37.746     2437.540      991.541     1424.791        0.861        0.243      110.102       28.260        0.066      332.830        1.749      866.959
12/27/2014  13:08:00       30.710       95.060       -4.919       31.528       50.274       35.948      994.002     2527.426     1292.234        0.741        0.241       99.897       33.649        0.113      332.912        1.882      866.917
12/27/2014  13:09:00        1.323       51.290        3.185       20.328       41.291       24.648      413.210     1704.947      607.505        0.268        0.136       51.307       27.737        0.292      333.137        2.256      866.904
12/27/2014  13:10:00       17.764       64.565       -5.415       18.269       24.115       17.834      333.742      581.545      318.056        0.287        0.062       66.964       13.427        0.040      332.786        1.676      866.906
12/27/2014  13:11:00       42.233       31.234       -5.461       19.560       29.868       15.827      382.607      892.122      250.509        0.216        0.076       52.528       18.341        0.122      332.752        1.619      866.902
12/27/2014  13:12:00        2.635      -19.544       -6.466       29.727       30.566       27.012      883.691      934.291      729.639        0.149        0.127       19.721       21.561        1.195      332.949        1.945      866.892
12/27/2014  13:13:00        6.882       34.561       24.643       16.459       29.327       22.748      270.888      860.061      517.472        0.175        0.082       35.239       14.918        0.179      333.229        2.408      866.914
12/27/2014  13:14:00       63.497       57.377       20.321       62.038       24.872       40.627     3848.695      618.614     1650.541        0.693        0.306       85.580       43.316        0.256      332.987        2.007      866.946
12/27/2014  13:15:00       22.372       58.549      -17.611       36.721       38.870       24.321     1348.447     1510.884      591.522        0.384        0.173       62.678       11.182        0.032      333.004        2.035      866.968
12/27/2014  13:16:00       -1.699       94.912      -12.762       29.714       42.083       25.900      882.949     1770.956      670.817        0.625        0.166       94.927       22.911        0.058      333.161        2.295      866.980
12/27/2014  13:17:00      -10.170       87.788       -4.040       20.217       34.557       23.039      408.707     1194.180      530.778        0.498        0.107       88.375        7.948        0.008      333.182        2.331      866.986
12/27/2014  13:18:00      -40.033       36.747       -8.443       28.702       25.606       21.654      823.797      655.658      468.905        0.249        0.097       54.341       12.071        0.049      333.443        2.762      866.974
12/27/2014  13:19:00       -1.715       43.659        7.739       36.058       49.958       27.635     1300.201     2495.790      763.699        0.326        0.228       43.692       17.435        0.159      333.472        2.809      866.975
12/27/2014  13:20:00       -8.957       29.273        7.542       38.385       55.258       29.216     1473.444     3053.438      853.592        0.319        0.269       30.612       35.473        1.343      333.387        2.669      866.985
12/27/2014  13:21:00      -11.742       54.070        3.354       32.575       57.678       23.908     1061.102     3326.706      571.576        0.402        0.248       55.330       26.506        0.229      333.196        2.351      866.976
12/27/2014  13:22:00       16.403       58.642       -7.062       26.467       35.321       19.235      700.502     1247.592      370.004        0.304        0.116       60.893       20.664        0.115      333.057        2.123      866.963
12/27/2014  13:23:00       65.592       85.908      -13.205       54.610       31.914       27.965     2982.306     1018.483      782.066        0.832        0.239      108.085       26.012        0.058      333.079        2.160      866.969
12/27/2014  13:24:00       44.369       55.306      -11.991       36.252       30.066       21.980     1314.221      903.941      483.107        0.394        0.135       70.904       15.920        0.050      333.295        2.517      866.986
12/27/2014  13:25:00       19.559       39.992       -1.423       30.525       36.486       18.988      931.791     1331.224      360.529        0.230        0.131       44.519       12.236        0.076      333.371        2.640      867.000
12/27/2014  13:26:00       35.339       77.751       -1.013       40.535       66.940       37.458     1643.115     4480.940     1403.106        0.741        0.376       85.405       35.482        0.173      333.248        2.438      867.024
12/27/2014  13:27:00       74.863      100.190       -7.098       54.094       51.029       42.256     2926.134     2603.918     1785.566        1.150        0.366      125.070       32.144        0.066      333.023        2.066      867.046
12/27/2014  13:28:00       50.873      117.090      -20.556       27.220       36.898       24.738      740.921     1361.456      611.991        0.972        0.136      127.664       19.175        0.023      332.947        1.942      867.061
12/27/2014  13:29:00       24.863       56.079        2.209       18.105       33.294       20.284      327.797     1108.471      411.458        0.281        0.092       61.344       15.814        0.066      333.122        2.231      867.078
12/27/2014  13:30:00      -42.051       55.135       -0.484       38.556       30.576       22.430     1486.554      934.914      503.086        0.387        0.146       69.340       19.561        0.080      333.274        2.481      867.084
12/27/2014  13:31:00        8.333       40.103       -4.350       25.934       29.697       23.967      672.565      881.924      574.423        0.191        0.106       40.960       19.604        0.229      333.597        3.017      867.077
12/27/2014  13:32:00       46.963       55.063        3.706       45.653       17.958       24.266     2084.211      322.498      588.851        0.412        0.150       72.370       11.255        0.024      333.223        2.399      867.063
12/27/2014  13:33:00       22.450        6.843       12.831       28.574       23.317       17.613      816.453      543.682      310.232        0.119        0.084       23.470       15.740        0.450      333.455        2.781      867.056
12/27/2014  13:34:00      -14.299       19.708       -2.077       15.188       23.258       21.432      230.674      540.947      459.349        0.091        0.062       24.349        9.216        0.143      333.667        3.132      867.036
12/27/2014  13:35:00        3.053        9.262       18.683       16.745       14.837       11.973      280.405      220.137      143.365        0.054        0.032        9.752        5.817        0.356      333.901        3.520      867.031
12/27/2014  13:36:00      -57.497       23.596       24.229       36.783       20.706       25.080     1353.024      428.753      629.011        0.343        0.121       62.150       13.902        0.050      333.525        2.897      867.030
12/27/2014  13:37:00      -38.587      126.273       -5.424       56.257       49.607       35.891     3164.893     2460.819     1288.200        1.219        0.346      132.038       24.775        0.035      333.360        2.622      867.036
12/27/2014  13:38:00       -6.656      138.637      -12.453       24.198       30.465       23.978      585.548      928.116      574.944        1.075        0.104      138.797       16.831        0.015      333.081        2.162      867.035
12/27/2014  13:39:00       10.920       55.286       -2.271       28.584       38.530       24.065      817.047     1484.535      579.124        0.303        0.144       56.354       16.804        0.089      333.338        2.588      867.036
12/27/2014  13:40:00        9.448       51.537       -4.123       23.077       34.277       17.320      532.545     1174.906      299.969        0.238        0.100       52.396       13.658        0.068      333.305        2.532      867.038
12/27/2014  13:41:00       52.849       42.488       -4.576       23.360       45.270       19.121      545.674     2049.367      365.605        0.379        0.148       67.810       14.833        0.048      333.075        2.154      867.042
12/27/2014  13:42:00       18.348       21.352       15.981       34.215       34.796       16.249     1170.676     1210.757      264.015        0.185        0.132       28.152       12.455        0.196      333.434        2.747      867.034
12/27/2014  13:43:00      -16.323       21.744       10.239       20.260       36.762       21.578      410.484     1351.418      465.591        0.154        0.111       27.189       22.138        0.663      333.802        3.355      867.041
12/27/2014  13:44:00      -23.047       39.508        7.463       22.256       26.597       18.305      495.332      707.420      335.091        0.184        0.077       45.739       15.454        0.114      333.765        3.294      867.050
12/27/2014  13:45:00      -27.002      -15.122       16.140       40.445       27.768       21.873     1635.837      771.051      478.430        0.205        0.144       30.947       21.189        0.469      333.680        3.155      867.052
12/27/2014  13:46:00      -10.805      -21.446       12.475       30.168       29.908       20.644      910.108      894.461      426.155        0.148        0.112       24.014       20.798        0.750      333.755        3.278      867.080
12/27/2014  13:47:00      -81.223      -45.383       -1.254       39.988       23.690       26.232     1599.063      561.202      688.136        0.575        0.142       93.042       22.700        0.060      333.392        2.678      867.102
12/27/2014  13:48:00      -68.106       26.717      -14.557       38.844       44.275       27.593     1508.839     1960.310      761.359        0.490        0.212       73.159       17.177        0.055      333.451        2.773      867.120
12/27/2014  13:49:00      -51.531       68.232        5.079       35.200       37.623       34.479     1239.061     1415.505     1188.775        0.559        0.192       85.505       15.985        0.035      333.712        3.208      867.131
12/27/2014  13:50:00      -58.882       70.504       -5.848       36.787       36.483       26.978     1353.253     1331.039      727.827        0.594        0.171       91.858       21.635        0.055      333.646        3.097      867.139
12/27/2014  13:51:00      -40.803       80.427      -26.817       20.724       27.267       23.523      429.475      743.513      553.308        0.529        0.086       90.185       11.766        0.017      333.211        2.377      867.139
12/27/2014  13:52:00      -62.716       67.380       -6.497       26.356       32.368       26.424      694.638     1047.714      698.217        0.548        0.122       92.051       18.453        0.040      333.556        2.948      867.120
12/27/2014  13:53:00        3.643       -3.564       16.475       23.427       31.352       21.297      548.815      982.927      453.554        0.114        0.099        5.096       18.444       13.099      333.903        3.523      867.111
12/27/2014  13:54:00      -24.836      -50.175       -8.953       32.071       31.625       26.906     1028.552     1000.151      723.910        0.298        0.138       55.985       10.509        0.035      333.721        3.220      867.113
12/27/2014  13:55:00       10.970      -28.300       25.433       23.851       25.055       18.721      568.889      627.757      350.485        0.156        0.077       30.352        6.523        0.046      333.670        3.137      867.116
12/27/2014  13:56:00        2.396      -40.000       -3.299       20.510       19.687       15.792      420.652      387.575      249.389        0.134        0.053       40.071       12.915        0.104      333.541        2.923      867.132
12/27/2014  13:57:00       16.742       26.651       16.639       15.245       26.380       24.037      232.411      695.897      577.765        0.139        0.075       31.473        6.238        0.039      333.668        3.133      867.137
12/27/2014  13:58:00       46.727       34.122       16.564       41.209       28.028       27.043     1698.219      785.568      731.329        0.342        0.161       57.860       24.607        0.181      333.738        3.250      867.134
12/27/2014  13:59:00       40.828       35.111        5.761       39.133       29.100       32.283     1531.428      846.838     1042.171        0.318        0.171       53.849       13.813        0.066      333.616        3.048      867.099
12/27/2014  14:00:00        4.569       53.222       -8.431       34.723       24.763       17.720     1205.721      613.225      314.015        0.253        0.107       53.418       13.871        0.067      333.542        2.925      867.068
12/27/2014  14:01:00       -4.583       46.957        6.111       27.422       30.195       22.121      751.981      911.717      489.339        0.221        0.108       47.181       18.549        0.155      333.816        3.379      867.037
12/27/2014  14:02:00       18.339       68.864       -0.807       32.260       47.409       31.134     1040.713     2247.653      969.345        0.467        0.213       71.264       32.994        0.214      333.555        2.947      867.014
12/27/2014  14:03:00       37.438       52.121       -7.280       25.338       24.150       24.205      642.004      583.236      585.882        0.299        0.091       64.174        7.754        0.015      333.448        2.769      866.986
12/27/2014  14:04:00       35.084       -0.146        5.875       24.051       24.856       23.940      578.433      617.824      573.127        0.152        0.088       35.085       17.910        0.261      333.462        2.792      866.967
12/27/2014  14:05:00       42.653       35.334       17.705       26.231       26.394       25.912      688.070      696.655      671.435        0.272        0.103       55.388       11.398        0.042      333.534        2.911      866.960
12/27/2014  14:06:00       -5.758      -54.530       20.518       28.462       51.541       37.535      810.072     2656.449     1408.880        0.415        0.244       54.833       29.690        0.293      333.975        3.643      866.931
12/27/2014  14:07:00        2.916      -53.522        1.275       46.977       46.109       26.809     2206.874     2126.045      718.706        0.396        0.253       53.602       24.244        0.205      333.947        3.596      866.912
12/27/2014  14:08:00       25.553      -40.000       -0.430       26.752       63.608       35.013      715.665     4046.000     1225.941        0.412        0.299       47.465       40.131        0.715      333.853        3.440      866.887
12/27/2014  14:09:00      -16.997       14.711       53.732       19.074       41.771       29.723      363.812     1744.844      883.481        0.319        0.150       22.479       31.176        1.923      334.151        3.934      866.874
12/27/2014  14:10:00       17.240      -11.383       26.757       38.946       65.745       47.870     1516.775     4322.455     2291.538        0.464        0.407       20.659       44.258        4.589      333.867        3.464      866.859
12/27/2014  14:11:00       33.770      -53.791        4.237       35.583       33.545       26.330     1266.140     1125.290      693.253        0.357        0.154       63.513       14.023        0.049      333.715        3.213      866.830
12/27/2014  14:12:00       70.883      -71.000       15.604       49.504       46.970       32.037     2450.624     2206.187     1026.384        0.799        0.284      100.326       28.596        0.081      333.784        3.325      866.794
12/27/2014  14:13:00       32.523      -58.702       17.728       41.830       68.336       41.927     1749.727     4669.843     1757.914        0.650        0.409       67.109       47.683        0.505      333.909        3.534      866.768
12/27/2014  14:14:00       65.430       80.712       79.181       62.535       47.385       63.411     3910.566     2245.349     4020.919        1.362        0.509      103.901       43.404        0.175      333.697        3.182      866.748
12/27/2014  14:15:00      117.015      102.384       71.729       56.318       46.458       51.954     3171.706     2158.313     2699.210        1.867        0.401      155.483       39.845        0.066      333.471        2.806      866.731
12/27/2014  14:16:00       79.875       88.966       58.169       54.465       46.348       37.792     2966.461     2148.180     1428.265        1.211        0.327      119.561       31.898        0.071      333.726        3.229      866.716
12/27/2014  14:17:00       59.449       58.887       15.224       42.563       31.109       34.549     1811.619      967.759     1193.647        0.560        0.199       83.677       18.662        0.050      333.864        3.458      866.707
12/27/2014  14:18:00       52.716       60.893        9.396       30.699       39.228       28.933      942.410     1538.798      837.096        0.495        0.166       80.542       21.996        0.075      333.765        3.293      866.710
12/27/2014  14:19:00       15.794       32.544       -3.148       20.070       24.526       25.999      402.809      601.540      675.964        0.150        0.084       36.174       15.175        0.176      333.736        3.248      866.700
12/27/2014  14:20:00       59.596      -22.262       -3.661       34.196       57.051       34.383     1169.370     3254.808     1182.182        0.483        0.280       63.618       33.144        0.271      333.675        3.145      866.663
12/27/2014  14:21:00       45.422      -23.876       29.152       32.680       66.602       38.633     1067.961     4435.811     1492.541        0.524        0.350       51.315       45.739        0.794      333.643        3.093      866.642
12/27/2014  14:22:00       88.255     -141.651      -17.247       52.639       90.395       39.851     2770.868     8171.302     1588.084        2.034        0.627      166.895       42.746        0.066      333.642        3.089      866.620
12/27/2014  14:23:00       23.252        3.086       43.032       29.579       68.513       38.282      874.899     4694.048     1465.525        0.472        0.352       23.456       44.893        3.663      333.747        3.266      866.617
12/27/2014  14:24:00       34.235       11.359       45.031       33.127       49.373       40.131     1097.383     2437.665     1610.498        0.424        0.257       36.070       39.794        1.217      333.787        3.330      866.596
12/27/2014  14:25:00       59.417     -128.583       -8.768       55.367       59.390       27.587     3065.465     3527.118      761.018        1.375        0.368      141.647       21.742        0.024      333.566        2.964      866.589
12/27/2014  14:26:00       97.245     -125.456        1.919       55.008      104.245       48.963     3025.854    10867.037     2397.356        2.074        0.815      158.732       47.138        0.088      333.666        3.127      866.566
12/27/2014  14:27:00      107.980     -179.732      -12.144       52.336       54.716       38.732     2739.082     2993.820     1500.136        2.567        0.362      209.674       39.957        0.036      333.576        2.978      866.574
12/27/2014  14:28:00       49.059       18.139       51.161       72.650       50.804       36.273     5278.037     2581.022     1315.706        0.726        0.459       52.305       27.761        0.282      333.771        3.305      866.563
12/27/2014  14:29:00       48.065      -67.507        5.135       62.770       80.379       41.056     3940.126     6460.771     1685.602        0.949        0.604       82.870       46.303        0.312      333.968        3.632      866.531
12/27/2014  14:30:00       26.084        3.671       25.973       30.840       47.545       24.152      951.107     2260.511      583.311        0.258        0.190       26.341       26.133        0.984      333.922        3.553      866.499
12/27/2014  14:31:00       -0.543       44.215       60.169       31.971       31.935       32.182     1022.142     1019.814     1035.651        0.433        0.154       44.218       23.946        0.293      333.981        3.653      866.468
12/27/2014  14:32:00       26.505       -4.680       29.100       44.861       73.768       46.069     2012.468     5441.702     2122.337        0.557        0.479       26.915       46.949        3.043      333.996        3.678      866.444
12/27/2014  14:33:00      107.548     -114.462      -39.377       64.974       51.331       50.132     4221.670     2634.854     2513.225        1.779        0.468      157.061       41.891        0.071      333.613        3.042      866.436
12/27/2014  14:34:00       65.073      -95.362      -24.694       51.000       54.478       26.799     2601.047     2967.882      718.193        1.011        0.314      115.449       17.044        0.022      333.598        3.018      866.443
12/27/2014  14:35:00       48.896      -37.982        9.509       52.101       52.370       38.986     2714.565     2742.661     1519.931        0.545        0.349       61.915       42.208        0.465      333.818        3.382      866.430
12/27/2014  14:36:00       19.102       14.319       28.231       26.335       26.631       22.889      693.545      709.214      523.925        0.165        0.096       23.873        7.165        0.090      333.876        3.477      866.423
12/27/2014  14:37:00       35.767      -83.178       -7.975       49.690       35.459       23.810     2469.074     1257.353      566.900        0.628        0.215       90.542       23.155        0.065      333.926        3.561      866.416
12/27/2014  14:38:00        5.711        8.677       40.696       19.685       24.766       19.885      387.483      613.336      395.395        0.158        0.070       10.387       18.228        3.079      334.086        3.826      866.420
12/27/2014  14:39:00       10.619       21.217       20.262       12.108       13.473       12.486      146.609      181.523      155.898        0.073        0.024       23.726        8.530        0.129      333.973        3.640      866.422
12/27/2014  14:40:00      -19.462      -38.772       -1.004       27.640       49.200       19.633      763.946     2420.636      385.466        0.273        0.179       43.382       22.149        0.261      333.979        3.650      866.408
12/27/2014  14:41:00        8.227     -104.489        0.114       37.986       48.183       30.125     1442.968     2321.569      907.495        0.783        0.234      104.812       23.696        0.051      334.090        3.835      866.392
12/27/2014  14:42:00       71.140     -122.892      -11.626       55.417       56.500       33.150     3071.067     3192.267     1098.934        1.383        0.368      141.997       27.826        0.038      333.966        3.627      866.385
12/27/2014  14:43:00       21.535       -9.781       40.383       34.167       61.733       43.111     1167.412     3810.963     1858.559        0.451        0.342       23.652       45.196        3.652      334.048        3.765      866.379
12/27/2014  14:44:00       37.338      -72.352       -1.162       34.028       48.790       35.094     1157.877     2380.455     1231.563        0.570        0.238       81.418       31.807        0.153      334.015        3.708      866.379
12/27/2014  14:45:00       77.230      -73.464       -4.883       60.068       33.054       30.153     3608.208     1092.585      909.201        0.850        0.280      106.590       29.574        0.077      333.879        3.482      866.388
12/27/2014  14:46:00       31.894      -50.730       -9.396       25.341       31.608       25.146      642.173      999.070      632.344        0.298        0.114       59.923       16.022        0.071      333.908        3.531      866.405
12/27/2014  14:47:00       10.764       16.403       10.055       22.511       14.528       11.419      506.747      211.055      130.384        0.067        0.042       19.620       12.168        0.385      334.082        3.820      866.419
12/27/2014  14:48:00       17.774       25.699       44.904       37.028       29.115       36.619     1371.098      847.657     1340.979        0.328        0.178       31.247       33.049        1.119      334.041        3.752      866.430
12/27/2014  14:49:00       27.731       40.692       21.350       28.411       30.333       32.913      807.185      920.082     1083.272        0.285        0.141       49.242       25.875        0.276      333.938        3.582      866.438
12/27/2014  14:50:00       86.659       60.883        6.652       40.830       33.515       30.172     1667.060     1123.252      910.331        0.748        0.185      105.908       18.255        0.030      333.871        3.470      866.453
12/27/2014  14:51:00       84.541       62.240       17.136       77.448       45.337       32.694     5998.198     2055.439     1068.895        1.022        0.456      104.980       21.473        0.042      333.876        3.478      866.478
12/27/2014  14:52:00       30.556       87.834       -6.913       32.991       43.156       33.450     1088.395     1862.446     1118.933        0.638        0.203       92.997       20.808        0.050      333.794        3.343      866.491
12/27/2014  14:53:00       34.821      116.932      -14.322       33.190       47.818       29.822     1101.604     2286.553      889.364        0.968        0.214      122.006       25.335        0.043      333.781        3.321      866.508
12/27/2014  14:54:00       46.809      153.119      -27.754       43.078       58.320       34.278     1855.755     3401.265     1174.990        1.642        0.322      160.114       32.100        0.040      333.787        3.330      866.536
12/27/2014  14:55:00        3.285      116.373      -18.964       23.167       31.938       21.562      536.699     1020.042      464.924        0.797        0.101      116.419       20.224        0.030      333.811        3.372      866.580
12/27/2014  14:56:00       35.015       91.561       -9.104       27.414       38.567       31.231      751.516     1487.433      975.402        0.645        0.161       98.028       27.388        0.078      333.840        3.420      866.616
12/27/2014  14:57:00       84.006       76.078       -0.130       44.658       36.906       33.534     1994.348     1362.050     1124.520        0.866        0.224      113.335       17.942        0.025      333.820        3.384      866.648
12/27/2014  14:58:00      116.841       38.103        5.371       58.854       44.321       33.637     3463.844     1964.379     1131.449        1.084        0.328      122.897       25.587        0.043      333.839        3.416      866.663
12/27/2014  14:59:00       22.517       31.916       16.826       28.598       25.885       33.645      817.825      670.025     1132.001        0.221        0.131       39.059       27.934        0.511      333.911        3.536      866.692
12/27/2014  15:00:00       17.069       42.000        7.611       18.326       21.322       25.166      335.827      454.625      633.312        0.177        0.071       45.336       19.197        0.179      334.009        3.700      866.711
12/27/2014  15:01:00        3.578      103.774      -21.058       21.534       26.847       12.716      463.693      720.751      161.695        0.629        0.067      103.835        6.867        0.004      333.919        3.550      866.731
12/27/2014  15:02:00      -55.552      121.398      -19.030       49.899       45.642       27.395     2489.918     2083.204      750.469        1.175        0.266      133.504       19.157        0.021      334.006        3.694      866.752
12/27/2014  15:03:00      -57.125      118.101      -18.381       30.636       35.279       19.393      938.547     1244.609      376.077        1.005        0.128      131.191       13.039        0.010      334.049        3.764      866.769
12/27/2014  15:04:00     -110.701        4.786      -12.386       30.644       45.649       31.123      939.066     2083.843      968.611        0.821        0.200      110.805       21.907        0.039      334.178        3.980      866.787
12/27/2014  15:05:00     -101.763      -22.224      -15.255       30.104       47.749       21.181      906.257     2279.946      448.646        0.736        0.182      104.161       18.268        0.031      333.962        3.621      866.790
12/27/2014  15:06:00      -36.810      138.668      -12.567       25.132       67.529       17.824      631.628     4560.099      317.709        1.312        0.275      143.471       12.065        0.007      333.960        3.618      866.790
12/27/2014  15:07:00       -7.267      154.339      -21.173       27.346       41.884       19.761      747.800     1754.250      390.486        1.361        0.145      154.510       21.889        0.020      333.826        3.395      866.800
12/27/2014  15:08:00       -1.578      111.464      -10.840       15.418       43.092       19.907      237.720     1856.958      396.303        0.752        0.125      111.475       23.049        0.043      333.866        3.462      866.806
12/27/2014  15:09:00        2.851       26.810       -6.180       14.022       22.998       14.682      196.622      528.887      215.550        0.085        0.047       26.961       10.268        0.145      333.962        3.621      866.811
12/27/2014  15:10:00       20.845       91.105      -11.674       34.600       66.599       34.741     1197.138     4435.372     1206.964        0.785        0.342       93.459       36.022        0.149      333.936        3.577      866.812
12/27/2014  15:11:00       43.250      106.944      -20.018       43.972       40.852       26.014     1933.542     1668.847      676.705        0.899        0.214      115.359       22.962        0.040      333.861        3.453      866.819
12/27/2014  15:12:00       44.567       51.992       -0.932       28.272       30.193       32.949      799.297      911.620     1085.647        0.374        0.140       68.479       19.692        0.083      333.875        3.477      866.824
12/27/2014  15:13:00       17.860       90.176      -10.839       32.843       51.171       29.048     1078.661     2618.443      843.793        0.655        0.227       91.928       27.391        0.089      333.898        3.515      866.816
12/27/2014  15:14:00       18.330       99.414      -10.771       32.215       32.952       24.019     1037.794     1085.851      576.894        0.652        0.135      101.089       23.917        0.056      333.863        3.458      866.816
12/27/2014  15:15:00       31.709       59.727       -8.079       33.920       21.276       13.012     1150.544      452.658      169.322        0.320        0.089       67.622        6.625        0.010      333.942        3.589      866.813
12/27/2014  15:16:00       58.863       40.716       10.078       25.617       26.564       18.297      656.239      705.642      334.780        0.346        0.085       71.573       16.782        0.055      333.835        3.410      866.831
12/27/2014  15:17:00       26.502       24.641        5.193       32.616       23.629       11.778     1063.773      558.325      138.725        0.155        0.088       36.188       16.070        0.197      333.997        3.680      866.852
12/27/2014  15:18:00       21.434       18.731       -6.366       18.393       12.113        9.281      338.319      146.729       86.142        0.071        0.029       28.465        8.435        0.088      334.006        3.694      866.868
12/27/2014  15:19:00       29.223       48.074        0.521       27.988       30.386       23.704      783.339      923.331      561.886        0.272        0.113       56.259       11.358        0.041      333.954        3.610      866.889
12/27/2014  15:20:00       52.392       66.045        0.053       31.331       35.816       28.676      981.615     1282.777      822.331        0.510        0.154       84.302       22.291        0.070      333.880        3.487      866.906
12/27/2014  15:21:00      102.083       78.161       14.392       23.807       29.742       21.141      566.776      884.587      446.942        0.932        0.095      128.570       10.704        0.007      333.823        3.392      866.922
12/27/2014  15:22:00      104.696       42.585       12.633       22.142       16.693       18.569      490.289      278.660      344.799        0.702        0.056      113.025        7.519        0.004      333.878        3.481      866.914
12/27/2014  15:23:00       58.714       43.907       36.603       31.131       28.163       23.847      969.163      793.127      568.668        0.452        0.117       73.316       15.486        0.045      333.938        3.580      866.895
12/27/2014  15:24:00       36.949       24.000       31.161       27.938       42.186       31.799      780.555     1779.624     1011.200        0.324        0.179       44.060       22.132        0.252      334.033        3.740      866.873
12/27/2014  15:25:00       20.872       -3.432       48.709       25.708       19.452       21.440      660.905      378.371      459.658        0.216        0.075       21.153       10.935        0.267      334.228        4.062      866.874
12/27/2014  15:26:00       21.630      -10.528       -5.863       10.498        8.365        9.668      110.211       69.970       93.464        0.044        0.014       24.056        6.927        0.083      333.925        3.559      866.879
12/27/2014  15:27:00        8.201      -44.675      -10.305        7.321       16.528       12.337       53.592      273.165      152.211        0.132        0.024       45.421        7.929        0.030      333.910        3.534      866.876
12/27/2014  15:28:00       32.408       -8.926        2.537       30.671       14.478       16.227      940.699      209.616      263.318        0.127        0.071       33.615       12.830        0.146      333.982        3.656      866.866
12/27/2014  15:29:00        7.389       12.872       20.831       16.328       12.089        8.102      266.612      146.151       65.637        0.057        0.024       14.842        6.861        0.214      334.266        4.125      866.833
12/27/2014  15:30:00       72.630       38.134       19.286       29.331       25.343       25.981      860.287      642.251      675.005        0.464        0.109       82.032       20.083        0.060      333.941        3.586      866.804
12/27/2014  15:31:00       38.344       51.016       49.787       35.597       28.025       33.826     1267.164      785.389     1144.215        0.487        0.160       63.819       25.186        0.156      334.004        3.690      866.773
12/27/2014  15:32:00       88.744       66.674       33.505       31.406       22.028       24.986      986.366      485.233      624.291        0.777        0.105      111.000       17.375        0.025      333.898        3.516      866.745
12/27/2014  15:33:00       97.106       58.673       19.055       24.918       16.214       21.375      620.920      262.899      456.878        0.729        0.067      113.456       16.426        0.021      333.879        3.485      866.696
12/27/2014  15:34:00       95.999       38.927       17.410       19.327       38.794       23.119      373.540     1505.004      534.509        0.672        0.121      103.591       13.664        0.017      333.890        3.503      866.650
12/27/2014  15:35:00       59.727       64.832        6.368       23.640       24.398       20.606      558.832      595.284      424.613        0.469        0.079       88.150       12.192        0.019      333.851        3.439      866.620
12/27/2014  15:36:00       49.349       47.064       -2.611       24.233       21.497       15.585      587.236      462.134      242.892        0.297        0.065       68.194       11.842        0.030      333.867        3.465      866.601
12/27/2014  15:37:00       83.035       45.410        3.643       30.066       17.717       15.315      903.971      313.891      234.563        0.521        0.073       94.641        4.755        0.003      333.864        3.458      866.600
12/27/2014  15:38:00       61.691       48.553        1.429       26.729       16.768       18.689      714.460      281.164      349.285        0.375        0.067       78.505       13.751        0.031      333.846        3.431      866.609
12/27/2014  15:39:00       45.820       51.713       -3.640       20.131       27.089       24.358      405.253      733.828      593.314        0.326        0.087       69.092       20.321        0.087      333.883        3.490      866.625
12/27/2014  15:40:00       85.060       58.713        3.205       14.302       18.449       16.016      204.558      340.374      256.505        0.575        0.040      103.356       10.753        0.011      333.899        3.517      866.642
12/27/2014  15:41:00       49.212       46.614        3.495       24.098       31.544       22.185      580.703      995.044      492.174        0.334        0.103       67.784       20.554        0.092      333.907        3.530      866.649
12/27/2014  15:42:00       64.511       52.045       -1.145       35.861       24.079       22.970     1286.014      579.816      527.618        0.463        0.120       82.887       15.858        0.037      333.874        3.476      866.643
12/27/2014  15:43:00       96.896       65.887        0.039       29.770       23.092       20.886      886.227      533.239      436.205        0.779        0.093      117.175       13.698        0.014      333.879        3.482      866.632
12/27/2014  15:44:00       70.607       48.443       14.467       29.707       28.743       21.440      882.500      826.155      459.689        0.485        0.108       85.627       15.281        0.032      333.914        3.541      866.611
12/27/2014  15:45:00       63.651       59.191       17.164       26.593       18.773       21.901      707.201      352.428      479.639        0.469        0.077       86.920        9.627        0.012      333.935        3.577      866.592
12/27/2014  15:46:00       56.750       56.320       34.400       25.839       28.321       23.554      667.632      802.055      554.778        0.480        0.101       79.954       13.589        0.029      333.924        3.559      866.570
12/27/2014  15:47:00       57.943       62.840       45.757       35.205       28.245       35.448     1239.404      797.766     1256.583        0.635        0.165       85.477       24.648        0.083      333.899        3.518      866.549
12/27/2014  15:48:00       86.048       71.683       38.889       28.981       15.311       22.853      839.871      234.420      522.265        0.783        0.080      111.994       12.089        0.012      333.858        3.450      866.527
12/27/2014  15:49:00      100.598       58.116       28.375       15.025       12.313       15.065      225.760      151.612      226.943        0.745        0.030      116.178        5.786        0.002      333.889        3.500      866.516
12/27/2014  15:50:00       74.925       44.662       17.245       23.153       20.867       18.889      536.081      435.432      356.809        0.462        0.066       87.226       14.941        0.029      333.855        3.444      866.530
12/27/2014  15:51:00       58.139       44.036       -1.099       25.849       21.007       18.277      668.195      441.273      334.048        0.338        0.072       72.933       13.653        0.035      333.855        3.444      866.560
12/27/2014  15:52:00       76.711       59.877       16.269       43.176       33.290       18.919     1864.173     1108.193      357.935        0.653        0.167       97.313        8.582        0.008      333.831        3.404      866.573
12/27/2014  15:53:00      100.207       56.661        0.979       11.024       17.875       11.852      121.526      319.530      140.473        0.692        0.029      115.117        5.909        0.003      333.837        3.415      866.588
12/27/2014  15:54:00       96.018       54.483       10.871       24.765       19.409       19.408      613.302      376.702      376.680        0.684        0.068      110.399       10.095        0.008      333.841        3.421      866.600
12/27/2014  15:55:00       90.730       48.124       18.869       25.755       18.538       18.772      663.309      343.663      352.401        0.613        0.068      102.702       11.695        0.013      333.849        3.437      866.606
12/27/2014  15:56:00      104.794       46.577        7.921       24.996       22.300       19.633      624.775      497.288      385.442        0.736        0.075      114.679       14.063        0.015      333.847        3.432      866.600
12/27/2014  15:57:00       97.948       52.124        0.876       26.697       19.086       18.855      712.711      364.261      355.510        0.687        0.072      110.953       15.157        0.019      333.858        3.450      866.602
12/27/2014  15:58:00       74.462       48.006       15.624       25.038       12.054       14.214      626.907      145.297      202.044        0.453        0.049       88.595        9.931        0.013      333.857        3.447      866.600
12/27/2014  15:59:00       76.367       33.560       -0.308       24.370       21.388       13.285      593.888      457.444      176.493        0.409        0.061       83.416       12.531        0.023      333.856        3.448      866.573
12/27/2014  16:00:00       95.543       38.623       14.724       28.682       20.158       20.673      822.666      406.338      427.370        0.625        0.083      103.054        7.636        0.005      333.883        3.491      866.537
12/27/2014  16:01:00       93.704       44.442       11.691       15.097       12.051       13.801      227.911      145.236      190.465        0.573        0.028      103.708        8.046        0.006      333.870        3.470      866.519
12/27/2014  16:02:00       94.870       49.745       18.277       23.242       14.227       18.437      540.168      202.394      339.922        0.645        0.054      107.121       13.523        0.016      333.872        3.472      866.499
12/27/2014  16:03:00       88.938       50.671       19.800       23.113       11.310       18.572      534.221      127.926      344.932        0.594        0.050      102.360       14.556        0.020      333.835        3.411      866.480
12/27/2014  16:04:00       82.899       51.407       19.791       13.018       13.642       13.998      169.461      186.096      195.947        0.523        0.028       97.545        8.964        0.008      333.838        3.417      866.490
12/27/2014  16:05:00       80.405       43.684        1.568       17.428       14.708       14.560      303.744      216.318      211.981        0.455        0.037       91.505        8.672        0.009      333.839        3.418      866.488
12/27/2014  16:06:00       54.223       50.818        6.657       21.553       12.834       17.223      464.545      164.712      296.634        0.325        0.046       74.314       14.819        0.040      333.810        3.369      866.513
12/27/2014  16:07:00       61.045       54.696        2.641       14.928       11.134       12.074      222.832      123.973      145.771        0.361        0.025       81.964        7.290        0.008      333.843        3.424      866.528
12/27/2014  16:08:00       47.379       31.580        1.409       15.788       13.631       14.004      249.269      185.810      196.103        0.194        0.032       56.939        5.834        0.010      333.769        3.301      866.559
12/27/2014  16:09:00       31.336       33.888        5.281       20.252       16.108       16.059      410.141      259.453      257.879        0.154        0.046       46.156       12.125        0.069      333.797        3.347      866.586
12/27/2014  16:10:00       23.184       43.656       -5.169       10.389       23.513       13.048      107.933      552.878      170.251        0.165        0.042       49.430       13.865        0.079      333.861        3.455      866.629
12/27/2014  16:11:00       12.623       26.789       -5.588       16.257       19.882       12.188      264.278      395.295      148.539        0.086        0.040       29.614       12.556        0.180      333.810        3.370      866.675
12/27/2014  16:12:00       22.742       56.627       -9.696       16.326       14.630       11.588      266.540      214.032      134.290        0.222        0.031       61.023        9.303        0.023      333.860        3.452      866.727
12/27/2014  16:13:00      -15.359       89.039      -10.591       22.126       19.700       13.213      489.553      388.075      174.575        0.466        0.053       90.354       12.537        0.019      333.947        3.598      866.774
12/27/2014  16:14:00       -8.141       96.431      -17.613        7.943        6.884        5.936       63.086       47.392       35.233        0.491        0.007       96.774        3.331        0.001      333.921        3.551      866.810
12/27/2014  16:15:00       -4.847       93.826      -14.445        6.791       12.783        6.757       46.121      163.408       45.650        0.465        0.013       93.951        4.056        0.002      333.947        3.598      866.846
12/27/2014  16:16:00       -1.281       95.422       -8.500       11.643       13.868        9.790      135.559      192.335       95.840        0.480        0.021       95.430        3.612        0.001      333.939        3.585      866.867
12/27/2014  16:17:00       -1.776       92.551      -16.427        5.116       11.905        6.036       26.175      141.741       36.438        0.452        0.010       92.568        2.246        0.001      333.923        3.560      866.875
12/27/2014  16:18:00       -9.322       78.072      -14.114       13.289       13.017        8.102      176.604      169.448       65.646        0.340        0.021       78.626        4.967        0.004      333.986        3.661      866.886
12/27/2014  16:19:00       -0.698       69.975       -8.298        5.769       13.841        8.334       33.284      191.575       69.456        0.263        0.015       69.978        5.443        0.006      333.936        3.578      866.895
12/27/2014  16:20:00      -13.638       51.475       -1.612       19.049       23.058       11.266      362.864      531.654      126.913        0.193        0.051       53.251        7.734        0.021      333.946        3.596      866.926
12/27/2014  16:21:00      -30.299       51.361       -3.609       24.332       34.747       14.948      592.062     1207.372      223.437        0.280        0.101       59.632       15.265        0.066      333.963        3.622      866.954
12/27/2014  16:22:00      -48.279       47.391       -6.555       20.948       31.262       14.283      438.831      977.292      203.997        0.312        0.081       67.652       10.409        0.024      333.972        3.638      866.988
12/27/2014  16:23:00      -34.695       73.850      -11.611       27.177       25.475       13.065      738.571      648.982      170.695        0.417        0.078       81.593       10.686        0.017      334.074        3.808      867.003
12/27/2014  16:24:00       -0.549       52.298       -3.142       14.489       25.877       16.243      209.925      669.604      263.837        0.194        0.057       52.301       11.845        0.051      334.041        3.752      867.010
12/27/2014  16:25:00        3.107       69.977      -10.904       15.181       13.213       10.402      230.468      174.571      108.206        0.277        0.026       70.046        9.002        0.017      333.978        3.649      866.997
12/27/2014  16:26:00       10.513       74.185      -11.513       10.166       12.545        5.691      103.343      157.377       32.385        0.302        0.015       74.926        4.377        0.003      333.948        3.599      866.964
12/27/2014  16:27:00        6.904       66.815      -12.884       15.046       12.948        8.287      226.375      167.647       68.682        0.257        0.023       67.171        6.505        0.009      333.915        3.545      866.948
12/27/2014  16:28:00       19.207       48.550       -8.356       24.807       21.443       15.478      615.383      459.787      239.566        0.206        0.066       52.211       15.303        0.086      333.848        3.432      866.935
12/27/2014  16:29:00       11.690       46.706       -4.526       11.534       22.594       11.788      133.024      510.470      138.955        0.156        0.039       48.147       13.553        0.079      333.829        3.401      866.941
12/27/2014  16:30:00        6.153       77.184      -15.431        8.245       13.176        8.713       67.977      173.609       75.924        0.328        0.016       77.429        7.553        0.010      333.857        3.448      866.955
12/27/2014  16:31:00        2.892       68.510      -15.980        3.992        8.915        5.661       15.940       79.472       32.043        0.254        0.006       68.571        3.937        0.003      333.877        3.480      866.967
12/27/2014  16:32:00        3.887       69.600      -10.186        9.034       14.304        8.113       81.606      204.613       65.814        0.266        0.018       69.709        3.485        0.002      333.871        3.468      866.982
12/27/2014  16:33:00        5.437       41.470        2.061       19.186       26.339       11.176      368.121      693.757      124.895        0.147        0.059       41.824       14.982        0.128      333.765        3.296      866.993
12/27/2014  16:34:00       -5.945       30.209       -5.669        8.509       22.509        6.901       72.395      506.639       47.629        0.080        0.031       30.788        9.993        0.105      333.861        3.453      866.975
12/27/2014  16:35:00       13.208       62.460      -10.645        5.085        8.774        5.318       25.853       76.979       28.282        0.216        0.007       63.841        2.923        0.002      333.896        3.510      866.956
12/27/2014  16:36:00        1.390       41.461       -6.097       12.339       10.255        5.904      152.249      105.171       34.857        0.103        0.015       41.484        7.516        0.033      333.904        3.523      866.938
12/27/2014  16:37:00        0.899       41.535       -6.394        8.346        8.155        4.406       69.659       66.496       19.416        0.096        0.008       41.545        3.888        0.009      333.898        3.512      866.924
12/27/2014  16:38:00       -7.681       46.504       -1.135       15.515       22.464       13.578      240.718      504.653      184.355        0.158        0.046       47.134       14.227        0.091      333.848        3.433      866.915
12/27/2014  16:39:00      -19.682       26.712       -1.432       21.200       20.075       10.045      449.429      403.004      100.912        0.103        0.048       33.180        6.252        0.036      333.849        3.435      866.907
12/27/2014  16:40:00       12.224       14.363       -2.773       10.920        9.092       10.320      119.242       82.660      106.500        0.034        0.015       18.860        5.485        0.085      333.814        3.376      866.881
12/27/2014  16:41:00        8.573       46.215       -7.484        6.123        8.473        4.992       37.492       71.792       24.924        0.120        0.007       47.003        4.056        0.007      333.888        3.501      866.848
12/27/2014  16:42:00       19.103       31.889       -6.450       10.265       16.730        8.512      105.380      279.883       72.461        0.094        0.023       37.173        5.434        0.021      333.824        3.392      866.819
12/27/2014  16:43:00        9.828        9.952       -3.629        8.350        9.999        5.633       69.714       99.988       31.726        0.021        0.010       13.987        4.701        0.113      333.774        3.307      866.808
12/27/2014  16:44:00       30.470       18.294        1.445       12.182        9.549        5.046      148.401       91.175       25.458        0.077        0.013       35.540        5.748        0.026      333.771        3.305      866.795
12/27/2014  16:45:00       26.231       15.640       -0.731        9.123        6.397        6.566       83.238       40.927       43.115        0.055        0.008       30.540        3.986        0.017      333.712        3.207      866.793
12/27/2014  16:46:00       18.990       13.422        2.091       10.361        8.340        6.186      107.353       69.561       38.265        0.038        0.011       23.255        5.918        0.065      333.670        3.136      866.802
12/27/2014  16:47:00       20.020       10.229       -1.451        8.964        9.081        7.602       80.355       82.462       57.787        0.036        0.011       22.482        5.276        0.055      333.676        3.149      866.811
12/27/2014  16:48:00        9.748        7.524       -4.975        9.478        9.783        5.161       89.828       95.697       26.640        0.019        0.011       12.314        4.834        0.154      333.649        3.102      866.819
12/27/2014  16:49:00        5.856        5.095       -0.943        4.845        9.196        6.815       23.472       84.570       46.440        0.011        0.008        7.762        5.727        0.544      333.709        3.203      866.829
12/27/2014  16:50:00      -17.597        9.683       -3.388       16.831        9.840        5.593      283.273       96.824       31.286        0.041        0.021       20.086        7.480        0.139      333.756        3.280      866.844
12/27/2014  16:51:00      -41.977      -13.106       -8.883       11.754       14.795       10.237      138.165      218.884      104.804        0.124        0.023       43.975        5.075        0.013      333.520        2.888      866.856
12/27/2014  16:52:00      -66.749        4.301       -6.556       24.328       14.794       13.142      591.860      218.873      172.714        0.275        0.049       66.888       13.114        0.038      333.263        2.463      866.867
12/27/2014  16:53:00      -93.802       -3.068      -10.455       22.917       16.617       13.405      525.207      276.123      179.696        0.495        0.049       93.852       11.853        0.016      333.204        2.364      866.869
12/27/2014  16:54:00      -84.910       -0.415       -9.573       29.532       18.287       17.039      872.152      334.430      290.326        0.440        0.075       84.911       15.507        0.033      333.249        2.441      866.871
12/27/2014  16:55:00      -59.338       -9.108       -2.048       27.121       22.744       13.778      735.556      517.271      189.837        0.253        0.072       60.033       11.331        0.036      333.194        2.348      866.873
12/27/2014  16:56:00      -75.461       -4.544       -9.201       22.522       15.135       14.932      507.251      229.064      222.978        0.338        0.048       75.598        8.884        0.014      333.220        2.393      866.865
12/27/2014  16:57:00      -93.361      -16.728       -9.127       14.170       13.931        8.688      200.780      194.082       75.484        0.477        0.024       94.847        7.384        0.006      333.251        2.442      866.853
12/27/2014  16:58:00      -93.956      -14.555      -10.718       14.502       11.500        9.737      210.303      132.256       94.813        0.480        0.022       95.076        3.825        0.002      333.252        2.445      866.854
12/27/2014  16:59:00      -53.941      -19.495       -5.548       21.114       17.583       12.090      445.794      309.161      146.174        0.211        0.045       57.356        9.035        0.025      333.209        2.374      866.859
12/27/2014  17:00:00      -62.906      -14.837       -5.687       13.816       15.360        9.855      190.887      235.940       97.116        0.237        0.026       64.632        7.307        0.013      333.195        2.350      866.868
12/27/2014  17:01:00      -43.657      -19.975       -7.717       29.768       21.134       14.142      886.136      446.662      199.992        0.195        0.077       48.010       14.498        0.091      333.118        2.222      866.876
12/27/2014  17:02:00      -56.226        2.703      -12.004       38.284       30.135       19.803     1465.638      908.103      392.168        0.304        0.138       56.291       15.928        0.080      333.145        2.268      866.878
12/27/2014  17:03:00     -124.940      -15.269      -11.810       30.929       29.010       18.555      956.615      841.591      344.287        0.906        0.107      125.870       16.789        0.018      333.089        2.175      866.873
12/27/2014  17:04:00     -114.508      -44.967       -3.524       27.099       21.400       13.813      734.374      457.964      190.793        0.826        0.069      123.021       12.201        0.010      333.087        2.173      866.887
12/27/2014  17:05:00     -113.807      -31.505       -5.818       37.435       28.016       16.897     1401.359      784.920      285.497        0.822        0.124      118.087       19.687        0.028      333.075        2.153      866.884
12/27/2014  17:06:00     -131.836      -10.379      -15.690       17.749       16.614       12.084      315.015      276.011      146.025        0.924        0.037      132.244        7.395        0.003      333.208        2.373      866.886
12/27/2014  17:07:00     -107.068      -16.157       -9.243       25.576       20.091       15.064      654.149      403.649      226.922        0.655        0.064      108.280       14.146        0.017      333.116        2.219      866.880
12/27/2014  17:08:00      -84.515      -12.463        4.526       38.718       27.236       22.791     1499.067      741.785      519.425        0.504        0.138       85.429       24.638        0.083      333.040        2.094      866.881
12/27/2014  17:09:00      -81.435      -20.500       -0.227       36.744       26.991       13.945     1350.122      728.514      194.467        0.466        0.114       83.975       15.716        0.035      333.058        2.124      866.875
12/27/2014  17:10:00      -62.931       -7.637       -3.738       33.718       21.305       15.836     1136.877      453.923      250.765        0.294        0.092       63.393       16.702        0.069      333.040        2.094      866.866
12/27/2014  17:11:00      -65.410      -15.362       -2.031       22.791       17.985       13.686      519.419      323.468      187.313        0.277        0.052       67.189       13.705        0.042      333.081        2.163      866.876
12/27/2014  17:12:00      -86.168       -4.534       -4.456       22.416       18.692       15.484      502.479      349.402      239.745        0.428        0.055       86.287        9.772        0.013      333.151        2.278      866.893
12/27/2014  17:13:00      -74.300        9.429       -7.909       22.349       24.501       14.820      499.466      600.308      219.643        0.350        0.066       74.896        8.734        0.014      333.139        2.257      866.921
12/27/2014  17:14:00      -80.527       17.121      -12.267       27.893       23.325       16.004      778.009      544.048      256.131        0.425        0.079       82.327       13.824        0.028      333.103        2.200      866.952
12/27/2014  17:15:00      -67.508        4.343       -9.862       23.718       17.898       14.678      562.528      320.325      215.458        0.289        0.055       67.647       11.427        0.029      333.047        2.107      866.970
12/27/2014  17:16:00      -59.002        3.620       -4.522       17.614       15.362       11.015      310.266      236.000      121.336        0.209        0.033       59.113        7.896        0.018      333.050        2.111      866.975
12/27/2014  17:17:00      -69.717       11.682       -9.289       16.551       14.979       10.210      273.941      224.381      104.254        0.284        0.030       70.689        4.890        0.005      333.076        2.154      866.974
12/27/2014  17:18:00      -77.693       11.541      -11.160       14.802       15.218        9.861      219.095      231.587       97.245        0.342        0.027       78.546        1.399        0.000      333.039        2.094      866.976
12/27/2014  17:19:00      -81.802       -7.114      -14.667       12.976       17.027       10.357      168.375      289.931      107.263        0.376        0.028       82.111        6.344        0.006      332.885        1.841      866.981
12/27/2014  17:20:00      -76.268        1.972       -7.720       14.334       20.386       14.425      205.474      415.576      208.075        0.335        0.041       76.293        6.689        0.008      332.991        2.015      866.983
12/27/2014  17:21:00      -85.297      -20.938      -14.894       16.266       16.494       11.308      264.571      272.048      127.876        0.430        0.033       87.829        5.663        0.004      332.826        1.742      867.005
12/27/2014  17:22:00      -83.956      -18.206      -13.163       16.031       18.888       12.619      257.007      356.761      159.239        0.416        0.039       85.907        9.701        0.013      332.698        1.532      867.022
12/27/2014  17:23:00      -76.489      -21.360      -10.291       26.269       28.287       15.702      690.084      800.158      246.564        0.407        0.087       79.416        8.863        0.012      332.639        1.433      867.025
12/27/2014  17:24:00      -87.648      -25.778      -12.722       35.433       30.823       18.500     1255.488      950.064      342.268        0.553        0.127       91.360       16.400        0.032      332.686        1.511      867.033
12/27/2014  17:25:00      -89.755      -18.045       -8.437       35.841       26.193       16.862     1284.611      686.055      284.318        0.535        0.113       91.551        9.191        0.010      332.771        1.652      867.030
12/27/2014  17:26:00     -109.652      -10.429      -11.952       32.749       23.977       21.480     1072.528      574.905      461.400        0.719        0.105      110.147       18.756        0.029      332.797        1.693      867.035
12/27/2014  17:27:00     -114.784       -7.547       -8.441       37.304       26.646       20.588     1391.612      710.008      423.880        0.791        0.126      115.032       19.368        0.028      332.759        1.631      867.044
12/27/2014  17:28:00     -131.037      -10.931      -11.632       28.948       23.829       16.762      838.011      567.841      280.968        0.956        0.084      131.492       14.580        0.012      332.779        1.665      867.041
12/27/2014  17:29:00      -95.146      -18.739       -6.348       41.195       24.490       18.400     1696.997      599.773      338.577        0.604        0.132       96.973       21.133        0.047      332.788        1.678      867.051
12/27/2014  17:30:00     -109.687      -12.606       -6.331       35.283       20.494       16.771     1244.913      420.000      281.258        0.709        0.097      110.409       16.934        0.024      332.786        1.675      867.070
12/27/2014  17:31:00     -113.924      -19.631       -6.584       30.329       17.120       14.201      919.825      293.085      201.671        0.741        0.071      115.603       13.690        0.014      332.789        1.680      867.111
12/27/2014  17:32:00      -95.521      -16.901       -9.062       29.519       29.096       17.209      871.350      846.575      296.153        0.575        0.101       97.005       15.496        0.026      332.757        1.628      867.143
12/27/2014  17:33:00      -71.499        0.111       -3.127       48.674       35.558       22.867     2369.171     1264.352      522.906        0.464        0.208       71.499       22.463        0.099      332.782        1.669      867.179
12/27/2014  17:34:00      -86.628      -10.562      -12.826       32.362       27.513       15.796     1047.316      756.992      249.507        0.492        0.103       87.269        8.827        0.010      332.823        1.738      867.198
12/27/2014  17:35:00      -97.794      -32.259       -4.505       22.541       25.247       15.314      508.087      637.423      234.524        0.600        0.069      102.977       12.406        0.015      332.685        1.510      867.215
12/27/2014  17:36:00     -114.448      -30.195      -15.114       25.067       22.682       15.871      628.375      514.463      251.886        0.782        0.070      118.364       10.717        0.008      332.504        1.210      867.244
12/27/2014  17:37:00     -107.336      -30.375      -16.504       27.126       22.621       13.702      735.803      511.717      187.746        0.708        0.072      111.551        5.860        0.003      332.476        1.163      867.273
12/27/2014  17:38:00      -83.682      -10.553      -13.476       32.064       26.850       15.934     1028.095      720.941      253.890        0.465        0.100       84.345       12.773        0.023      332.522        1.238      867.303
12/27/2014  17:39:00      -73.997      -24.667       -9.410       30.344       38.831       20.457      920.759     1507.837      418.477        0.451        0.142       78.000       12.328        0.025      332.469        1.153      867.312
12/27/2014  17:40:00      -47.851      -32.017       -2.132       33.839       38.544       18.184     1145.052     1485.633      330.658        0.314        0.148       57.575       14.273        0.061      332.398        1.033      867.310
12/27/2014  17:41:00      -33.407      -36.694      -10.366       25.023       24.878       17.169      626.154      618.914      294.773        0.205        0.077       49.624        8.914        0.032      332.432        1.089      867.291
12/27/2014  17:42:00      -30.398       -5.301       -9.054       21.165       17.520       11.610      447.956      306.937      134.791        0.096        0.044       30.856        9.396        0.093      332.412        1.057      867.293
12/27/2014  17:43:00      -72.408      -27.742       -9.182       18.007       18.269       14.338      324.242      333.755      205.592        0.348        0.043       77.541        7.332        0.009      332.385        1.011      867.301
12/27/2014  17:44:00      -65.880       -7.023      -10.180       37.083       31.381       17.128     1375.124      984.746      293.376        0.357        0.133       66.253       18.184        0.075      332.299        0.870      867.311
12/27/2014  17:45:00      -21.435      -15.602       -3.262       24.958       22.577       18.507      622.904      509.740      342.508        0.109        0.074       26.512       15.018        0.321      332.350        0.954      867.314
12/27/2014  17:46:00      -51.836      -28.086       -7.197       30.234       21.663       11.466      914.091      469.283      131.462        0.252        0.076       58.956        7.478        0.016      332.422        1.073      867.318
12/27/2014  17:47:00      -80.512      -20.054      -12.730       15.355       16.069       10.850      235.767      258.202      117.726        0.383        0.031       82.972        6.214        0.006      332.414        1.059      867.321
12/27/2014  17:48:00      -90.088       -7.404      -12.278       24.525       20.205       15.653      601.492      408.238      245.023        0.479        0.063       90.392       11.224        0.015      332.370        0.988      867.346
12/27/2014  17:49:00      -67.937       -1.974       -8.856       36.671       23.103       17.479     1344.732      533.731      305.506        0.344        0.109       67.966       15.796        0.054      332.343        0.943      867.365
12/27/2014  17:50:00      -20.141      -13.672        5.011       37.779       30.674       20.911     1427.272      940.923      437.253        0.171        0.140       24.343       22.883        0.884      332.291        0.859      867.390
12/27/2014  17:51:00      -66.507      -10.431      -10.841       42.592       36.507       24.529     1814.051     1332.734      601.676        0.420        0.187       67.320       24.741        0.135      332.417        1.066      867.410
12/27/2014  17:52:00      -74.282       -1.273      -24.441       27.983       26.186       24.471      783.059      685.682      598.838        0.409        0.103       74.293       12.848        0.030      332.530        1.253      867.420
12/27/2014  17:53:00      -55.697        3.403      -11.223       36.642       26.261       21.307     1342.652      689.635      453.981        0.286        0.124       55.801       19.917        0.127      332.535        1.262      867.433
12/27/2014  17:54:00      -62.119       -4.173       -8.098       26.971       31.544       17.642      727.446      995.034      311.236        0.299        0.102       62.259       10.957        0.031      332.540        1.269      867.428
12/27/2014  17:55:00      -80.631      -17.554      -10.154       31.210       28.875       18.693      974.042      833.750      349.417        0.453        0.108       82.519       11.404        0.019      332.386        1.015      867.433
12/27/2014  17:56:00      -75.859       -9.679      -10.386       54.347       32.205       22.478     2953.560     1037.167      505.245        0.523        0.225       76.474       25.361        0.110      332.362        0.973      867.437
12/27/2014  17:57:00      -92.998      -20.296       -6.912       35.915       30.905       21.232     1289.885      955.144      450.778        0.590        0.135       95.187       19.555        0.042      332.356        0.965      867.429
12/27/2014  17:58:00      -61.246      -23.984       -6.285       48.961       38.476       23.495     2397.222     1480.382      551.994        0.440        0.221       65.774       23.027        0.123      332.346        0.948      867.408
12/27/2014  17:59:00      -50.618      -25.266       10.742       27.594       36.355       22.966      761.423     1321.698      527.454        0.296        0.131       56.573       16.233        0.082      332.321        0.908      867.376
12/27/2014  18:00:00      -23.294       -3.050        7.443       41.435       31.258       24.481     1716.837      977.037      599.325        0.195        0.165       23.493       20.429        0.756      332.361        0.973      867.356
12/27/2014  18:01:00      -39.743      -13.449        5.039       43.572       28.766       25.148     1898.539      827.510      632.435        0.257        0.168       41.957       25.123        0.359      332.371        0.989      867.343
12/27/2014  18:02:00      -91.038       -3.273       -2.537       54.132       40.936       27.210     2930.249     1675.763      740.365        0.682        0.267       91.097       24.908        0.075      332.336        0.933      867.347
12/27/2014  18:03:00     -119.096      -13.757       -1.706       49.431       38.443       27.251     2443.447     1477.863      742.642        0.952        0.233      119.888       26.404        0.049      332.319        0.905      867.341
12/27/2014  18:04:00     -105.038      -36.811       -8.954       27.358       33.524       19.101      748.473     1123.875      364.862        0.735        0.112      111.302       10.980        0.010      332.349        0.954      867.346
12/27/2014  18:05:00      -73.703      -37.313       -8.218       43.524       22.591       20.052     1894.306      510.368      402.102        0.485        0.140       82.610       16.915        0.042      332.447        1.116      867.364
12/27/2014  18:06:00     -133.150      -61.236        0.940       38.604       23.665       20.007     1490.286      560.044      400.294        1.196        0.123      146.557       19.557        0.018      332.417        1.067      867.372
12/27/2014  18:07:00      -95.789      -51.826        1.224       39.718       28.960       22.600     1577.523      838.705      510.749        0.739        0.146      108.910       16.640        0.023      332.452        1.123      867.371
12/27/2014  18:08:00      -86.440      -55.007        0.521       34.393       22.956       19.383     1182.908      526.981      375.705        0.629        0.104      102.458       17.503        0.029      332.530        1.252      867.351
12/27/2014  18:09:00      -69.380      -47.763        0.716       31.231       33.767       15.889      975.376     1140.180      252.470        0.473        0.118       84.231       14.327        0.029      332.614        1.390      867.339
12/27/2014  18:10:00      -24.607      -44.159        0.840       29.218       22.781       13.556      853.689      518.994      183.752        0.206        0.078       50.552        8.257        0.027      332.679        1.499      867.349
12/27/2014  18:11:00      -69.476      -62.168        1.338       41.464       27.446       18.034     1719.224      753.292      325.227        0.575        0.140       93.229       16.096        0.030      332.585        1.342      867.352
12/27/2014  18:12:00     -106.118      -94.657       -4.855       23.355       40.657       20.195      545.458     1652.997      407.839        1.142        0.130      142.201       19.790        0.019      332.550        1.284      867.341
12/27/2014  18:13:00      -93.495      -60.431        2.557       52.121       46.821       26.746     2716.636     2192.175      715.342        0.901        0.281      111.325       27.664        0.062      332.585        1.343      867.323
12/27/2014  18:14:00     -117.526      -66.033        3.447       57.154       35.987       29.247     3266.569     1295.096      855.399        1.180        0.271      134.806       29.448        0.048      332.620        1.401      867.279
12/27/2014  18:15:00      -87.897      -70.213        6.723       54.106       33.192       29.565     2927.459     1101.717      874.098        0.880        0.245      112.498       28.315        0.063      332.654        1.458      867.244
12/27/2014  18:16:00     -130.464     -100.652        0.216       47.170       41.032       33.973     2225.014     1683.639     1154.132        1.611        0.253      164.778       27.247        0.027      332.681        1.502      867.239
12/27/2014  18:17:00     -148.175      -74.658       -0.639       41.437       39.006       28.439     1717.056     1521.463      808.779        1.579        0.202      165.920       23.716        0.020      332.684        1.506      867.235
12/27/2014  18:18:00     -138.995      -72.029        2.189       56.416       37.209       25.540     3182.749     1384.483      652.288        1.487        0.261      156.550       28.751        0.034      332.647        1.445      867.216
12/27/2014  18:19:00     -140.386      -83.731       -6.064       33.638       42.946       28.391     1131.510     1844.330      806.029        1.527        0.189      163.460       23.249        0.020      332.723        1.571      867.214
12/27/2014  18:20:00     -111.758      -66.715       -7.285       30.262       25.682       17.844      915.788      659.544      318.404        0.944        0.095      130.157       16.817        0.017      332.705        1.542      867.227
12/27/2014  18:21:00      -83.279      -28.990        2.488       31.924       34.806       18.644     1019.155     1211.467      347.610        0.518        0.129       88.180       18.106        0.042      332.677        1.495      867.253
12/27/2014  18:22:00      -79.992      -35.254       -2.029       31.913       31.856       19.286     1018.439     1014.809      371.967        0.502        0.120       87.416       15.602        0.032      332.702        1.538      867.287
12/27/2014  18:23:00      -90.058      -40.647       -6.442       31.405       32.017       19.203      986.267     1025.070      368.753        0.609        0.119       98.806       17.673        0.032      332.659        1.465      867.299
12/27/2014  18:24:00      -66.355       -7.923        3.059       36.693       24.263       18.977     1346.390      588.679      360.111        0.338        0.115       66.827       17.630        0.070      332.567        1.313      867.283
12/27/2014  18:25:00      -91.137      -36.805       -7.330       27.289       18.699       13.219      744.668      349.646      174.741        0.549        0.063       98.288       11.703        0.014      332.641        1.436      867.285
12/27/2014  18:26:00      -79.616      -33.118       -4.250       22.598       31.474       14.743      510.648      990.635      217.361        0.459        0.086       86.229       13.086        0.023      332.768        1.647      867.272
12/27/2014  18:27:00      -87.362      -17.875       -5.864       22.298       24.701       15.800      497.221      610.118      249.626        0.467        0.068       89.172       13.884        0.024      332.762        1.638      867.260
12/27/2014  18:28:00      -94.376      -28.564       -2.802       27.537       19.602       13.830      758.265      384.243      191.279        0.553        0.067       98.604       12.861        0.017      332.751        1.617      867.257
12/27/2014  18:29:00      -98.242      -36.690       -4.946       18.494       17.112       10.571      342.035      292.820      111.739        0.588        0.037      104.870        6.427        0.004      332.734        1.591      867.243
12/27/2014  18:30:00      -54.247      -30.065        8.626       40.665       26.707       19.239     1653.626      713.258      370.154        0.333        0.137       62.021       18.843        0.092      332.693        1.522      867.219
12/27/2014  18:31:00      -61.293      -42.837       -3.927       31.730       17.377       15.382     1006.778      301.960      236.606        0.358        0.077       74.779       16.534        0.049      332.716        1.561      867.192
12/27/2014  18:32:00      -42.691      -31.831        0.734       33.281       23.646       16.788     1107.615      559.148      281.838        0.239        0.097       53.251       18.863        0.125      332.694        1.523      867.188
12/27/2014  18:33:00      -19.215      -22.243        6.724       28.969       23.994       15.845      839.212      575.704      251.063        0.129        0.083       29.393       18.211        0.384      332.747        1.611      867.187
12/27/2014  18:34:00      -26.043      -23.071       -2.317       29.807       14.546       11.117      888.468      211.601      123.593        0.122        0.061       34.792       13.210        0.144      332.735        1.593      867.187
12/27/2014  18:35:00      -14.415      -17.254        5.246       16.544       10.956        8.361      273.694      120.040       69.899        0.050        0.023       22.484        9.427        0.176      332.743        1.604      867.201
12/27/2014  18:36:00      -15.233      -13.208        1.130        7.563       12.256        6.686       57.204      150.206       44.699        0.033        0.013       20.162        5.555        0.076      332.756        1.626      867.221
12/27/2014  18:37:00       -6.478       -0.068        1.157        7.375        3.759        4.831       54.389       14.128       23.341        0.007        0.005        6.479        5.056        0.609      332.715        1.557      867.248
12/27/2014  18:38:00       -7.239       11.055        5.449        7.021        8.292        7.517       49.299       68.751       56.498        0.019        0.009       13.214        6.239        0.223      332.656        1.460      867.280
12/27/2014  18:39:00      -32.833        7.728       -5.817       10.130        5.214        5.446      102.610       27.185       29.656        0.067        0.008       33.730        3.076        0.008      332.665        1.475      867.311
12/27/2014  18:40:00      -45.857        0.499       -2.518       11.979        6.635        5.188      143.502       44.025       26.917        0.116        0.011       45.860        3.063        0.004      332.705        1.542      867.316
12/27/2014  18:41:00      -47.171       -0.250       -9.628        7.390        6.647        6.445       54.610       44.183       41.544        0.123        0.007       47.172        3.912        0.007      332.699        1.531      867.303
12/27/2014  18:42:00      -52.570       -8.849       -6.835        8.259        7.156        5.545       68.210       51.202       30.742        0.152        0.008       53.310        3.642        0.005      332.657        1.464      867.281
12/27/2014  18:43:00      -34.161       -9.046       -0.971       20.345       10.359        8.031      413.912      107.315       64.494        0.092        0.029       35.339        4.554        0.017      332.487        1.181      867.252
12/27/2014  18:44:00      -50.475      -17.607       -2.937       11.944       15.205        6.404      142.665      231.194       41.012        0.164        0.021       53.458        1.009        0.000      332.486        1.179      867.229
12/27/2014  18:45:00      -65.436       -1.679       -5.693       16.210       11.031        7.169      262.779      121.678       51.392        0.238        0.022       65.457        5.168        0.006      332.482        1.172      867.222
12/27/2014  18:46:00      -70.145      -23.859       -2.143       21.594       18.832       11.113      466.319      354.637      123.493        0.322        0.047       74.092        7.267        0.010      332.471        1.155      867.236
12/27/2014  18:47:00      -89.904      -21.301       -7.320       17.238       15.211       12.693      297.165      231.388      161.119        0.464        0.034       92.393       11.270        0.015      332.510        1.218      867.244
12/27/2014  18:48:00      -79.190      -22.976        3.623       26.717       22.666       15.690      713.787      513.758      246.168        0.414        0.074       82.456       15.507        0.035      332.493        1.191      867.249
12/27/2014  18:49:00      -79.778      -12.084        2.338       27.511       19.271       14.426      756.870      371.354      208.114        0.393        0.067       80.688       11.258        0.019      332.481        1.170      867.259
12/27/2014  18:50:00      -99.819      -12.838      -10.925       22.404       20.728       13.912      501.956      429.647      193.536        0.569        0.056      100.641       11.356        0.013      332.416        1.064      867.284
12/27/2014  18:51:00     -100.680       -7.738       -1.991       27.806       24.439       18.734      773.174      597.267      350.975        0.596        0.086      100.977       17.117        0.029      332.360        0.972      867.307
12/27/2014  18:52:00      -63.942      -32.960        2.737       33.418       29.152       18.461     1116.762      849.828      340.801        0.374        0.115       71.937       16.813        0.055      332.367        0.983      867.319
12/27/2014  18:53:00      -55.555      -36.926        0.583       35.596       21.723       17.316     1267.042      471.909      299.846        0.324        0.102       66.707       18.854        0.080      332.290        0.856      867.324
12/27/2014  18:54:00      -86.301      -42.105       -0.648       25.534       24.765       19.350      651.963      613.321      374.418        0.543        0.082       96.024       15.491        0.026      332.293        0.860      867.328
12/27/2014  18:55:00      -96.779      -34.782       -4.558       27.222       26.090       13.301      741.023      680.676      176.906        0.610        0.080      102.839       11.751        0.013      332.238        0.771      867.320
12/27/2014  18:56:00     -105.657      -36.519       -7.901       19.941       26.192       15.396      397.656      685.997      237.044        0.694        0.066      111.790       10.204        0.008      332.259        0.805      867.304
12/27/2014  18:57:00      -96.987      -22.042      -12.268       20.227       19.128       13.921      409.134      365.895      193.800        0.551        0.048       99.460        7.306        0.005      332.283        0.845      867.286
12/27/2014  18:58:00      -90.352      -26.055      -11.595        9.563       15.948        9.640       91.454      254.348       92.928        0.471        0.022       94.034        3.564        0.001      332.316        0.900      867.281
12/27/2014  18:59:00      -96.552      -46.160      -12.919       15.174       15.214       12.125      230.251      231.458      147.024        0.611        0.030      107.019        8.330        0.006      332.328        0.917      867.286
12/27/2014  19:00:00     -107.440      -43.683       -9.026       25.597       18.660       16.487      655.197      348.208      271.822        0.740        0.064      115.981       11.725        0.010      332.329        0.920      867.308
12/27/2014  19:01:00     -138.107      -31.335       -8.579       20.536       16.317       15.638      421.722      266.239      244.556        1.053        0.047      141.617       11.576        0.007      332.291        0.859      867.336
12/27/2014  19:02:00     -108.949      -27.279       -9.135       18.859       19.140       12.639      355.647      366.350      159.749        0.679        0.044      112.312        9.571        0.007      332.319        0.903      867.359
12/27/2014  19:03:00     -117.078      -22.374      -18.848       23.341       16.501       13.302      544.806      272.297      176.947        0.778        0.050      119.196       10.639        0.008      332.214        0.731      867.372
12/27/2014  19:04:00     -114.838      -20.296       -6.834       28.695       21.498       18.084      823.400      462.162      327.014        0.763        0.081      116.618       15.826        0.018      332.220        0.741      867.400
12/27/2014  19:05:00      -93.143      -31.254        0.433       46.114       29.751       18.713     2126.487      885.092      350.188        0.651        0.168       98.247       20.918        0.045      332.209        0.724      867.423
12/27/2014  19:06:00      -48.751      -16.569       -4.839       38.267       34.588       18.540     1464.351     1196.321      343.749        0.284        0.150       51.489       15.227        0.087      332.223        0.747      867.447
12/27/2014  19:07:00     -110.744       28.276      -15.382       52.296       36.380       24.314     2734.855     1323.532      591.190        0.897        0.232      114.297       22.232        0.038      332.228        0.755      867.446
12/27/2014  19:08:00     -134.753       25.551       -9.896       46.054       37.593       24.778     2121.017     1413.237      613.960        1.153        0.207      137.154       15.140        0.012      332.163        0.648      867.438
12/27/2014  19:09:00      -92.474      -10.661       -6.709       45.053       32.822       24.664     2029.768     1077.284      608.308        0.621        0.186       93.087       24.525        0.069      332.075        0.502      867.417
12/27/2014  19:10:00      -84.695      -36.039      -15.030       27.528       26.185       17.803      757.803      685.654      316.941        0.523        0.088       92.044       10.806        0.014      332.120        0.576      867.399
12/27/2014  19:11:00      -73.424      -18.321       -3.447       35.305       21.302       19.720     1246.463      453.763      388.889        0.391        0.104       75.676       10.799        0.020      332.150        0.625      867.397
12/27/2014  19:12:00      -81.489      -28.209      -14.062       47.466       17.419       16.492     2253.015      303.409      271.996        0.523        0.141       86.234        8.787        0.010      332.107        0.555      867.412
12/27/2014  19:13:00     -115.147       -9.702       -3.118       45.485       38.260       23.196     2068.850     1463.861      538.066        0.872        0.204      115.555       27.078        0.055      332.020        0.411      867.424
12/27/2014  19:14:00      -62.502       -6.252       -0.679       53.313       32.964       19.495     2842.291     1086.597      380.049        0.413        0.215       62.814       18.971        0.091      331.982        0.350      867.411
12/27/2014  19:15:00      -63.749       -5.721       -4.680       35.128       26.770       19.880     1233.989      716.646      395.221        0.323        0.117       64.005       17.082        0.071      331.993        0.368      867.375
12/27/2014  19:16:00      -94.703      -28.084       -7.625       23.639       21.771       14.339      558.796      473.975      205.601        0.553        0.062       98.780        9.160        0.009      332.014        0.400      867.327
12/27/2014  19:17:00      -75.712      -30.085       -7.584       19.071       18.772       20.715      363.704      352.389      429.132        0.392        0.057       81.470       17.320        0.045      332.084        0.517      867.300
12/27/2014  19:18:00      -76.161      -50.168       -6.630       19.794       21.262       11.929      391.794      452.094      142.292        0.467        0.049       91.199        9.293        0.010      332.103        0.549      867.291
12/27/2014  19:19:00     -111.686      -39.149       -8.499       18.359       13.509        9.013      337.046      182.484       81.229        0.734        0.030      118.349        6.617        0.003      332.130        0.592      867.273
12/27/2014  19:20:00      -57.291      -37.321        0.391       25.388       16.299       14.425      644.562      265.663      208.068        0.290        0.056       68.375       11.746        0.030      332.107        0.555      867.246
12/27/2014  19:21:00      -65.239      -43.713       -0.281       25.453       15.191       11.983      647.850      230.780      143.600        0.359        0.051       78.530       11.509        0.021      332.202        0.711      867.236
12/27/2014  19:22:00      -56.721      -34.903        4.719       33.014       22.030       15.567     1089.938      485.343      242.342        0.314        0.091       66.599       15.729        0.056      332.230        0.757      867.229
12/27/2014  19:23:00      -51.356      -36.779       -0.055       26.235       27.271       15.341      688.264      743.703      235.348        0.283        0.083       63.168       13.973        0.049      332.278        0.838      867.222
12/27/2014  19:24:00      -45.486       -4.203        1.833       20.353       17.085       15.603      414.244      291.884      243.447        0.152        0.047       45.680       12.374        0.073      332.167        0.653      867.233
12/27/2014  19:25:00      -89.125      -15.275       -8.342       22.009       15.256       14.800      484.389      232.736      219.044        0.459        0.047       90.425       15.459        0.029      332.185        0.685      867.248
12/27/2014  19:26:00     -102.858      -38.762       -8.970       11.912       17.401       10.741      141.885      302.805      115.364        0.636        0.028      109.919        2.087        0.000      332.245        0.784      867.262
12/27/2014  19:27:00      -87.068      -29.258       -2.956       23.880       22.758       13.658      570.259      517.918      186.549        0.486        0.064       91.852       12.867        0.020      332.164        0.648      867.275
12/27/2014  19:28:00      -55.349      -21.585       -0.618       18.178       19.084        9.295      330.442      364.190       86.403        0.216        0.039       59.409        6.709        0.013      332.100        0.543      867.291
12/27/2014  19:29:00      -63.449      -13.386       -7.061       12.947       11.805       10.016      167.636      139.366      100.319        0.233        0.020       64.846        5.581        0.007      332.086        0.521      867.302
12/27/2014  19:30:00      -93.937      -17.039      -16.522       17.600       17.206       11.019      309.776      296.043      121.414        0.506        0.036       95.470        8.008        0.007      332.049        0.459      867.324
12/27/2014  19:31:00     -103.067      -17.774      -12.105       22.970       21.552       13.703      527.624      464.498      187.768        0.613        0.059      104.589       13.503        0.017      332.012        0.398      867.344
12/27/2014  19:32:00     -106.854      -40.630       -9.501       20.843       27.728       14.024      434.449      768.850      196.668        0.728        0.070      114.318        6.945        0.004      331.980        0.345      867.365
12/27/2014  19:33:00      -75.456      -41.356       -7.714       39.468       24.751       21.975     1557.706      612.593      482.892        0.506        0.133       86.046       17.089        0.039      331.934        0.269      867.369
12/27/2014  19:34:00     -110.110      -41.077       -7.329       20.597       17.895       14.387      424.238      320.234      206.989        0.741        0.048      117.522        9.865        0.007      331.987        0.357      867.362
12/27/2014  19:35:00     -120.647      -69.639       -4.123       22.915       24.894       15.114      525.076      619.700      228.423        1.040        0.069      139.303       12.223        0.008      332.027        0.422      867.364
12/27/2014  19:36:00     -118.021      -59.691      -11.174       32.919       29.789       17.525     1083.635      887.400      307.110        0.995        0.114      132.257       13.109        0.010      331.989        0.359      867.372
12/27/2014  19:37:00     -115.684      -48.772       -7.304       21.516       23.689       15.199      462.957      561.173      231.020        0.853        0.063      125.545        8.905        0.005      331.982        0.347      867.367
12/27/2014  19:38:00     -130.787      -42.018      -16.183       22.449       17.151        9.976      503.980      294.174       99.512        1.002        0.045      137.371        7.292        0.003      331.953        0.298      867.359
12/27/2014  19:39:00     -132.213      -44.329      -14.936       14.509       17.032       12.243      210.512      290.087      149.890        1.016        0.033      139.447        7.856        0.003      331.994        0.367      867.357
12/27/2014  19:40:00     -119.539      -56.435      -10.314       25.144       17.155       12.960      632.196      294.292      167.959        0.934        0.055      132.191        9.323        0.005      332.010        0.394      867.356
12/27/2014  19:41:00      -92.537      -55.121      -13.200       20.953       18.424        9.532      439.039      339.443       90.857        0.632        0.043      107.710        6.178        0.003      332.033        0.431      867.362
12/27/2014  19:42:00      -81.843      -54.397       -4.679       21.951       17.248       12.534      481.867      297.477      157.099        0.531        0.047       98.272        8.884        0.008      332.051        0.463      867.345
12/27/2014  19:43:00     -114.719      -55.624       -5.496       19.704       15.196       11.413      388.257      230.911      130.251        0.852        0.037      127.493       10.160        0.006      332.040        0.444      867.322
12/27/2014  19:44:00     -123.334      -42.671       -6.200       25.653       22.085       12.257      658.095      487.759      150.225        0.918        0.065      130.507       12.600        0.009      332.049        0.459      867.314
12/27/2014  19:45:00     -140.658      -53.413       -9.702       19.944       18.771       14.974      397.766      352.369      224.221        1.185        0.049      150.458       11.334        0.006      332.010        0.394      867.319
12/27/2014  19:46:00     -125.468      -40.907      -18.808       19.548       19.957       13.150      382.120      398.270      172.916        0.936        0.048      131.968        2.311        0.000      331.936        0.272      867.327
12/27/2014  19:47:00      -99.963      -31.214      -18.813       23.809       22.002       16.013      566.854      484.069      256.408        0.631        0.065      104.723        6.458        0.004      331.901        0.216      867.334
12/27/2014  19:48:00     -108.788      -22.470      -19.556       19.750       23.454       13.797      390.071      550.076      190.371        0.693        0.057      111.084        3.581        0.001      331.844        0.122      867.333
12/27/2014  19:49:00      -98.619      -35.841      -15.853       16.683       15.358       12.674      278.318      235.861      160.627        0.597        0.034      104.930        5.768        0.003      331.819        0.080      867.336
12/27/2014  19:50:00      -94.479      -22.341      -19.762       20.676       19.757       13.741      427.496      390.321      188.820        0.541        0.050       97.085        7.060        0.005      331.859        0.147      867.347
12/27/2014  19:51:00      -84.479      -10.717       -5.461       44.407       21.016       18.724     1971.977      441.666      350.584        0.502        0.138       85.156       22.516        0.070      331.806        0.059      867.376
12/27/2014  19:52:00      -36.449        3.748       -0.704       32.109       28.127       20.376     1031.011      791.136      415.179        0.179        0.112       36.641       20.554        0.315      331.733       -0.060      867.403
12/27/2014  19:53:00       68.920       40.915       13.747       35.113       28.418       24.628     1232.952      807.572      606.544        0.463        0.132       80.150       10.850        0.018      331.761       -0.015      867.416
12/27/2014  19:54:00       89.701       75.727        4.011       37.048       28.679       26.268     1372.577      822.493      689.991        0.834        0.144      117.392       22.222        0.036      331.684       -0.141      867.414
12/27/2014  19:55:00       24.733       41.710       -6.768       22.020       18.900       13.942      484.871      357.199      194.380        0.172        0.052       48.492       12.796        0.070      331.708       -0.103      867.431
12/27/2014  19:56:00        3.254       26.470       -4.275        4.610       14.934        5.959       21.249      223.027       35.505        0.050        0.014       26.669        6.491        0.059      331.823        0.085      867.457
12/27/2014  19:57:00      -34.861       25.929      -15.173       26.201       15.815       10.607      686.474      250.124      112.509        0.158        0.052       43.446       13.197        0.092      331.917        0.242      867.484
12/27/2014  19:58:00      -16.669       29.545       -7.710       31.447       13.874        6.819      988.930      192.492       46.497        0.122        0.061       33.923        6.812        0.040      331.936        0.273      867.510
12/27/2014  19:59:00       35.927       24.848        3.800       19.502       19.545       18.695      380.310      382.013      349.516        0.152        0.056       43.682       11.897        0.074      332.165        0.649      867.546
12/27/2014  20:00:00       36.718       30.242       -0.921       13.668       14.565       11.303      186.802      212.132      127.759        0.140        0.026       47.569        8.567        0.032      332.011        0.399      867.574
12/27/2014  20:01:00       34.630       26.456       -0.435       12.626        6.815        8.431      159.406       46.446       71.081        0.109        0.014       43.579        6.801        0.024      332.016        0.408      867.604
12/27/2014  20:02:00       32.914       25.931        8.608       10.275        8.527        8.999      105.585       72.705       80.988        0.104        0.013       41.901        2.405        0.003      331.984        0.352      867.629
12/27/2014  20:03:00       31.257       19.530        5.575        4.968        8.232        5.872       24.685       67.768       34.482        0.076        0.006       36.857        2.957        0.006      332.043        0.450      867.641
12/27/2014  20:04:00       18.100       14.373        7.690        9.568        7.790       11.185       91.551       60.677      125.107        0.044        0.014       23.113        6.333        0.075      331.964        0.320      867.632
12/27/2014  20:05:00       18.583        8.508       -0.593        7.403        3.860        2.128       54.810       14.898        4.530        0.025        0.004       20.438        2.124        0.011      331.956        0.307      867.617
12/27/2014  20:06:00        1.040      -15.404       -3.022       13.929       12.233        6.436      194.027      149.651       41.421        0.032        0.019       15.439        3.412        0.049      331.971        0.329      867.596
12/27/2014  20:07:00       -3.073      -22.398       -6.398        8.795        9.252       10.099       77.345       85.601      101.980        0.041        0.013       22.608        4.633        0.042      332.007        0.392      867.566
12/27/2014  20:08:00       -2.988      -28.060        3.633       16.537       12.872       10.707      273.473      165.697      114.647        0.068        0.028       28.219        5.082        0.032      332.099        0.542      867.526
12/27/2014  20:09:00      -22.798      -22.455       -5.012       12.717        8.776        8.279      161.732       77.025       68.547        0.068        0.015       31.999        2.659        0.007      332.086        0.519      867.498
12/27/2014  20:10:00      -22.401        0.629       -0.073        6.095       13.207        9.545       37.146      174.423       91.106        0.040        0.015       22.410        9.607        0.184      332.079        0.507      867.499
12/27/2014  20:11:00      -33.541       10.235       -3.711       13.171        7.066        9.467      173.474       49.931       89.629        0.078        0.016       35.068        5.104        0.021      332.035        0.437      867.506
12/27/2014  20:12:00      -31.479       -5.895       -1.149       12.497       13.296        9.725      156.166      176.773       94.578        0.073        0.021       32.026        8.884        0.077      331.942        0.282      867.516
12/27/2014  20:13:00       -7.494       -1.679       -0.836        6.949        6.078        6.437       48.285       36.944       41.439        0.009        0.006        7.680        4.997        0.423      331.994        0.370      867.523
12/27/2014  20:14:00      -15.239        9.957       -2.915        9.906        7.062        6.083       98.137       49.875       36.998        0.026        0.009       18.203        3.443        0.036      331.971        0.331      867.510
12/27/2014  20:15:00        6.425       26.020       -2.919       11.387        8.936        5.566      129.665       79.851       30.983        0.048        0.012       26.801        4.406        0.027      332.007        0.392      867.505
12/27/2014  20:16:00        8.516       30.517       -1.666        5.811        7.233        4.115       33.764       52.314       16.937        0.055        0.005       31.683        2.642        0.007      332.044        0.453      867.501
12/27/2014  20:17:00      -17.746       33.466       -2.974       13.229       11.106        6.223      175.011      123.341       38.729        0.089        0.017       37.881        5.110        0.018      332.101        0.544      867.503
12/27/2014  20:18:00      -38.264       -8.736       -3.613        9.078       10.704        7.423       82.403      114.586       55.095        0.090        0.013       39.249        4.504        0.013      332.074        0.502      867.525
12/27/2014  20:19:00      -46.468      -18.688       -2.288       13.248       13.419        6.873      175.504      180.071       47.235        0.146        0.020       50.086        5.327        0.011      332.050        0.462      867.549
12/27/2014  20:20:00      -35.944      -21.863       -0.786       12.169       11.989        9.566      148.080      143.739       91.514        0.108        0.019       42.071        8.171        0.038      331.968        0.326      867.560
12/27/2014  20:21:00      -19.021       -0.873       -4.108       11.298        6.362        4.864      127.638       40.474       23.663        0.029        0.010       19.041        2.941        0.024      331.922        0.250      867.570
12/27/2014  20:22:00      -46.945        3.073       -6.397       18.171        6.837        8.536      330.192       46.742       72.857        0.135        0.022       47.045        9.073        0.037      331.931        0.266      867.569
12/27/2014  20:23:00      -63.844        1.602      -12.411       10.167        6.767        7.441      103.373       45.792       55.369        0.222        0.010       63.864        4.945        0.006      332.024        0.417      867.570
12/27/2014  20:24:00      -49.948      -15.216       -8.255       13.585       15.330        8.191      184.552      235.019       67.090        0.164        0.024       52.214        6.857        0.017      332.080        0.510      867.562
12/27/2014  20:25:00      -70.114      -27.467       -3.061       12.374       13.034        9.352      153.122      169.888       87.465        0.304        0.021       75.301        6.707        0.008      332.000        0.377      867.554
12/27/2014  20:26:00      -74.807      -27.765       -4.687       22.073       16.810        8.632      487.233      282.592       74.516        0.362        0.042       79.793        8.772        0.012      331.972        0.332      867.563
12/27/2014  20:27:00      -94.793      -11.126      -10.013       19.811       15.976       12.673      392.489      255.242      160.616        0.501        0.040       95.444        9.675        0.010      331.914        0.234      867.594
12/27/2014  20:28:00     -110.870      -22.025      -10.257       24.627       16.131       15.156      606.514      260.214      229.703        0.699        0.055      113.036       12.484        0.012      331.813        0.069      867.628
12/27/2014  20:29:00      -83.774      -16.077       -4.748       35.397       23.758       15.923     1252.933      564.429      253.552        0.468        0.104       85.303       17.151        0.040      331.679       -0.149      867.644
12/27/2014  20:30:00      -40.154        9.507       -4.427       42.316       20.872       12.717     1790.667      435.658      161.723        0.205        0.119       41.264       13.375        0.105      331.604       -0.274      867.643
12/27/2014  20:31:00      -58.404      -31.462       -0.806       30.646       20.452       14.029      939.194      418.282      196.803        0.298        0.078       66.339       11.994        0.033      331.624       -0.241      867.635
12/27/2014  20:32:00      -67.035      -34.177       -0.415       26.498       21.229       11.397      702.148      450.653      129.898        0.347        0.064       75.244        9.610        0.016      331.607       -0.271      867.617
12/27/2014  20:33:00      -45.555      -26.468       -1.102       20.249       19.457       10.700      410.030      378.574      114.484        0.184        0.045       52.686        9.565        0.033      331.580       -0.313      867.590
12/27/2014  20:34:00      -23.390        3.445       -9.863       16.149       20.225       11.707      260.799      409.039      137.053        0.073        0.040       23.643       10.321        0.191      331.564       -0.340      867.560
12/27/2014  20:35:00      -61.501       10.466       -7.663       19.458       20.860       13.348      378.632      435.122      178.181        0.247        0.050       62.385       10.015        0.026      331.717       -0.088      867.535
12/27/2014  20:36:00      -60.933      -15.438       -8.269       16.679       21.878        9.426      278.183      478.638       88.842        0.243        0.042       62.858        8.879        0.020      331.766       -0.008      867.521
12/27/2014  20:37:00     -106.360      -48.626      -10.336       31.479       25.880       17.227      990.917      669.764      296.782        0.787        0.098      116.948        9.257        0.006      331.620       -0.246      867.540
12/27/2014  20:38:00     -110.861      -39.401       -3.523       45.037       51.454       24.691     2028.292     2647.463      609.637        0.957        0.264      117.654       20.161        0.029      331.573       -0.324      867.566
12/27/2014  20:39:00     -119.466       -3.107      -16.139       34.488       31.673       19.046     1189.417     1003.177      362.733        0.855        0.128      119.506       11.374        0.009      331.471       -0.493      867.563
12/27/2014  20:40:00      -69.981      -15.806       -8.553       33.374       35.266       22.432     1113.847     1243.696      503.210        0.404        0.143       71.744       16.893        0.055      331.388       -0.629      867.537
12/27/2014  20:41:00      -87.866      -46.069       -7.908       40.313       35.506       14.113     1625.121     1260.670      199.189        0.649        0.154       99.210       12.600        0.016      331.512       -0.425      867.518
12/27/2014  20:42:00      -64.158       -9.071       -0.563       38.017       38.647       20.755     1445.278     1493.567      430.764        0.378        0.168       64.796       19.846        0.094      331.429       -0.561      867.509
12/27/2014  20:43:00      -88.480        0.045       -4.474       44.110       30.265       21.414     1945.735      915.987      458.574        0.558        0.166       88.480       18.789        0.045      331.411       -0.591      867.512
12/27/2014  20:44:00      -66.892       -1.026      -10.753       34.680       29.685       19.416     1202.702      881.217      376.984        0.353        0.123       66.900       12.044        0.032      331.512       -0.426      867.513
12/27/2014  20:45:00     -104.959      -14.746       -5.955       40.855       32.752       19.899     1669.152     1072.684      395.955        0.720        0.157      105.990       19.023        0.032      331.449       -0.529      867.507
12/27/2014  20:46:00      -62.904      -30.930       -1.362       48.746       34.708       22.111     2376.220     1204.633      488.876        0.449        0.203       70.097       25.322        0.130      331.412       -0.590      867.475
12/27/2014  20:47:00      -97.348       -8.888       -7.441       25.545       29.333       18.548      652.553      860.415      344.032        0.573        0.093       97.753       12.639        0.017      331.394       -0.620      867.433
12/27/2014  20:48:00      -46.261      -34.437       -8.975       23.677       28.642       12.142      560.603      820.389      147.437        0.247        0.076       57.671        8.525        0.022      331.491       -0.460      867.402
12/27/2014  20:49:00       -3.774      -34.116       -4.756       16.225       18.829       10.423      263.248      354.544      108.631        0.096        0.036       34.324       10.234        0.089      331.606       -0.270      867.371
12/27/2014  20:50:00       -8.011      -11.040       -5.277       13.505       13.993        6.899      182.389      195.802       47.591        0.032        0.021       13.640        2.094        0.024      331.609       -0.266      867.349
12/27/2014  20:51:00      -66.018      -16.427      -13.946       17.428       17.238       12.095      303.727      297.164      146.277        0.278        0.037       68.031       10.327        0.023      331.484       -0.473      867.334
12/27/2014  20:52:00      -98.931      -18.234      -16.538       21.522       17.529       12.318      463.212      307.262      151.722        0.566        0.046      100.597        6.945        0.005      331.371       -0.656      867.332
12/27/2014  20:53:00      -78.793      -21.019      -11.516       20.343       17.133       11.818      413.852      293.528      139.668        0.381        0.042       81.548        6.739        0.007      331.387       -0.631      867.340
12/27/2014  20:54:00      -60.184      -16.445      -11.656       13.027       13.127       12.931      169.697      172.319      167.222        0.227        0.025       62.391        7.027        0.013      331.450       -0.528      867.348
12/27/2014  20:55:00      -74.890      -31.814      -18.725       13.562       11.477       10.858      183.926      131.716      117.905        0.370        0.022       81.368        6.226        0.006      331.543       -0.375      867.366
12/27/2014  20:56:00     -109.126       -6.923      -19.060       38.372       23.677       14.939     1472.401      560.624      223.188        0.729        0.113      109.345       15.553        0.020      331.468       -0.498      867.381
12/27/2014  20:57:00      -69.004       14.054      -15.972       27.373       19.508       16.024      749.291      380.573      256.753        0.330        0.069       70.420       11.290        0.026      331.396       -0.616      867.384
12/27/2014  20:58:00      -62.042        7.553       -7.838       19.434       12.956        9.970      377.674      167.855       99.391        0.231        0.032       62.500        8.080        0.017      331.568       -0.333      867.402
12/27/2014  20:59:00      -80.683      -28.372      -11.957       12.502       15.454        7.990      156.298      238.834       63.848        0.396        0.023       85.526        5.967        0.005      331.407       -0.598      867.440
12/27/2014  21:00:00      -66.068      -12.123       -3.899       40.102       24.797       15.523     1608.201      614.904      240.971        0.350        0.123       67.171       17.691        0.069      331.301       -0.771      867.459
12/27/2014  21:01:00      -37.097      -23.126       -9.214       14.694       19.872       12.244      215.906      394.881      149.909        0.138        0.038       43.715        7.403        0.029      331.334       -0.717      867.455
12/27/2014  21:02:00      -14.314       15.462       -5.972       14.290       14.604       10.228      204.208      213.288      104.604        0.050        0.026       21.071        9.441        0.201      331.559       -0.346      867.459
12/27/2014  21:03:00      -17.590       -8.134       -6.123       13.545       12.123        8.018      183.473      146.978       64.280        0.040        0.020       19.380        9.860        0.259      331.710       -0.099      867.470
12/27/2014  21:04:00      -13.682        1.270       -4.025        7.442        8.027        4.605       55.383       64.430       21.203        0.017        0.007       13.741        3.855        0.079      331.724       -0.076      867.501
12/27/2014  21:05:00      -16.584      -10.040       -6.924       11.682        8.967        4.564      136.474       80.398       20.826        0.033        0.012       19.386        5.078        0.069      331.717       -0.089      867.527
12/27/2014  21:06:00      -22.145      -17.843       -2.121       10.766       12.612        9.319      115.907      159.054       86.848        0.059        0.018       28.439        6.476        0.052      331.652       -0.194      867.514
12/27/2014  21:07:00       -7.840      -24.131       -2.094       14.005       17.313       11.620      196.134      299.746      135.031        0.064        0.032       25.373       11.050        0.190      331.548       -0.367      867.471
12/27/2014  21:08:00      -28.466      -30.947       -9.915       13.110       12.574       10.789      171.879      158.096      116.408        0.116        0.022       42.048        7.118        0.029      331.665       -0.173      867.418
12/27/2014  21:09:00      -48.136      -16.231       -7.961        5.786        6.266        4.771       33.477       39.266       22.766        0.137        0.005       50.799        1.421        0.001      331.464       -0.505      867.374
12/27/2014  21:10:00      -35.691      -12.088       -6.562       13.146       10.145        4.637      172.824      102.919       21.506        0.088        0.015       37.682        5.360        0.020      331.590       -0.297      867.345
12/27/2014  21:11:00        0.726        3.481        2.101        5.707        8.881        5.457       32.567       78.864       29.776        0.008        0.007        3.556        4.088        1.322      331.612       -0.261      867.341
12/27/2014  21:12:00       -1.432       -8.484       -7.813       10.995        8.457        7.057      120.885       71.517       49.797        0.019        0.012        8.604        6.791        0.623      331.732       -0.063      867.376
12/27/2014  21:13:00       -6.471      -16.828       -1.707       14.793       11.300        7.412      218.833      127.688       54.939        0.036        0.020       18.029        6.528        0.131      331.782        0.017      867.415
12/27/2014  21:14:00      -19.697      -26.551       -0.661        9.267        8.955        6.796       85.879       80.188       46.187        0.065        0.011       33.060        5.810        0.031      331.749       -0.034      867.430
12/27/2014  21:15:00      -20.936      -29.380       -4.000       12.111        9.203        8.239      146.668       84.688       67.875        0.081        0.015       36.076        2.548        0.005      331.696       -0.121      867.429
12/27/2014  21:16:00      -66.238      -33.398       -7.584        9.773       15.278        7.897       95.516      233.419       62.358        0.298        0.020       74.181        3.558        0.002      331.509       -0.432      867.436
12/27/2014  21:17:00      -86.969      -16.560      -11.863       13.572       15.859        6.422      184.202      251.494       41.242        0.423        0.024       88.532        6.643        0.006      331.551       -0.362      867.457
12/27/2014  21:18:00     -100.372        9.052      -11.125       11.404       17.208        9.678      130.056      296.105       93.672        0.540        0.026      100.779        5.939        0.003      331.552       -0.359      867.474
12/27/2014  21:19:00      -95.129        8.242      -13.650       16.115        9.143        8.824      259.701       83.598       77.866        0.486        0.021       95.485        4.629        0.002      331.644       -0.208      867.495
12/27/2014  21:20:00      -63.452       14.721      -11.461       14.305       14.425       10.657      204.624      208.082      113.576        0.245        0.026       65.137        6.976        0.011      331.576       -0.320      867.497
12/27/2014  21:21:00      -41.409        7.928       -7.476       16.255       10.624        9.954      264.239      112.868       99.092        0.115        0.024       42.161        8.942        0.045      331.625       -0.240      867.482
12/27/2014  21:22:00      -53.207      -27.541       -6.870       17.804       13.792        8.303      316.993      190.222       68.933        0.211        0.029       59.913        6.141        0.011      331.451       -0.527      867.486
12/27/2014  21:23:00     -109.379      -33.106      -12.264       30.335       24.341       16.654      920.213      592.499      277.368        0.750        0.090      114.279        3.485        0.001      331.192       -0.951      867.507
12/27/2014  21:24:00      -90.410      -25.097       -6.163       23.276       25.319       19.784      541.767      641.074      391.391        0.521        0.079       93.828        7.124        0.006      331.245       -0.865      867.516
12/27/2014  21:25:00      -89.830      -34.238       -8.579       23.098       14.595       12.924      533.516      213.006      167.037        0.511        0.046       96.133        8.089        0.007      331.203       -0.933      867.508
12/27/2014  21:26:00      -92.796      -24.465       -8.705       15.357       15.203       13.656      235.842      231.140      186.488        0.497        0.033       95.967        9.362        0.010      331.251       -0.856      867.487
12/27/2014  21:27:00      -83.766      -31.398       -7.637       16.048       18.421        8.926      257.541      339.347       79.670        0.437        0.034       89.457        3.956        0.002      331.379       -0.644      867.477
12/27/2014  21:28:00      -73.003      -51.668       -2.086       30.719       16.108       14.847      943.658      259.466      220.445        0.471        0.071       89.437       16.385        0.034      331.376       -0.649      867.484
12/27/2014  21:29:00      -81.724      -33.522      -12.617       11.830       12.321        9.260      139.942      151.800       85.755        0.417        0.019       88.332        6.619        0.006      331.350       -0.692      867.484
12/27/2014  21:30:00      -69.731      -17.677       -9.135       11.374       12.764        8.512      129.372      162.908       72.452        0.281        0.018       71.937        5.626        0.006      331.373       -0.653      867.492
12/27/2014  21:31:00      -42.603      -14.334       -9.196        9.778        7.247        7.519       95.608       52.520       56.538        0.115        0.010       44.949        5.956        0.018      331.458       -0.514      867.495
12/27/2014  21:32:00      -43.563       -8.432       -5.937        7.714        7.460        5.160       59.500       55.650       26.622        0.107        0.007       44.372        2.255        0.003      331.548       -0.366      867.491
12/27/2014  21:33:00      -45.320      -18.468       -6.237       10.411        7.406        6.301      108.395       54.850       39.703        0.132        0.010       48.939        6.507        0.018      331.567       -0.335      867.495
12/27/2014  21:34:00      -78.050      -32.874      -12.774       13.248        9.699        7.574      175.512       94.079       57.373        0.383        0.016       84.691        8.337        0.010      331.543       -0.375      867.496
12/27/2014  21:35:00      -87.116      -48.253       -3.228       18.054       13.376        9.493      325.934      178.918       90.122        0.526        0.030       99.587        7.195        0.005      331.510       -0.430      867.505
12/27/2014  21:36:00     -100.760      -20.434       -9.744       14.210       18.809       12.505      201.926      353.770      156.387        0.569        0.036      102.811       10.867        0.011      331.491       -0.460      867.492
12/27/2014  21:37:00     -112.983      -19.586      -15.030       17.669       15.045       10.551      312.203      226.359      111.318        0.701        0.032      114.669       11.330        0.010      331.435       -0.553      867.464
12/27/2014  21:38:00     -113.694      -44.247      -12.659       12.928       14.377       10.316      167.138      206.709      106.411        0.776        0.024      122.001        6.978        0.003      331.382       -0.638      867.424
12/27/2014  21:39:00     -114.510      -54.404      -10.890       18.563       13.597       11.376      344.582      184.871      129.420        0.842        0.033      126.776        5.994        0.002      331.412       -0.589      867.377
12/27/2014  21:40:00     -134.098      -38.866      -11.247       13.201       14.458       10.664      174.265      209.044      113.711        1.006        0.025      139.617        6.077        0.002      331.421       -0.574      867.376
12/27/2014  21:41:00     -112.710      -62.831      -10.950       20.819       18.432       16.346      433.440      339.741      267.199        0.891        0.052      129.040        6.123        0.002      331.450       -0.529      867.401
12/27/2014  21:42:00     -109.060      -42.826      -10.751       22.872       21.802       12.549      523.137      475.326      157.476        0.750        0.058      117.167       11.980        0.010      331.437       -0.549      867.404
12/27/2014  21:43:00      -97.709      -44.769       -6.341       20.966       20.947       13.472      439.590      438.782      181.484        0.633        0.053      107.477       12.531        0.014      331.433       -0.557      867.392
12/27/2014  21:44:00      -52.163      -22.802       -3.493       34.907       12.426       10.349     1218.470      154.402      107.095        0.237        0.074       56.929        6.270        0.012      331.401       -0.607      867.356
12/27/2014  21:45:00      -56.578      -15.422       -4.905       24.853       13.175       10.320      617.695      173.577      106.494        0.218        0.045       58.642        9.942        0.029      331.477       -0.484      867.335
12/27/2014  21:46:00      -93.909      -41.816       -4.246       33.404       21.227       10.856     1115.824      450.597      117.844        0.613        0.084      102.798       13.636        0.018      331.512       -0.425      867.340
12/27/2014  21:47:00      -73.689      -45.390        6.442       30.962       20.321       15.902      958.619      412.939      252.882        0.458        0.081       86.547       15.456        0.032      331.550       -0.362      867.357
12/27/2014  21:48:00      -95.459      -44.151        2.175       26.352       16.553       17.617      694.416      273.999      310.347        0.617        0.064      105.175       15.779        0.023      331.552       -0.359      867.375
12/27/2014  21:49:00      -39.289      -23.345       -0.135       25.914       20.459       14.220      671.524      418.552      202.207        0.169        0.065       45.701       14.472        0.100      331.459       -0.513      867.376
12/27/2014  21:50:00      -14.718       16.523       -1.127       11.231       10.578        9.104      126.140      111.892       82.874        0.041        0.016       22.127        7.323        0.110      331.540       -0.380      867.359
12/27/2014  21:51:00       28.848       34.949        7.824       16.492       24.203       19.382      271.973      585.796      375.677        0.167        0.062       45.317       18.479        0.166      331.503       -0.439      867.356
12/27/2014  21:52:00       47.865       48.318       -8.548       28.387       23.711       21.771      805.804      562.232      473.996        0.327        0.092       68.012       15.950        0.055      331.457       -0.517      867.387
12/27/2014  21:53:00       -2.002       93.809      -19.483       12.074       17.487        8.877      145.791      305.810       78.801        0.486        0.027       93.831        7.207        0.006      331.495       -0.453      867.434
12/27/2014  21:54:00      -42.318       50.528       -3.736       27.470       36.541       13.941      754.587     1335.245      194.343        0.332        0.114       65.909       15.870        0.058      331.592       -0.293      867.470
12/27/2014  21:55:00      -32.011       45.655       -3.150       21.474       24.663       17.650      461.117      608.277      311.505        0.225        0.069       55.759       16.375        0.086      331.526       -0.403      867.476
12/27/2014  21:56:00      -25.055       61.597       -9.763       27.568       23.210       14.431      759.978      538.719      208.251        0.301        0.075       66.498        7.479        0.013      331.618       -0.252      867.471
12/27/2014  21:57:00      -41.337        9.500       -4.134       16.003       14.293       11.631      256.100      204.287      135.284        0.121        0.030       42.415        5.715        0.018      331.560       -0.348      867.460
12/27/2014  21:58:00      -57.205       -5.236      -10.061       16.154       13.231       10.395      260.949      175.061      108.058        0.197        0.027       57.444        7.765        0.018      331.460       -0.511      867.457
12/27/2014  21:59:00      -78.899      -14.600       -3.937       17.326       14.549       10.737      300.196      211.681      115.285        0.354        0.031       80.238       10.424        0.017      331.373       -0.654      867.448
12/27/2014  22:00:00      -48.333      -14.408       -6.261       13.985       12.993       10.417      195.593      168.831      108.516        0.153        0.024       50.435        6.758        0.018      331.400       -0.610      867.463
12/27/2014  22:01:00      -42.499      -19.943       -7.525       12.215        9.738        7.350      149.212       94.835       54.017        0.128        0.015       46.945        6.014        0.016      331.378       -0.646      867.476
12/27/2014  22:02:00       -0.412        0.576       -2.310       14.342       10.732        8.812      205.679      115.170       77.648        0.020        0.020        0.708        5.081       51.491      331.504       -0.439      867.478
12/27/2014  22:03:00       23.718       31.982       -1.618       11.950       16.027       10.784      142.810      256.872      116.304        0.105        0.026       39.817        9.082        0.052      331.686       -0.138      867.467
12/27/2014  22:04:00       14.692       22.266        2.301       11.889       15.799        9.936      141.347      249.596       98.721        0.060        0.024       26.676        9.244        0.120      331.567       -0.335      867.454
12/27/2014  22:05:00       10.910       48.752       -6.815       11.597       15.964        9.631      134.482      254.862       92.748        0.151        0.024       49.958        7.396        0.022      331.757       -0.022      867.441
12/27/2014  22:06:00        1.161       54.187       -5.842        9.753        9.830        5.813       95.129       96.629       33.787        0.160        0.011       54.200        4.316        0.006      331.876        0.174      867.443
12/27/2014  22:07:00        6.476       10.625        6.553       14.564       14.723        7.407      212.116      216.775       54.860        0.034        0.024       12.443        6.775        0.296      331.728       -0.068      867.426
12/27/2014  22:08:00       32.250       19.466        7.983        8.522        5.494        6.397       72.620       30.181       40.927        0.081        0.007       37.669        3.901        0.011      331.693       -0.126      867.397
12/27/2014  22:09:00       28.126       22.253        2.744        5.752        6.992        4.799       33.089       48.885       23.029        0.070        0.005       35.864        3.816        0.011      331.715       -0.090      867.394
12/27/2014  22:10:00       29.391       28.376        2.296        6.507        6.513        5.309       42.335       42.416       28.186        0.089        0.006       40.854        4.522        0.012      331.723       -0.078      867.400
12/27/2014  22:11:00       47.712       40.779        6.451       10.109        9.712        6.387      102.200       94.323       40.792        0.211        0.012       62.764        3.050        0.002      331.799        0.048      867.411
12/27/2014  22:12:00       53.007       24.101        5.563        8.128       12.649        7.478       66.061      160.007       55.925        0.185        0.014       58.229        4.129        0.005      331.860        0.148      867.417
12/27/2014  22:13:00       47.884       22.370        4.799       11.613        6.802        6.408      134.869       46.265       41.067        0.152        0.011       52.852        5.733        0.012      331.855        0.139      867.417
12/27/2014  22:14:00       21.878       17.247       11.176       11.235        9.585        7.913      126.217       91.870       62.615        0.059        0.014       27.858        4.200        0.023      331.781        0.018      867.420
12/27/2014  22:15:00        3.375        2.070        8.582        9.299        8.557        5.923       86.469       73.228       35.079        0.014        0.010        3.959        5.634        2.025      331.752       -0.030      867.424
12/27/2014  22:16:00       25.530       15.229        9.129       18.000        9.452        7.219      324.014       89.332       52.110        0.072        0.023       29.727        8.633        0.084      331.786        0.024      867.425
12/27/2014  22:17:00      -32.116        8.694        4.577       20.147        8.173        7.661      405.903       66.795       58.690        0.083        0.027       33.272        8.981        0.073      331.492       -0.459      867.437
12/27/2014  22:18:00       -2.187       -1.450       10.810       19.265        9.517        7.706      371.159       90.569       59.387        0.032        0.026        2.624        6.544        6.221      331.481       -0.477      867.442
12/27/2014  22:19:00       88.614       27.249       21.683       29.773       22.167       24.646      886.455      491.358      607.430        0.552        0.099       92.709       19.950        0.046      331.679       -0.150      867.420
12/27/2014  22:20:00       23.595       48.585       47.052       36.022       30.400       26.307     1297.590      924.151      692.068        0.402        0.146       54.011       23.351        0.187      331.601       -0.278      867.406
12/27/2014  22:21:00       -8.849       -7.920        6.841       19.426       27.669       12.468      377.350      765.561      155.441        0.074        0.065       11.875       14.679        1.528      331.579       -0.316      867.441
12/27/2014  22:22:00      -74.460       12.480       -5.876       34.956       23.065       18.334     1221.900      532.006      336.138        0.391        0.105       75.498       17.951        0.057      331.340       -0.708      867.460
12/27/2014  22:23:00      -24.720        9.873      -14.571       12.098       12.014       11.375      146.355      144.329      129.382        0.067        0.021       26.618        8.196        0.095      331.293       -0.785      867.456
12/27/2014  22:24:00       12.636       27.269        3.659       23.783        8.632       10.677      565.613       74.520      113.998        0.084        0.038       30.054       11.808        0.154      331.742       -0.047      867.450
12/27/2014  22:25:00       24.775       20.263        7.026        8.845        9.095        7.231       78.234       82.726       52.294        0.064        0.011       32.006        4.910        0.024      331.700       -0.115      867.447
12/27/2014  22:26:00       30.264       20.880        7.033        9.684        8.784        7.562       93.781       77.164       57.191        0.081        0.011       36.768        4.749        0.017      331.619       -0.249      867.445
12/27/2014  22:27:00       29.228       22.719        1.830       13.334       15.296        8.956      177.789      233.966       80.203        0.093        0.025       37.019        6.421        0.030      331.651       -0.197      867.454
12/27/2014  22:28:00       12.748       68.040      -11.144       13.762       12.101        5.393      189.388      146.440       29.087        0.264        0.018       69.224        3.955        0.003      331.649       -0.198      867.479
12/27/2014  22:29:00        7.522       79.682      -11.948        6.394        8.823        5.724       40.880       77.852       32.764        0.335        0.008       80.036        1.348        0.000      331.662       -0.176      867.496
12/27/2014  22:30:00        9.043       76.375      -11.158        8.056        9.974        5.120       64.905       99.483       26.210        0.311        0.010       76.908        2.105        0.001      331.665       -0.172      867.497
12/27/2014  22:31:00        9.783       72.157      -12.511        8.027       10.891        5.148       64.436      118.610       26.502        0.283        0.010       72.817        1.382        0.000      331.715       -0.088      867.498
12/27/2014  22:32:00       13.101       54.073       -7.215       11.186       11.185        4.748      125.136      125.114       22.545        0.171        0.014       55.638        3.922        0.005      331.689       -0.132      867.493
12/27/2014  22:33:00       20.622       38.436       -4.942       10.096        8.590        6.996      101.928       73.791       48.939        0.108        0.011       43.619        3.199        0.005      331.652       -0.192      867.494
12/27/2014  22:34:00       28.749       20.255        1.586        9.528        8.259        7.204       90.783       68.209       51.898        0.073        0.011       35.168        4.269        0.015      331.667       -0.170      867.497
12/27/2014  22:35:00       14.291        2.522       -1.528        5.859        3.618        3.675       34.331       13.087       13.509        0.014        0.003       14.512        2.032        0.020      331.686       -0.139      867.501
12/27/2014  22:36:00       13.773        1.108       -0.735        6.818        4.805        2.917       46.480       23.089        8.508        0.013        0.004       13.818        3.400        0.061      331.703       -0.110      867.509
12/27/2014  22:37:00       23.856       21.259        1.876        3.137        4.819        3.134        9.838       23.222        9.821        0.053        0.002       31.954        1.740        0.003      331.715       -0.090      867.519
12/27/2014  22:38:00       21.125       24.173        0.129        4.097        6.697        4.573       16.787       44.852       20.917        0.056        0.004       32.103        3.234        0.010      331.740       -0.052      867.523
12/27/2014  22:39:00       12.766       19.126       -2.177        9.265        8.040        4.678       85.849       64.645       21.882        0.035        0.009       22.995        4.849        0.044      331.744       -0.043      867.515
12/27/2014  22:40:00       -8.726       22.383       -6.141       11.292        8.863        5.044      127.513       78.545       25.443        0.042        0.012       24.024        5.695        0.056      331.854        0.138      867.513
12/27/2014  22:41:00      -18.370       10.161       -1.703        8.448       10.509        5.797       71.376      110.448       33.600        0.033        0.011       20.993        5.916        0.079      331.787        0.029      867.523
12/27/2014  22:42:00      -26.865      -16.013       -2.784       10.697        6.729        5.469      114.420       45.284       29.910        0.059        0.009       31.275        5.392        0.030      331.615       -0.255      867.524
12/27/2014  22:43:00       13.547        1.677       -0.426        8.909        7.652        6.976       79.365       58.550       48.669        0.019        0.009       13.650        5.743        0.177      331.822        0.084      867.513
12/27/2014  22:44:00       -5.866       -2.790        0.877       13.209        8.149        5.398      174.473       66.412       29.136        0.016        0.014        6.496        6.086        0.878      331.827        0.092      867.500
12/27/2014  22:45:00     -111.694       -5.059      -16.288       50.567       18.554       13.407     2557.065      344.257      179.745        0.792        0.154      111.809       17.757        0.025      331.363       -0.670      867.495
12/27/2014  22:46:00     -115.576       -7.255       -3.337       45.843       29.628       24.764     2101.585      877.846      613.231        0.851        0.180      115.803       25.000        0.047      331.142       -1.034      867.493
12/27/2014  22:47:00      -64.151      -31.734       -3.578       37.930       23.566       15.384     1438.668      555.376      236.665        0.368        0.112       71.570       15.957        0.050      331.207       -0.926      867.490
12/27/2014  22:48:00      -38.422      -47.450        7.213       26.642       28.713       15.964      709.822      824.457      254.845        0.278        0.089       61.055       19.752        0.105      331.500       -0.445      867.495
12/27/2014  22:49:00      -76.716      -59.604       -3.579       11.636       19.162       11.266      135.389      367.182      126.913        0.504        0.031       97.150        5.592        0.003      331.713       -0.094      867.518
12/27/2014  22:50:00      -42.745      -35.214        0.749       28.348       20.549       16.222      803.600      422.271      263.158        0.228        0.074       55.382       16.935        0.094      331.798        0.046      867.530
12/27/2014  22:51:00      -24.777       -3.994       -0.044       13.553       14.783        8.657      183.679      218.527       74.951        0.055        0.024       25.096        4.852        0.037      331.625       -0.240      867.528
12/27/2014  22:52:00      -59.587      -17.044       -7.279       29.318       12.297       12.671      859.562      151.219      160.566        0.253        0.059       61.977       16.659        0.072      331.537       -0.385      867.527
12/27/2014  22:53:00     -115.890      -20.050      -10.341       22.657       18.348       17.744      513.323      336.638      314.840        0.755        0.058      117.612       14.360        0.015      331.272       -0.821      867.535
12/27/2014  22:54:00      -66.924        4.019       -8.631       33.862       25.565       17.923     1146.659      653.571      321.251        0.335        0.106       67.045       18.015        0.072      331.242       -0.869      867.534
12/27/2014  22:55:00      -44.172        3.430       -9.478       12.767       12.703        7.415      162.995      161.362       54.980        0.122        0.019       44.305        7.518        0.029      331.346       -0.698      867.527
12/27/2014  22:56:00      -38.229        3.598       -7.939        6.048        8.548        4.715       36.584       73.074       22.228        0.083        0.007       38.398        2.673        0.005      331.529       -0.396      867.526
12/27/2014  22:57:00      -14.031       -4.481        0.663       13.981        5.930        5.117      195.466       35.165       26.184        0.024        0.013       14.729        5.378        0.133      331.612       -0.261      867.525
12/27/2014  22:58:00       18.471       24.151       18.569       14.193       10.025       13.904      201.436      100.498      193.322        0.088        0.025       30.405        8.137        0.072      331.449       -0.529      867.513
12/27/2014  22:59:00       24.010       18.205       20.057        8.764       11.767       13.099       76.814      138.462      171.574        0.085        0.019       30.132        9.624        0.102      331.462       -0.508      867.508
12/27/2014  23:00:00       -3.805       13.818       18.501        7.440       12.839        9.866       55.355      164.844       97.345        0.043        0.016       14.333        8.285        0.334      331.427       -0.565      867.507
12/27/2014  23:01:00       19.712       32.289       20.941       12.945       10.504       11.771      167.564      110.343      138.559        0.114        0.021       37.831        7.600        0.040      331.553       -0.358      867.512
12/27/2014  23:02:00        3.139       41.693       -7.090        8.796        5.042        3.802       77.377       25.422       14.453        0.096        0.006       41.811        2.317        0.003      331.552       -0.361      867.523
12/27/2014  23:03:00        7.535       38.014       -5.743        7.829        5.026        3.580       61.293       25.264       12.814        0.082        0.005       38.753        1.824        0.002      331.577       -0.320      867.542
12/27/2014  23:04:00       21.120       17.764       -2.053        6.220        9.279        5.983       38.689       86.095       35.793        0.046        0.008       27.597        5.237        0.036      331.518       -0.415      867.564
12/27/2014  23:05:00       13.775        3.807       -5.262       20.685       14.841        8.502      427.887      220.247       72.289        0.048        0.036       14.291        8.363        0.342      331.512       -0.428      867.572
12/27/2014  23:06:00      -51.691       -2.748       -8.046       30.757       13.718        7.271      945.987      188.194       52.868        0.197        0.059       51.764        9.402        0.033      331.440       -0.543      867.593
12/27/2014  23:07:00      -67.225        6.972       -8.914        9.691       11.637        5.284       93.911      135.416       27.916        0.245        0.013       67.585        3.863        0.003      331.341       -0.706      867.608
12/27/2014  23:08:00      -33.468       13.011       -7.899       10.914       11.146        4.087      119.121      124.238       16.706        0.081        0.013       35.908        1.600        0.002      331.646       -0.206      867.637
12/27/2014  23:09:00        1.918        1.251        0.296       13.972       12.207        5.782      195.208      149.003       33.427        0.019        0.019        2.290        2.425        1.122      331.732       -0.063      867.645
12/27/2014  23:10:00       19.345      -23.834       -5.177       13.937       15.296        8.099      194.238      233.967       65.597        0.073        0.025       30.697        8.753        0.081      331.633       -0.225      867.629
12/27/2014  23:11:00       21.247      -31.039       -6.699       13.254       14.614        6.318      175.671      213.576       39.916        0.094        0.021       37.614        5.367        0.020      331.834        0.104      867.618
12/27/2014  23:12:00      -13.584       17.484        2.050        9.263       14.418        5.654       85.812      207.865       31.963        0.041        0.016       22.141        5.423        0.060      331.796        0.042      867.604
12/27/2014  23:13:00      -16.506       16.400       -4.550        8.384        9.211        7.526       70.299       84.838       56.647        0.039        0.011       23.268        4.332        0.035      331.681       -0.147      867.574
12/27/2014  23:14:00      -38.577       -6.241       -6.549       21.008       17.234        7.555      441.348      297.016       57.084        0.118        0.040       39.079        9.758        0.062      331.701       -0.113      867.546
12/27/2014  23:15:00      -88.217      -42.984       -7.268       35.861       11.952        8.829     1285.985      142.854       77.957        0.559        0.075       98.132       11.492        0.014      331.299       -0.775      867.559
12/27/2014  23:16:00     -111.943      -42.389      -11.713       16.490       14.939       10.060      271.915      223.188      101.194        0.753        0.030      119.700        7.829        0.004      331.154       -1.014      867.581
12/27/2014  23:17:00      -78.032      -25.777       -2.605       18.506       20.249       13.916      342.466      410.039      193.664        0.385        0.047       82.179        8.656        0.011      331.192       -0.953      867.570
12/27/2014  23:18:00      -61.138      -25.769      -15.291       12.490        6.928        7.592      156.005       47.992       57.638        0.245        0.013       66.347        4.002        0.004      331.350       -0.692      867.538
12/27/2014  23:19:00      -76.330      -40.090       -9.188        9.892       13.563        8.495       97.851      183.950       72.161        0.394        0.018       86.218        8.097        0.009      331.407       -0.599      867.539
12/27/2014  23:20:00      -91.899      -18.809      -11.966       20.513       18.709       10.032      420.769      350.030      100.644        0.491        0.044       93.804        6.365        0.005      331.331       -0.723      867.558
12/27/2014  23:21:00     -100.444       -3.089      -10.366       27.892       21.453       15.884      777.974      460.239      252.300        0.585        0.075      100.491       14.657        0.021      331.273       -0.818      867.563
12/27/2014  23:22:00      -78.688       -8.534      -11.942       21.234       14.241       10.245      450.862      202.820      104.960        0.358        0.038       79.150        8.723        0.012      331.215       -0.913      867.558
12/27/2014  23:23:00      -44.825       -4.253       -2.027       12.244        9.915        6.673      149.919       98.304       44.536        0.116        0.015       45.026        5.398        0.014      331.295       -0.782      867.528
12/27/2014  23:24:00      -33.299      -17.721       -5.471       15.023       10.723        7.253      225.684      114.982       52.611        0.092        0.020       37.721        8.588        0.052      331.434       -0.555      867.511
12/27/2014  23:25:00      -90.977      -18.822      -10.787       15.444       12.901       10.225      238.514      166.425      104.550        0.463        0.025       92.903        5.848        0.004      331.339       -0.708      867.524
12/27/2014  23:26:00      -81.899      -24.564       -9.115       14.519       14.493       11.295      210.808      210.038      127.566        0.397        0.027       85.504        7.511        0.008      331.239       -0.873      867.512
12/27/2014  23:27:00      -86.680      -47.610       -8.771       14.131       15.201       11.318      199.694      231.072      128.104        0.521        0.028       98.895        5.574        0.003      331.216       -0.911      867.484
12/27/2014  23:28:00      -84.769      -53.742       -5.269       23.920       19.387       12.648      572.145      375.853      159.979        0.560        0.055      100.370       11.195        0.012      331.256       -0.846      867.462
12/27/2014  23:29:00      -56.101      -38.581        3.499       32.895       20.819       13.109     1082.057      433.413      171.855        0.317        0.084       68.087       13.198        0.038      331.325       -0.733      867.451
12/27/2014  23:30:00      -76.651      -41.192       -3.313       26.767       15.981       10.908      716.485      255.401      118.979        0.434        0.055       87.018        8.462        0.009      331.331       -0.722      867.467
12/27/2014  23:31:00      -37.818      -26.960       -3.951       25.417       16.351       12.368      646.045      267.368      152.968        0.162        0.053       46.444        8.250        0.032      331.288       -0.793      867.462
12/27/2014  23:32:00      -62.760       -3.129       -2.719       17.621       12.146        8.844      310.513      147.530       78.219        0.225        0.027       62.837        9.282        0.022      331.217       -0.909      867.437
12/27/2014  23:33:00      -77.916        7.483      -10.562       15.204        7.474        9.546      231.149       55.860       91.120        0.331        0.019       78.275        9.792        0.016      331.260       -0.838      867.419
12/27/2014  23:34:00      -92.407      -18.839      -10.168       14.080       18.975        9.756      198.255      360.037       95.187        0.483        0.033       94.308        7.245        0.006      331.326       -0.730      867.426
12/27/2014  23:35:00      -93.885      -58.574       -4.884       32.881       17.513       12.459     1081.140      306.696      155.239        0.691        0.077      110.658       12.454        0.013      331.326       -0.732      867.441
12/27/2014  23:36:00      -81.164      -52.137        0.558       30.906       20.066       13.588      955.194      402.649      184.636        0.542        0.077       96.467       12.767        0.018      331.298       -0.776      867.443
12/27/2014  23:37:00      -77.281      -40.844       -2.790       18.672       17.668       15.878      348.631      312.163      252.108        0.428        0.046       87.411       12.556        0.021      331.268       -0.827      867.424
12/27/2014  23:38:00      -85.659      -21.081       -4.079       33.014       23.103       13.503     1089.934      533.729      182.326        0.480        0.090       88.215       13.664        0.024      331.229       -0.889      867.392
12/27/2014  23:39:00      -63.390      -38.510        4.917       29.523       19.657       14.784      871.585      386.397      218.554        0.350        0.074       74.170        8.780        0.014      331.257       -0.844      867.362
12/27/2014  23:40:00      -64.444      -27.995        2.440       23.372       25.285       13.659      546.260      639.324      186.568        0.316        0.069       70.262        9.765        0.019      331.271       -0.822      867.321
12/27/2014  23:41:00      -98.411      -28.004       -0.886       31.179       23.920       12.586      972.156      572.160      158.402        0.609        0.085      102.318       13.762        0.018      331.306       -0.764      867.293
12/27/2014  23:42:00     -127.899      -46.856        3.400       40.647       28.217       18.686     1652.188      796.195      349.171        1.068        0.140      136.212       14.592        0.011      331.226       -0.895      867.293
12/27/2014  23:43:00     -101.351      -50.852        5.052       43.324       34.863       26.119     1876.970     1215.442      682.186        0.833        0.189      113.393       17.052        0.023      331.287       -0.795      867.293
12/27/2014  23:44:00      -85.421      -48.702        4.566       36.565       34.888       20.319     1337.012     1217.166      412.867        0.633        0.148       98.329       15.311        0.024      331.342       -0.703      867.275
12/27/2014  23:45:00      -90.305      -56.546       -0.642       53.834       37.848       25.577     2898.129     1432.472      654.180        0.817        0.249      106.548       21.643        0.041      331.305       -0.766      867.285
12/27/2014  23:46:00     -111.943      -68.260       -0.863       47.384       34.459       23.578     2245.222     1187.427      555.933        1.059        0.199      131.113       17.062        0.017      331.311       -0.755      867.302
12/27/2014  23:47:00      -70.462      -51.057        5.396       36.959       51.818       21.772     1365.976     2685.069      474.025        0.606        0.226       87.016       24.722        0.081      331.322       -0.736      867.314
12/27/2014  23:48:00      -45.425       -8.946        1.809       21.483       15.606       11.462      461.507      243.538      131.388        0.149        0.042       46.298        9.575        0.043      331.275       -0.814      867.325
12/27/2014  23:49:00      -10.269      -38.391        1.554       17.319       33.474       14.491      299.934     1120.532      209.975        0.161        0.082       39.741       12.572        0.100      331.322       -0.737      867.333
12/27/2014  23:50:00       26.063      -11.880       19.296       20.098       28.711       16.250      403.927      824.315      264.064        0.134        0.075       28.642       12.548        0.192      331.259       -0.840      867.335
12/27/2014  23:51:00        0.949       16.795       -7.183       10.540       10.565       11.866      111.093      111.628      140.805        0.035        0.018       16.822        8.624        0.263      331.237       -0.880      867.344
12/27/2014  23:52:00       15.382       30.049       -5.938       17.086       17.903        8.583      291.932      320.529       73.664        0.093        0.034       33.758        7.249        0.046      331.300       -0.773      867.353
12/27/2014  23:53:00       51.736       61.660      -13.359       37.033       20.350       15.050     1371.447      414.111      226.488        0.433        0.101       80.490       14.050        0.030      331.217       -0.910      867.344
12/27/2014  23:54:00       33.588       51.456        0.252       25.512       25.106       22.065      650.877      630.317      486.875        0.277        0.088       61.448       18.655        0.092      331.076       -1.143      867.327
12/27/2014  23:55:00       28.789       56.077       -7.252       19.950       28.864       13.650      397.987      833.136      186.317        0.272        0.071       63.036        9.856        0.024      331.148       -1.024      867.318
12/27/2014  23:56:00        7.864       52.899       -8.020        7.650        8.618        7.043       58.528       74.278       49.606        0.155        0.009       53.481        5.944        0.012      331.364       -0.667      867.325
12/27/2014  23:57:00      -38.338       24.666       -1.052       37.742       36.616       17.114     1424.464     1340.739      292.896        0.257        0.153       45.587        8.283        0.033      331.322       -0.737      867.330
12/27/2014  23:58:00      -52.364      -10.976      -10.847       12.596       14.477        8.266      158.660      209.588       68.330        0.171        0.022       53.502        6.204        0.013      331.201       -0.936      867.313
12/27/2014  23:59:00      -27.691       -9.877       -9.460       14.900       10.601       10.524      222.019      112.373      110.757        0.070        0.022       29.399        7.961        0.073      331.256       -0.846      867.279
